GFSSW_925_thetae_000.txt.gz
Theta_e
308 309 309 310 309 309 310 310 311 310 310 310 309 308 307 305 302 304 308 309 311 310 312 318 318 324 326 323 323 322 328 329 327 327 325 324 326 323 323 323 321 322 322 323 325
306 306 306 307 308 308 309 308 309 310 310 311 311 309 307 306 307 311 308 309 311 310 311 324 326 325 322 323 324 325 327 327 325 324 326 325 327 326 324 325 320 319 319 323 324
308 308 307 306 306 306 306 307 308 309 310 311 310 310 309 306 309 306 310 312 310 309 309 318 324 325 326 323 324 325 329 327 326 325 326 327 326 326 325 327 326 322 321 321 321
307 308 307 307 307 306 305 306 308 308 308 309 310 310 310 307 303 310 313 315 319 313 311 323 325 325 325 326 325 328 326 327 326 325 325 326 326 327 326 326 325 322 320 322 320
305 307 307 307 307 307 307 307 306 306 307 307 308 310 310 310 306 311 314 306 314 318 313 317 326 324 325 324 325 325 326 326 325 324 325 325 325 327 326 326 324 321 318 318 320
305 305 306 306 306 307 307 307 306 305 305 307 308 309 310 310 308 307 304 306 307 313 317 313 317 322 323 324 325 325 325 325 325 326 326 327 327 327 328 327 324 322 320 318 320
305 305 305 306 306 306 306 306 306 306 304 306 308 309 310 310 309 307 306 308 308 308 317 315 314 315 315 317 315 317 319 318 319 320 322 324 325 326 326 324 320 320 319 317 320
305 304 305 305 306 306 306 306 305 304 307 306 308 308 309 309 309 309 309 308 308 307 310 317 317 315 314 314 315 317 317 318 318 320 320 322 324 324 323 322 322 321 320 318 317
304 304 304 304 304 306 305 305 304 305 307 307 307 308 308 308 309 308 309 308 309 308 306 310 316 315 313 316 316 314 316 316 316 317 319 323 322 322 321 321 320 320 319 319 317
305 305 304 304 304 304 304 304 304 308 307 307 306 306 308 307 309 307 308 309 307 304 305 308 312 314 312 314 317 315 315 315 316 317 318 319 320 321 321 321 320 320 319 318 318
305 305 305 304 304 304 304 303 303 308 308 307 306 307 306 309 309 310 306 308 307 308 306 309 312 315 314 315 315 314 314 313 314 317 318 318 319 320 321 319 319 320 320 319 319
304 304 304 304 304 304 304 301 306 304 306 306 307 308 308 308 310 310 308 306 308 308 308 313 313 312 315 315 316 315 314 313 315 319 320 319 320 319 319 320 319 321 320 320 318
304 303 304 304 303 304 302 303 304 303 306 308 307 307 307 308 311 308 310 308 308 307 309 309 312 313 316 317 316 315 315 316 316 319 320 320 320 320 321 320 319 319 319 318 317
304 304 303 304 303 303 303 303 304 304 308 307 308 308 308 307 308 307 310 309 307 308 307 309 310 313 318 319 318 319 317 317 319 320 320 320 323 320 319 321 319 318 317 318 318
304 302 303 303 303 303 303 303 303 304 307 301 305 307 308 307 307 307 307 311 312 306 308 308 310 312 315 318 319 319 318 319 320 321 320 320 321 320 319 320 320 319 318 316 315
302 303 303 303 303 302 303 302 304 307 307 304 306 306 305 310 310 309 310 309 312 307 307 308 310 310 313 316 317 316 316 317 317 317 321 319 320 319 320 321 320 319 318 319 318
302 302 303 304 302 303 302 303 305 307 305 305 307 306 305 308 309 309 310 310 313 314 311 310 308 311 311 311 315 315 314 315 318 319 321 319 320 319 319 319 319 320 318 320 321
302 302 302 302 303 303 304 304 306 304 304 305 306 304 307 308 308 310 313 312 310 312 313 312 312 309 312 312 313 316 315 316 318 322 324 320 324 323 320 320 319 319 318 320 321
302 302 303 304 304 303 301 304 303 305 306 305 305 306 307 306 308 311 311 313 311 310 312 313 313 312 312 313 313 315 315 315 319 320 321 321 321 321 320 320 320 320 320 321 321
302 301 302 304 304 305 304 303 305 304 304 304 305 306 306 306 308 309 312 313 312 313 310 311 313 312 312 312 313 312 314 316 315 320 323 322 323 323 322 320 322 322 320 320 321
301 298 304 304 303 305 306 303 303 303 304 305 306 306 304 307 308 309 312 314 309 309 312 310 311 314 312 312 312 312 313 313 315 316 321 322 323 318 321 319 320 320 319 320 323
299 298 304 303 305 302 303 304 305 305 304 304 305 306 306 307 309 309 311 310 307 308 310 312 309 312 313 311 312 313 313 314 316 318 318 321 322 319 318 317 317 319 320 320 322
300 299 301 303 303 303 303 303 304 304 304 304 304 303 303 305 307 308 308 307 307 309 311 311 312 312 314 314 312 312 313 313 312 314 318 320 321 319 321 320 318 320 321 322 322
300 299 297 300 302 303 303 302 304 304 304 303 303 302 304 306 306 309 308 307 309 309 313 308 310 315 314 313 313 313 313 313 312 313 316 320 320 319 324 320 321 321 321 322 323
296 298 301 302 297 301 302 301 303 305 305 304 304 305 306 308 308 311 310 311 308 310 309 307 310 314 315 317 315 315 314 313 313 314 315 316 318 317 318 321 321 321 322 324 324
299 302 300 302 302 302 300 301 304 304 304 305 305 305 304 305 306 308 308 310 310 309 309 306 310 311 315 317 318 315 313 313 313 313 314 317 316 315 320 323 323 323 324 325 325
301 301 302 302 301 302 302 302 303 303 303 304 303 303 303 304 305 305 306 308 308 309 310 308 308 309 312 312 314 313 314 314 314 314 314 317 317 318 325 325 324 323 324 325 325

GFSSW_925_thetae_003.txt.gz
Theta_e
308 308 307 307 307 306 307 308 308 309 310 311 311 311 310 308 305 305 306 308 311 310 312 321 325 324 319 322 327 326 331 330 329 328 328 327 328 326 326 328 326 325 327 327 325
308 308 308 308 307 306 306 307 307 308 309 310 310 311 310 309 308 310 307 307 310 309 320 320 321 324 326 327 327 330 332 330 329 328 328 327 328 329 329 329 329 329 327 323 324
307 308 308 308 308 308 307 307 307 307 308 309 309 309 310 309 307 306 315 315 311 309 316 318 318 323 325 327 328 328 331 329 329 328 327 328 329 328 328 329 329 329 329 329 327
306 307 307 306 307 307 308 308 308 308 307 307 308 308 309 309 310 316 311 308 310 314 313 314 321 324 323 327 327 328 328 329 328 328 328 328 328 328 329 330 329 329 328 327 327
305 306 306 306 307 307 307 307 308 308 307 305 307 308 309 311 309 312 317 308 309 319 312 316 322 322 323 324 326 329 328 329 329 329 328 328 329 329 329 328 327 328 328 328 327
304 305 305 306 306 307 306 306 307 306 307 307 306 308 308 308 308 308 309 307 307 315 314 313 320 321 322 325 326 325 327 328 328 328 328 328 328 328 328 329 328 329 329 328 327
304 304 304 305 306 306 306 306 306 304 307 308 308 307 307 307 306 308 309 309 308 309 312 313 314 320 322 323 324 326 328 328 328 327 328 325 324 325 326 326 327 327 328 328 327
305 304 305 305 305 306 305 305 304 304 307 308 308 307 308 307 307 308 308 310 310 308 310 309 315 315 317 317 317 319 320 321 320 321 321 321 324 323 324 326 327 327 327 325 326
304 304 305 305 305 305 304 304 302 304 308 308 307 307 307 305 307 309 310 310 310 310 309 308 314 318 316 317 320 319 320 320 320 321 321 324 324 323 323 324 325 325 325 325 326
304 305 304 304 305 304 304 303 305 307 307 307 307 306 305 306 308 308 310 310 310 308 309 308 314 315 317 318 321 320 319 319 320 320 319 320 322 322 323 323 324 325 326 326 325
305 304 304 304 304 304 303 303 306 308 306 308 307 306 306 306 306 306 310 311 311 309 310 310 313 316 315 316 318 319 320 322 322 319 318 319 319 321 323 323 324 324 325 326 328
304 304 304 303 303 303 303 304 305 303 306 305 306 306 306 306 307 306 306 309 310 310 310 311 313 314 315 314 316 317 319 319 318 316 317 318 319 321 322 323 323 325 326 327 328
304 304 303 303 303 303 303 303 303 304 306 306 307 307 307 307 308 307 308 309 309 310 310 313 314 312 313 315 316 317 317 318 318 317 318 319 320 320 321 323 323 323 324 326 327
303 303 303 303 303 302 303 302 303 304 308 306 307 307 307 307 308 307 306 308 309 310 310 311 313 312 313 314 316 317 317 317 317 318 318 321 323 322 322 323 323 323 325 326 327
303 303 303 303 303 303 303 302 303 304 305 303 307 308 306 308 308 309 307 307 311 310 311 311 311 313 313 314 316 316 316 317 318 320 322 321 323 322 322 322 323 324 323 327 327
302 302 304 303 302 303 302 302 304 308 305 305 306 306 305 307 308 309 308 307 310 312 310 312 311 311 314 315 316 317 318 320 320 321 321 320 322 321 322 322 321 324 326 325 326
301 301 302 303 303 302 302 304 306 305 303 305 306 305 304 307 308 310 310 308 309 314 312 310 310 311 312 315 317 319 320 319 319 320 320 320 321 322 321 320 321 324 327 326 328
301 301 302 303 303 303 303 306 305 301 303 304 305 304 302 307 308 309 309 312 309 312 315 312 311 311 312 314 317 320 320 320 323 323 321 322 321 321 324 323 322 324 326 325 329
301 302 303 304 304 303 305 304 301 302 304 305 304 304 304 305 307 307 309 315 310 309 314 315 314 312 312 313 315 318 320 319 318 322 323 325 325 325 325 325 326 326 325 328 330
301 301 304 305 304 304 307 304 304 304 304 304 304 303 304 304 307 308 308 312 311 311 311 314 316 314 311 313 313 314 316 318 318 318 318 318 322 326 328 327 326 327 327 329 329
300 303 304 303 301 302 306 305 305 304 304 305 305 305 305 304 309 310 310 310 309 310 311 314 315 315 312 314 314 314 317 317 318 318 319 318 319 326 329 329 329 328 329 329 330
301 304 301 304 305 303 305 304 303 305 304 304 305 306 307 306 306 308 309 308 307 308 313 314 317 316 316 315 315 315 316 318 317 320 318 324 323 326 328 328 326 326 327 329 329
301 300 300 303 304 302 301 302 303 305 305 305 305 304 305 306 308 307 308 307 307 310 313 314 317 317 317 315 315 316 316 318 321 322 320 318 320 325 328 328 326 327 327 329 329
302 302 303 304 302 302 302 302 303 304 305 304 305 305 307 307 308 309 310 308 308 309 312 311 313 319 317 317 316 316 316 316 318 319 320 321 318 322 323 327 327 328 328 329 330
301 302 302 303 303 303 301 301 303 304 304 304 305 305 305 307 307 312 310 311 309 309 310 311 314 314 316 316 318 315 315 315 317 319 319 320 321 320 325 325 328 328 329 330 330
303 303 302 303 302 303 302 302 303 303 303 303 305 305 304 304 304 306 310 310 311 309 310 311 314 314 315 315 317 318 316 316 315 316 317 318 319 320 322 326 328 329 329 331 330
301 301 303 303 302 303 303 303 304 305 304 304 304 305 305 305 304 305 306 306 308 310 311 312 313 316 317 316 318 318 321 318 316 316 316 317 320 319 321 325 330 330 330 331 331

GFSSW_925_thetae_006.txt.gz
Theta_e
308 308 308 309 308 308 307 307 307 308 309 309 310 311 310 309 308 313 311 310 312 310 311 325 324 325 322 323 326 329 332 332 332 332 331 330 331 330 330 331 331 330 329 330 328
307 307 308 308 308 308 308 308 308 307 308 308 309 309 308 309 313 313 312 309 308 307 313 323 323 324 327 327 328 332 333 332 331 332 332 331 331 331 331 331 331 331 330 330 329
306 306 307 307 307 307 307 308 309 309 309 307 307 308 307 310 313 312 316 312 312 309 310 317 319 321 324 327 329 331 333 332 332 331 331 331 331 331 330 331 331 331 331 331 330
305 305 306 306 307 307 307 308 308 308 309 308 306 307 306 312 312 320 310 310 314 319 313 315 321 320 323 324 327 332 331 331 331 331 331 331 331 331 330 331 330 330 330 329 330
304 305 306 306 306 306 306 307 307 307 307 308 309 306 309 312 311 312 315 312 311 319 316 319 321 322 325 325 324 329 330 331 330 330 330 330 330 331 331 330 330 329 330 330 330
304 304 305 306 306 306 306 306 306 305 304 307 308 307 309 310 309 310 311 311 312 314 318 317 318 322 325 326 326 325 326 328 329 329 330 331 330 330 330 328 329 330 329 328 328
303 304 305 306 306 306 306 306 305 304 303 307 308 309 309 309 307 308 308 310 311 311 316 315 317 322 324 325 326 325 327 326 327 328 328 328 330 330 329 328 329 328 327 328 328
304 305 305 306 306 306 306 304 304 303 305 308 309 309 309 306 306 307 308 310 310 311 311 312 314 317 322 324 324 325 327 329 328 328 329 329 330 328 327 327 327 327 326 326 327
304 305 305 305 305 306 305 304 303 304 307 309 309 309 309 306 307 307 309 310 311 312 313 311 312 316 317 319 323 325 327 328 328 328 326 326 328 328 327 327 327 327 326 326 327
304 304 305 305 303 303 304 304 305 308 309 309 308 309 308 306 308 309 308 311 312 313 314 314 313 316 318 320 325 325 325 325 326 327 325 325 326 326 327 327 326 326 325 326 327
305 304 305 304 304 304 304 306 309 311 307 309 307 309 307 306 305 306 307 311 313 313 314 314 314 317 319 320 321 323 325 326 326 325 325 325 326 326 326 325 324 325 325 326 327
304 304 304 303 303 303 305 306 307 306 308 306 306 307 305 305 307 308 306 309 313 314 314 315 315 317 318 319 320 322 323 325 325 325 325 325 325 324 324 324 325 326 325 326 328
303 303 303 303 303 306 305 305 305 306 308 307 307 307 309 308 309 309 308 308 310 314 314 316 316 315 316 318 319 320 322 323 322 324 324 323 323 323 323 324 323 324 326 328 327
302 302 303 303 305 305 305 305 305 305 309 306 307 309 309 309 311 310 309 308 311 313 314 314 315 316 317 317 318 320 319 319 321 322 323 322 325 324 324 324 324 325 326 327 327
302 302 303 303 305 305 304 304 305 306 307 304 309 309 309 309 309 310 309 310 308 313 314 315 315 316 317 318 318 319 318 319 320 321 322 321 322 322 323 325 325 326 327 328 326
302 302 301 304 304 304 304 304 305 310 307 305 307 308 307 307 307 309 311 310 309 307 313 314 315 315 317 317 317 318 318 319 320 320 322 321 323 323 324 326 326 326 324 326 328
302 301 303 304 306 304 304 305 309 306 304 304 306 306 305 305 305 308 309 312 312 310 311 315 314 315 315 317 317 317 320 323 324 324 324 322 321 323 326 326 325 324 327 331 333
301 303 304 305 305 305 305 308 307 303 302 304 304 304 304 303 306 308 308 310 313 311 311 315 317 315 315 317 318 318 321 321 322 322 322 323 324 324 324 324 325 326 324 328 334
302 305 306 306 305 305 307 309 305 304 304 305 305 304 304 305 305 307 307 312 315 312 312 316 318 315 315 315 318 320 323 321 320 322 324 323 324 326 327 328 327 327 329 331 335
303 305 306 305 305 302 306 307 306 305 305 305 306 304 305 305 305 308 309 310 311 313 312 316 321 316 314 315 317 321 321 321 320 322 322 320 321 324 327 326 327 327 329 334 335
304 307 305 305 305 307 308 305 305 305 305 306 306 306 307 306 307 309 307 307 308 310 313 315 319 319 316 316 317 319 322 321 322 320 322 322 320 324 324 326 330 331 333 336 335
304 307 303 305 308 306 306 304 305 306 306 306 306 306 307 306 307 307 309 309 307 311 314 315 319 323 317 315 317 318 319 322 321 322 320 319 323 325 328 330 330 330 334 335 334
305 304 303 306 307 305 303 304 304 305 305 306 306 306 307 307 308 309 309 308 308 311 315 317 318 322 320 317 317 318 317 319 321 323 324 321 321 323 330 330 331 332 334 335 334
305 306 305 306 304 305 304 304 305 304 304 305 305 307 307 307 308 311 312 311 309 310 310 315 319 321 322 319 318 318 318 319 322 323 322 322 320 321 327 329 330 333 334 334 334
304 305 304 306 306 305 304 304 304 305 304 305 305 306 305 306 306 309 307 310 310 309 313 314 318 319 319 319 320 319 318 319 321 322 322 321 322 321 324 326 329 331 333 334 334
305 304 304 305 304 305 305 306 305 307 306 307 306 305 306 306 306 306 306 309 310 311 315 315 318 318 319 318 319 319 318 319 320 321 320 320 322 322 324 324 328 332 334 335 334
302 303 304 304 304 305 306 306 308 309 307 306 306 307 307 307 307 307 307 308 308 309 313 316 318 318 320 318 319 320 319 319 319 320 320 321 321 326 326 327 329 332 333 335 334

GFSSW_925_thetae_009.txt.gz
Theta_e
308 309 309 309 308 307 308 309 309 309 308 309 309 309 305 303 303 313 317 315 315 314 311 327 327 327 326 327 324 328 331 333 333 333 332 331 332 331 332 332 332 332 332 332 331
307 308 308 308 308 308 308 308 308 309 309 309 308 304 304 304 312 313 314 314 311 310 314 321 328 325 327 328 327 328 333 333 333 333 333 333 333 332 332 333 332 332 332 331 331
306 307 307 307 307 307 308 308 308 308 309 309 308 306 302 307 314 315 316 315 312 310 311 315 323 327 327 327 329 329 332 333 333 333 333 333 333 332 333 333 332 332 332 332 331
305 306 307 307 306 307 307 308 308 308 308 308 309 308 302 311 314 320 312 310 312 320 317 314 318 326 327 327 327 331 331 332 332 332 332 332 332 332 333 333 332 331 331 332 331
304 305 305 306 307 307 307 307 307 306 306 306 308 308 308 312 314 314 311 313 315 317 322 318 318 323 328 327 328 329 329 330 330 331 331 332 332 332 333 332 332 332 331 331 331
304 305 306 306 307 307 307 306 304 304 303 306 308 307 310 311 311 311 312 313 314 316 320 319 320 322 326 328 328 329 329 328 328 329 331 331 332 331 332 331 331 331 331 331 331
304 305 305 306 306 306 306 306 304 303 303 306 308 309 311 310 308 308 309 310 311 313 317 318 320 322 324 326 327 328 329 329 329 329 329 329 331 331 331 331 331 331 331 330 330
305 305 304 306 306 306 305 303 303 303 303 307 308 309 312 307 306 306 307 308 310 312 314 316 318 321 322 324 326 327 329 330 329 329 329 329 331 330 330 331 330 331 330 330 329
304 304 305 305 305 304 302 301 303 305 306 309 310 310 310 308 309 308 308 308 310 312 313 314 316 318 320 323 326 328 330 330 330 329 329 330 331 331 331 330 331 331 330 329 329
305 304 304 304 304 303 303 303 306 306 310 311 311 312 311 309 307 310 311 309 311 314 315 316 317 318 318 322 325 326 328 329 329 328 329 329 330 330 330 328 329 329 329 329 329
305 304 304 304 303 303 304 308 310 313 312 312 310 311 309 308 307 307 307 308 313 314 316 317 318 318 318 319 322 324 325 327 327 328 328 328 328 328 329 328 328 329 330 330 328
304 302 302 302 302 303 306 308 308 307 309 308 308 308 307 307 308 308 307 308 311 314 314 317 319 319 318 319 320 322 324 326 327 327 328 329 329 329 329 329 328 329 328 328 328
303 303 302 301 301 307 306 307 306 307 309 308 308 308 309 309 310 310 309 309 309 310 315 316 318 318 318 318 320 322 324 325 326 327 327 327 328 328 328 327 326 326 327 327 329
303 303 304 302 304 305 307 306 306 306 310 307 309 309 309 310 311 311 311 311 309 308 312 316 315 318 318 318 319 321 322 324 325 327 328 326 331 328 327 327 327 327 328 328 328
303 302 303 303 305 307 306 306 306 307 310 307 308 310 309 309 310 311 311 311 309 309 309 312 316 316 318 318 319 320 321 324 324 324 325 325 326 326 326 326 326 327 327 328 328
302 302 302 306 307 306 306 306 306 311 310 307 308 309 309 308 309 309 311 312 312 310 310 312 314 317 317 318 319 319 320 323 324 324 327 326 326 327 326 326 327 328 328 328 328
302 303 304 306 307 306 306 306 310 311 307 307 307 307 308 307 306 307 308 310 315 312 310 310 313 316 317 317 319 320 322 325 327 328 329 326 325 326 326 326 326 326 327 329 332
302 305 306 307 307 306 307 308 311 307 306 305 305 305 305 305 305 305 308 308 309 311 314 310 311 314 317 318 319 320 322 325 328 329 327 326 326 326 326 327 326 327 326 334 336
304 307 307 307 306 307 309 312 311 307 307 306 307 308 307 307 307 306 306 308 312 314 320 314 311 312 316 317 318 321 323 323 326 327 328 326 326 327 327 328 328 328 328 328 337
306 306 308 306 307 307 310 308 306 306 306 307 308 308 308 307 307 307 307 312 310 310 313 319 314 313 316 317 318 320 322 323 326 329 327 326 325 324 327 327 327 328 330 335 338
307 308 307 305 307 309 311 306 305 305 306 308 307 307 308 310 308 308 310 309 311 310 312 315 320 320 317 319 318 320 322 323 324 326 327 327 326 325 326 326 329 328 331 338 338
307 308 306 306 311 310 309 306 305 305 305 306 308 308 309 309 309 308 311 309 309 311 315 315 320 326 321 320 318 320 322 324 326 328 324 325 325 327 328 329 331 333 336 337 337
309 308 306 306 311 309 307 306 305 306 305 305 306 307 308 309 311 310 311 309 311 311 313 316 321 325 326 321 318 319 320 324 325 327 326 324 324 325 328 331 331 332 336 337 337
309 309 308 308 306 307 307 308 306 306 306 306 306 306 309 308 309 312 310 309 309 311 311 313 318 323 327 323 318 320 320 323 326 327 326 325 324 329 330 330 333 335 337 336 336
309 308 306 309 309 306 306 307 308 308 308 308 307 306 308 307 307 309 309 308 310 311 311 315 318 317 323 325 319 319 320 322 325 325 325 325 323 323 329 329 330 335 336 336 335
307 307 307 306 306 306 307 309 307 307 308 307 309 307 307 308 308 310 308 310 312 310 314 316 320 316 320 322 323 319 319 320 321 323 323 323 323 323 325 327 334 334 335 335 335
306 305 306 306 306 306 308 306 307 307 308 307 307 309 309 308 309 309 309 309 309 309 311 316 320 317 322 323 322 324 320 321 320 322 323 323 327 328 329 331 331 332 335 335 334

GFSSW_925_thetae_012.txt.gz
Theta_e
307 308 308 308 309 309 309 309 309 309 310 310 309 303 302 302 302 311 315 315 317 315 315 321 329 330 331 335 332 325 326 330 332 332 332 332 332 331 332 333 332 332 332 332 331
307 307 308 308 308 308 308 308 309 309 309 309 309 308 303 302 310 313 312 313 314 315 316 319 328 328 330 328 331 329 328 328 330 331 332 332 332 332 333 333 333 333 334 332 331
306 307 307 308 308 308 308 309 308 309 309 309 309 306 304 306 314 314 316 315 313 314 314 316 320 328 329 327 327 329 330 328 330 331 332 333 333 333 333 334 334 334 333 333 332
306 306 307 307 307 308 308 308 309 308 308 308 309 308 302 311 313 317 313 314 314 313 313 313 315 317 326 330 328 328 329 330 330 330 331 332 332 333 332 333 332 332 334 333 332
304 306 307 307 307 307 306 304 306 306 305 308 308 309 309 308 311 313 314 313 314 316 318 319 318 317 320 326 329 329 328 329 330 330 331 331 332 332 332 332 332 331 333 333 333
305 305 306 306 307 307 307 304 302 303 303 304 308 308 310 310 310 311 313 313 314 315 317 321 322 319 319 322 326 329 328 328 329 329 329 330 330 330 330 331 332 332 333 333 333
305 304 304 305 306 307 307 304 302 302 301 302 308 309 309 309 308 309 309 310 312 313 316 317 320 321 320 321 322 325 328 329 329 329 330 330 331 331 330 330 331 332 332 332 332
304 305 304 303 303 302 301 301 302 301 303 305 309 309 310 306 307 308 308 309 309 309 311 314 316 319 320 321 322 324 325 328 328 329 329 330 331 331 331 330 331 331 332 333 332
305 305 303 303 303 302 301 300 300 302 306 307 310 310 311 308 309 309 309 309 308 309 310 313 315 318 319 321 323 324 328 327 329 328 329 330 331 330 331 331 332 332 333 332 332
305 305 302 301 301 300 301 303 305 307 309 311 312 313 313 312 310 310 311 311 311 311 312 313 315 316 319 320 324 323 324 326 329 328 329 329 330 331 331 331 332 332 333 331 331
304 303 303 302 301 301 304 310 310 311 312 315 315 314 312 310 309 308 308 308 309 311 313 313 316 318 319 319 320 321 323 324 326 326 327 330 330 330 331 330 331 331 332 331 331
303 302 302 302 301 301 305 310 309 307 308 309 309 309 308 307 308 308 308 308 308 309 314 314 317 318 317 318 319 319 321 323 325 324 327 328 329 331 331 332 332 332 333 332 331
302 302 303 302 301 306 307 308 306 306 308 308 308 309 309 308 308 308 309 308 307 308 311 315 315 316 317 318 319 320 321 322 322 323 325 328 329 331 330 331 331 330 330 330 330
302 302 304 302 305 307 308 306 306 306 309 308 308 309 309 309 309 310 310 311 309 308 308 310 313 314 317 318 319 321 320 320 322 324 327 327 332 334 330 331 331 330 330 331 331
302 302 302 302 307 308 306 307 306 307 311 309 310 310 311 310 312 311 311 311 310 311 309 309 309 313 315 317 319 320 319 320 321 323 326 325 328 328 329 328 329 330 330 330 330
302 303 304 308 308 308 307 306 307 310 312 311 311 310 311 311 311 310 312 313 312 312 310 310 310 310 315 316 317 319 319 320 321 324 328 328 328 328 329 328 329 330 328 330 330
302 303 306 307 308 307 307 308 311 311 310 307 306 306 307 307 308 308 308 310 312 315 314 311 311 310 311 314 317 318 323 324 324 326 328 326 327 330 329 328 327 328 327 329 335
302 305 309 308 307 307 308 309 311 311 308 306 306 306 307 307 306 306 306 307 308 312 315 315 316 310 311 313 317 318 323 323 324 324 326 325 329 328 330 329 329 327 329 333 337
305 310 309 309 308 307 309 312 310 308 305 306 306 309 310 310 309 309 308 307 309 312 314 316 317 315 311 313 316 319 319 321 325 325 326 328 328 329 330 327 329 328 329 339 339
305 309 309 308 309 308 310 310 308 305 304 305 307 309 310 310 310 310 310 310 310 311 312 312 315 314 317 312 315 318 319 322 324 327 332 328 329 328 328 328 327 328 332 340 341
308 311 310 307 308 311 312 308 306 306 306 305 306 308 309 309 311 310 312 310 312 310 310 311 313 314 318 318 314 318 320 320 326 326 329 332 327 327 326 326 328 329 337 341 341
309 311 308 307 312 313 311 307 307 308 307 306 307 307 308 309 310 310 313 312 310 312 313 313 318 320 318 317 314 319 320 322 325 327 327 330 329 332 330 328 330 336 340 340 340
312 310 309 308 312 311 308 307 307 307 309 307 307 307 308 308 310 313 309 310 310 311 313 313 318 321 320 320 321 319 318 322 327 329 330 328 328 330 327 330 331 338 339 340 340
311 310 309 309 309 309 308 308 309 307 308 308 308 308 309 310 310 312 311 309 309 310 311 312 315 317 322 323 323 324 319 321 326 327 330 329 327 326 331 332 333 340 339 339 339
310 308 309 308 309 308 308 309 308 307 307 307 309 308 308 308 308 310 310 310 310 311 311 312 317 316 315 317 319 324 322 320 324 327 328 328 325 330 334 334 334 340 339 338 338
309 308 307 308 308 309 308 308 308 307 308 308 309 309 308 309 309 311 309 310 311 311 312 313 317 318 317 316 319 322 324 320 322 325 326 327 326 329 334 337 335 338 337 337 338
307 307 307 309 308 309 309 309 310 309 308 308 309 311 309 309 310 310 310 310 310 310 310 312 319 319 319 315 318 326 325 323 322 326 328 327 328 334 334 333 335 337 337 337 336

GFSSW_925_thetae_015.txt.gz
Theta_e
307 307 308 308 308 308 308 309 309 309 307 305 301 301 302 303 302 306 312 308 314 315 314 323 324 324 328 332 332 324 319 320 323 326 329 329 330 329 330 331 331 332 332 331 332
307 307 307 307 308 308 308 308 309 309 308 307 303 301 300 301 307 311 307 307 309 315 316 316 316 323 330 330 332 335 326 323 322 323 325 328 329 329 331 331 332 332 332 332 332
306 307 307 307 307 308 309 309 308 309 309 309 305 302 301 303 312 312 314 314 311 313 313 316 316 318 329 326 327 330 335 329 326 324 325 327 329 329 331 331 331 330 332 331 331
305 307 307 307 307 307 308 308 308 308 308 308 306 305 303 308 310 314 313 313 314 314 313 314 313 313 314 324 326 326 326 328 328 326 326 326 328 329 329 329 328 328 328 330 329
305 305 306 305 304 304 304 305 304 304 303 305 307 308 308 308 308 307 311 313 313 312 313 313 312 313 313 315 320 327 327 326 326 327 326 327 328 328 329 329 328 327 327 327 327
305 306 305 305 303 303 302 302 301 301 302 304 308 308 309 309 304 306 308 312 314 315 315 315 315 315 316 315 315 317 324 327 326 326 326 327 327 327 327 326 327 327 326 326 327
304 304 303 301 301 300 300 300 300 300 300 301 308 309 309 309 303 305 306 306 308 309 313 315 316 319 319 316 316 317 318 320 323 325 326 326 327 327 327 327 327 326 327 326 326
305 305 303 302 301 301 300 300 301 301 304 303 310 309 309 302 305 306 306 307 308 309 309 309 310 311 315 316 318 319 319 319 320 321 324 326 328 326 325 326 327 327 328 327 326
305 304 303 302 302 302 301 302 306 307 308 306 310 310 309 309 309 308 307 307 308 308 308 309 310 310 313 316 318 318 320 320 320 321 322 324 326 326 326 326 327 327 327 327 327
304 303 302 302 301 301 301 306 308 309 310 310 311 312 311 312 311 310 310 310 311 309 309 309 308 311 312 314 320 319 320 320 321 322 323 324 324 325 325 326 326 327 327 327 328
302 302 302 302 301 300 302 306 307 309 311 309 311 313 313 313 313 309 309 309 308 309 309 309 308 310 313 314 317 318 319 320 320 322 323 323 324 324 325 325 325 325 325 327 326
301 301 301 301 300 301 305 308 307 306 306 306 307 307 308 309 310 309 308 307 307 307 308 309 311 310 313 315 316 317 318 318 319 321 321 322 322 324 324 324 325 326 326 326 327
301 301 302 302 305 307 307 307 307 306 306 306 307 308 307 307 308 307 307 307 307 306 306 307 312 313 313 315 316 317 317 317 318 319 319 319 321 322 323 324 326 326 325 325 326
300 301 303 305 307 308 308 307 306 307 305 308 311 309 307 307 307 308 309 308 307 307 306 305 307 310 313 313 315 316 317 318 319 319 319 319 322 322 323 325 325 326 326 325 325
300 301 303 307 306 308 308 306 307 307 310 311 311 310 310 309 310 311 309 309 309 309 308 307 307 307 309 313 314 316 318 318 318 318 318 319 322 322 324 324 324 324 323 323 323
301 302 303 308 308 308 307 308 308 310 312 312 308 306 306 307 309 310 311 311 311 310 310 310 310 308 307 309 312 314 316 317 317 317 319 319 321 322 322 324 325 324 324 324 330
301 303 304 307 308 307 307 308 311 310 308 307 305 306 307 309 309 309 309 311 311 313 313 314 314 310 309 309 309 311 313 315 319 319 320 318 320 322 323 324 324 324 323 332 337
301 306 307 309 309 307 308 308 310 308 307 304 304 308 307 310 310 310 309 306 308 310 309 311 314 313 314 309 308 308 313 315 319 321 319 319 321 321 322 323 324 324 322 337 339
302 307 309 310 309 308 307 311 309 309 308 307 305 307 307 307 311 311 310 310 309 310 313 315 314 313 312 313 309 309 309 314 316 319 320 320 320 320 320 322 325 324 327 337 338
303 307 310 309 308 309 309 310 309 307 307 307 308 307 307 306 308 311 311 312 313 313 312 312 312 310 310 311 312 312 312 315 315 318 321 322 321 325 326 324 325 325 335 337 337
306 311 310 308 309 310 308 309 307 308 308 309 307 307 308 309 309 309 310 311 310 311 309 312 311 311 310 311 312 315 310 312 314 316 320 321 324 324 328 325 324 324 337 336 338
308 312 308 307 309 310 308 307 307 307 308 308 308 308 308 308 308 308 310 311 309 310 310 310 314 318 313 312 313 314 316 312 316 318 320 320 324 323 326 324 331 333 337 336 337
307 311 309 308 309 309 309 306 307 309 308 308 307 309 308 310 310 311 310 310 310 310 312 311 313 316 314 313 314 317 318 313 315 318 318 322 321 323 326 327 337 337 338 337 337
308 311 308 308 307 308 307 308 308 308 306 306 307 308 309 309 308 310 311 310 309 310 311 311 311 313 316 317 316 320 320 320 315 319 320 323 321 323 328 329 337 337 337 336 337
309 308 307 306 307 308 309 309 309 309 309 308 308 308 309 310 309 308 310 310 310 311 312 311 316 313 314 316 314 316 317 318 321 320 319 322 323 324 331 334 337 336 336 336 337
309 308 307 307 307 309 310 311 311 310 309 310 311 310 310 311 310 311 309 309 311 310 313 312 315 315 317 316 316 316 315 315 317 322 319 320 322 326 334 335 336 336 336 337 337
306 307 308 308 308 308 309 310 310 309 310 309 310 311 312 311 310 309 309 308 310 310 309 312 313 316 319 316 316 316 314 315 318 320 320 320 326 332 333 335 334 334 335 336 336

GFSSW_925_thetae_018.txt.gz
Theta_e
307 306 307 307 307 308 309 308 308 309 309 306 303 302 301 301 301 303 309 306 309 312 309 313 326 321 319 326 330 324 318 319 321 323 325 324 326 329 329 329 330 331 330 329 331
307 307 307 307 307 307 307 307 307 308 308 308 304 303 304 303 306 309 304 305 306 308 316 315 315 317 325 330 331 332 321 319 319 322 322 322 323 324 326 328 330 330 330 331 330
306 307 307 307 307 306 307 308 308 308 308 304 302 302 304 305 309 308 313 313 313 307 312 316 316 315 316 326 330 332 337 330 326 325 323 322 324 325 326 327 328 330 328 330 330
305 306 307 306 305 303 304 306 307 308 308 306 303 305 306 306 300 313 308 311 314 311 316 315 313 312 312 315 327 329 329 333 334 330 327 326 326 325 325 326 326 327 326 328 328
305 306 306 303 301 301 300 300 300 302 304 307 307 307 308 308 308 303 306 304 307 315 315 314 311 310 311 312 314 318 326 327 324 325 327 326 326 326 326 326 326 326 326 325 324
305 305 304 303 303 302 301 301 301 301 301 304 307 308 306 306 302 301 302 306 308 309 312 310 311 310 312 313 313 314 315 317 321 324 324 325 326 326 326 327 327 325 324 323 322
305 304 302 302 301 301 301 301 301 302 304 307 308 308 307 306 302 301 304 304 305 304 307 312 313 314 312 316 314 315 315 315 317 317 320 325 326 326 326 326 325 325 324 323 323
305 302 302 303 304 305 301 300 305 305 307 308 309 309 309 306 305 304 305 305 305 306 307 308 308 308 310 313 315 316 315 316 317 317 318 319 322 325 325 324 325 325 325 325 324
304 301 301 301 301 301 300 304 307 308 309 307 309 309 309 309 309 310 308 306 307 307 307 308 308 307 310 312 315 315 319 318 318 317 319 319 322 323 324 324 323 323 324 324 325
301 301 301 304 301 300 302 306 307 310 310 310 311 311 310 309 310 312 309 307 308 308 308 307 306 306 307 311 317 317 318 318 319 319 318 320 320 321 321 322 322 323 323 324 324
300 300 301 301 303 304 304 306 305 304 306 308 306 311 310 308 310 311 310 309 308 308 306 307 305 307 308 310 312 316 317 318 318 318 319 321 321 321 321 322 322 323 323 323 322
299 300 301 302 306 307 307 306 305 305 304 306 305 306 306 306 306 306 307 307 306 306 306 308 308 307 309 310 312 313 314 316 316 316 317 319 320 320 321 321 321 322 322 322 322
300 300 301 304 307 307 307 306 306 306 305 305 309 310 306 306 306 307 307 307 306 305 306 305 308 309 310 310 311 313 313 314 316 316 316 317 317 317 318 318 318 321 322 322 322
301 300 302 304 307 307 307 307 307 307 304 309 309 309 309 307 307 307 307 307 306 305 305 305 305 305 306 310 311 312 313 316 316 317 317 317 318 317 317 318 319 320 319 319 320
301 301 302 304 307 306 307 307 307 305 308 307 309 308 308 307 309 312 308 306 307 306 305 305 306 306 306 307 311 311 313 315 315 316 315 316 317 317 317 319 320 320 321 319 319
301 301 303 305 306 307 307 307 307 306 306 308 308 307 308 308 309 309 310 311 311 307 307 307 307 306 306 306 307 309 312 313 314 314 316 316 317 317 317 319 320 320 321 321 319
301 302 305 305 307 308 307 305 305 305 308 308 308 306 307 308 308 310 309 311 313 315 312 310 312 313 311 309 308 308 307 311 314 316 318 316 317 317 317 317 318 319 319 320 334
302 302 308 309 308 308 307 304 306 307 309 308 307 306 306 308 308 309 309 310 311 312 309 310 310 311 312 310 307 305 305 311 314 318 317 316 318 317 317 317 318 320 320 335 336
303 306 307 309 309 308 302 303 304 310 309 308 308 306 306 306 309 310 310 311 312 311 313 312 311 312 310 310 310 308 307 307 310 313 316 317 317 316 317 317 317 318 333 337 336
304 306 308 309 308 308 303 307 308 307 308 308 309 307 306 307 308 309 309 311 312 310 310 312 313 310 309 309 309 311 310 308 308 314 316 318 318 319 320 320 319 318 334 336 336
307 306 310 309 308 303 301 306 307 306 308 309 308 308 308 309 308 308 311 310 311 310 308 311 310 311 311 309 308 310 311 308 310 312 316 319 318 317 318 319 319 321 335 338 337
303 308 310 308 305 303 303 307 308 307 308 308 307 308 309 308 309 308 310 311 309 309 310 310 312 314 311 309 310 310 311 313 309 311 313 316 317 319 318 318 319 336 337 337 337
303 304 309 307 304 300 304 308 308 308 308 306 306 308 308 308 309 310 310 309 310 309 311 311 309 311 309 311 312 313 315 318 314 311 315 316 318 317 317 321 331 335 337 337 339
302 307 302 300 302 305 306 309 309 309 309 309 308 308 309 309 308 309 309 309 310 310 311 311 309 310 310 312 311 314 315 315 317 314 313 314 317 317 317 324 336 337 337 338 339
302 303 304 305 306 305 305 308 310 312 310 308 309 310 310 311 310 308 308 309 310 312 312 310 312 311 311 312 313 315 315 315 316 317 320 318 319 318 319 330 336 337 337 339 338
303 304 306 307 305 306 306 309 311 310 309 310 310 310 310 311 312 312 310 309 309 310 311 310 313 314 313 313 314 316 315 314 315 314 315 318 321 320 331 335 336 337 338 339 338
303 304 304 307 307 308 308 310 310 309 309 309 309 309 310 310 310 310 309 309 307 308 309 311 312 314 312 316 316 316 315 313 312 315 318 321 319 322 332 335 336 336 337 338 337

GFSSW_925_thetae_021.txt.gz
Theta_e
307 307 307 307 307 307 307 308 308 308 308 306 307 309 309 306 301 303 306 303 305 310 308 314 320 322 320 321 328 317 317 318 320 322 323 323 329 329 328 328 325 327 329 329 332
307 307 308 307 308 307 307 307 308 308 308 309 307 305 307 305 305 305 302 305 303 303 311 311 312 323 319 322 329 331 320 318 317 319 321 321 325 329 330 330 326 325 328 329 330
307 308 308 307 307 307 307 307 307 306 306 305 303 304 308 304 305 303 314 313 316 316 307 316 314 314 316 325 328 330 334 326 322 319 322 323 323 321 324 325 325 325 326 326 326
307 307 306 306 306 306 307 307 307 307 307 305 306 307 308 305 296 307 307 307 304 303 317 313 314 314 312 314 321 331 330 331 332 331 333 332 327 327 323 323 323 324 324 325 325
306 306 305 303 303 304 306 305 302 302 307 307 308 307 306 306 306 302 302 301 303 311 317 316 312 311 310 310 313 319 325 327 326 325 325 328 330 329 327 324 324 324 324 325 324
303 302 301 301 301 302 301 300 300 301 303 308 308 307 306 306 303 302 301 301 305 305 306 314 310 309 311 310 313 313 315 316 317 318 322 324 325 325 325 325 325 325 325 323 322
304 304 303 304 305 305 301 300 303 304 305 308 309 308 306 306 305 306 305 305 303 303 304 305 312 311 310 313 312 313 313 314 314 314 315 317 320 322 323 325 325 325 324 323 321
305 304 300 300 305 302 300 302 306 308 308 310 309 308 308 307 308 307 307 306 306 304 304 305 307 307 309 311 313 316 314 316 316 315 316 317 322 324 322 324 325 324 322 322 322
304 303 300 301 304 305 303 305 306 309 309 307 308 308 309 309 310 309 309 306 306 305 306 307 306 306 308 310 312 313 316 315 317 315 316 318 321 321 320 321 321 322 322 322 321
303 303 300 300 302 305 305 307 306 308 309 310 310 309 307 305 305 306 306 307 306 306 306 306 305 305 304 309 316 315 316 318 318 317 316 317 318 319 319 319 319 319 319 320 320
303 300 300 301 302 306 307 307 304 303 305 305 305 306 305 305 306 306 306 306 307 307 306 305 304 307 308 308 309 311 314 316 317 316 317 317 317 318 317 318 319 319 320 320 319
301 300 300 302 304 306 307 305 305 305 304 305 305 306 307 308 307 307 306 306 305 305 306 306 306 306 307 308 309 310 311 312 313 314 315 315 316 315 316 318 319 319 320 319 319
300 300 300 303 305 307 307 307 307 306 304 305 306 308 307 306 306 306 306 306 306 305 305 305 307 307 307 308 309 309 311 312 313 313 314 314 315 314 315 315 316 316 316 317 318
300 300 301 303 306 306 306 307 306 305 302 306 307 308 308 307 308 308 307 306 306 305 304 304 304 305 305 306 308 308 309 312 315 315 315 314 314 314 314 314 315 315 314 316 317
301 301 301 303 305 306 307 307 306 303 306 307 308 307 306 307 308 310 309 307 306 306 304 304 305 304 305 305 306 307 310 311 311 311 315 315 315 315 314 314 314 315 315 316 316
301 302 303 305 305 307 307 307 305 303 302 307 307 307 306 306 308 309 309 310 309 307 305 304 305 305 305 306 306 306 309 310 310 312 314 314 315 315 314 315 315 315 315 316 316
302 303 303 306 306 308 307 303 302 304 306 308 307 307 306 306 307 309 309 311 311 313 310 308 307 306 307 306 307 307 305 308 311 314 315 313 315 315 315 315 315 315 315 315 314
304 306 305 308 309 308 305 301 305 307 308 307 308 307 306 305 307 309 309 312 312 312 313 315 312 310 312 310 308 305 305 307 313 316 314 313 316 315 314 314 315 315 315 314 325
307 308 307 308 309 308 300 302 303 309 308 308 308 307 305 306 307 307 308 312 311 311 313 314 310 310 310 309 309 309 304 305 305 309 310 314 314 315 315 315 315 314 316 323 334
306 307 309 309 308 305 302 306 306 308 306 307 309 308 307 306 307 307 308 310 311 310 309 310 311 310 309 309 308 308 309 306 304 311 314 314 315 316 316 317 317 316 314 326 334
305 305 309 309 308 301 301 304 306 307 307 308 308 307 306 308 308 307 309 309 310 310 308 309 309 310 310 309 306 308 310 309 305 307 313 315 315 314 315 315 314 317 315 333 337
301 306 308 307 303 300 301 306 307 308 308 308 307 307 307 308 308 308 310 310 309 309 310 309 310 313 311 308 308 309 309 310 308 309 310 313 314 313 316 314 320 321 327 335 338
302 301 307 306 301 298 302 306 308 308 309 309 309 307 307 307 309 309 309 309 308 308 310 310 308 310 307 311 311 311 311 311 313 311 312 313 313 313 314 314 326 334 336 338 339
303 304 300 298 300 304 305 307 309 308 309 309 308 307 308 309 307 309 308 308 309 309 312 310 308 308 309 309 310 312 314 314 316 314 314 313 312 312 313 316 318 335 336 340 339
300 302 302 302 303 304 305 306 309 309 309 308 308 308 310 311 309 309 308 309 308 310 311 309 309 311 310 309 310 312 313 313 315 315 317 315 312 312 314 317 319 334 337 339 339
301 301 304 302 303 305 305 309 310 309 309 309 310 309 309 310 310 311 310 310 310 308 311 310 310 312 311 311 312 313 313 313 314 315 315 314 315 315 316 322 335 336 339 340 339
301 302 302 303 304 307 308 308 308 308 308 309 309 309 309 309 308 308 308 308 310 309 311 311 311 310 311 309 312 318 315 314 314 313 313 316 316 317 318 326 336 336 338 338 338

GFSSW_925_thetae_024.txt.gz
Theta_e
307 307 307 307 307 307 307 307 307 308 308 308 309 309 308 306 300 301 305 301 302 303 304 306 321 321 322 324 324 315 318 318 319 321 321 321 324 324 326 328 326 327 325 327 328
307 307 306 307 307 307 307 307 307 306 307 308 308 308 308 305 303 305 304 307 309 311 308 310 308 320 315 318 327 319 316 317 316 319 320 320 320 321 323 324 328 326 324 326 328
307 308 307 307 307 307 307 307 307 306 307 308 308 308 308 304 299 298 308 310 306 302 306 313 315 316 320 322 324 329 328 317 317 317 318 321 322 323 324 324 324 326 324 324 325
307 306 306 306 306 306 307 307 307 307 307 307 308 308 307 304 297 303 312 306 301 307 315 315 311 314 311 320 325 330 329 328 325 326 330 331 331 331 327 326 323 322 322 322 322
305 305 306 305 305 306 306 306 305 305 307 309 308 308 305 303 302 301 302 302 304 304 316 315 310 313 311 310 315 325 326 328 328 328 328 327 329 330 330 327 325 324 323 322 321
304 304 304 304 302 301 300 300 303 305 309 309 308 307 305 304 303 305 306 306 306 305 303 312 313 311 310 309 313 313 314 317 320 322 320 325 325 324 325 324 324 324 323 323 322
303 303 300 300 303 303 303 302 306 306 308 309 309 308 306 305 305 308 308 308 307 306 303 303 308 312 309 311 310 312 312 312 312 313 316 317 320 322 321 321 322 323 323 323 322
304 301 299 299 300 303 304 305 306 306 308 307 309 307 306 306 308 308 308 308 307 307 305 303 303 305 308 309 311 314 313 314 315 312 315 318 323 322 321 322 323 323 322 322 320
304 302 300 299 301 303 305 307 306 306 308 308 308 307 308 307 308 306 306 307 306 306 305 304 304 304 307 308 310 311 315 314 315 314 315 317 320 320 320 320 319 318 319 319 320
304 302 299 299 301 304 307 306 305 306 309 309 310 307 304 305 306 306 306 306 306 305 304 304 303 304 303 308 313 314 314 317 317 315 315 315 317 317 317 317 318 317 318 318 317
303 302 299 300 302 305 307 306 303 303 304 305 304 305 304 305 306 307 307 306 305 306 306 304 303 304 307 308 309 309 312 313 314 315 314 314 316 315 314 315 316 316 317 317 318
302 302 301 300 303 306 307 305 305 305 304 304 304 304 305 305 308 306 306 305 306 306 304 303 305 305 307 307 307 307 308 310 311 312 313 313 313 313 313 313 313 315 316 316 315
301 303 302 301 304 306 306 306 306 305 303 304 304 306 306 305 306 306 305 305 306 306 305 304 305 306 307 307 308 308 309 310 311 312 312 313 314 314 314 313 313 313 313 314 315
301 304 304 302 304 305 306 306 307 305 301 304 306 306 306 305 307 308 307 306 306 305 304 303 303 304 305 306 306 306 308 310 312 313 314 313 316 314 314 313 313 313 313 313 312
302 304 302 302 304 305 307 307 306 301 301 306 307 306 306 305 306 309 309 306 306 307 305 303 304 304 304 304 305 306 308 308 308 308 309 311 313 313 312 312 312 312 312 312 312
303 303 303 304 305 307 307 307 304 302 301 307 306 306 306 305 305 308 308 309 309 308 305 305 304 304 304 304 304 306 307 308 309 308 311 309 312 312 310 312 313 312 311 311 311
303 305 303 304 305 307 308 301 301 301 304 307 307 307 306 305 305 308 307 310 312 313 312 307 305 305 306 305 305 305 304 308 310 311 310 310 311 310 311 312 312 313 313 312 312
305 307 304 306 308 308 304 300 304 305 307 307 307 306 305 304 305 307 306 311 311 312 313 315 310 309 310 305 305 305 304 306 313 312 310 311 313 313 312 312 312 312 311 310 310
306 308 307 308 308 307 299 301 302 305 308 307 307 307 306 305 306 305 305 309 310 310 313 314 314 311 310 310 308 307 305 305 305 306 307 310 311 312 312 312 312 311 312 310 311
305 306 308 308 307 304 301 307 305 306 307 307 308 307 307 305 306 305 306 308 310 310 308 309 310 310 310 309 310 307 306 305 302 307 312 311 312 313 312 313 313 313 314 312 324
304 304 307 308 307 300 301 304 305 306 307 308 308 309 307 307 306 307 307 308 310 309 307 308 309 309 309 308 306 309 308 307 303 305 312 314 312 311 312 314 313 321 331 316 331
301 305 305 306 302 296 300 305 306 307 308 309 308 307 307 307 307 307 308 308 309 308 309 309 309 311 310 307 307 308 308 307 308 308 306 308 308 309 310 311 313 314 333 331 337
303 302 306 304 298 297 301 305 306 308 308 310 309 308 306 307 309 308 308 308 307 308 309 308 308 311 308 310 309 310 309 308 310 310 312 309 308 309 309 312 313 314 333 336 335
303 302 299 297 298 303 305 308 307 307 308 308 308 307 308 310 308 310 308 308 308 308 310 309 306 307 306 307 309 310 310 311 313 311 309 310 311 311 311 312 312 319 333 337 338
297 301 302 300 300 301 304 307 308 309 309 307 308 308 311 312 310 310 308 307 308 308 309 308 311 308 309 310 310 309 310 310 311 312 315 314 314 312 311 312 313 328 336 338 338
296 298 298 298 299 303 305 307 308 308 307 307 308 308 309 311 310 310 310 310 311 309 309 306 312 310 310 309 310 311 311 311 311 312 312 314 315 313 313 312 318 332 338 339 339
299 298 298 299 299 301 302 306 306 306 308 307 308 309 309 309 308 308 307 308 308 311 309 311 309 309 309 309 311 310 311 310 310 311 311 314 313 312 315 317 320 332 337 338 338

GFSSW_925_thetae_027.txt.gz
Theta_e
307 307 308 307 307 307 307 308 308 308 308 308 308 308 306 300 300 305 304 302 304 302 303 305 307 319 324 327 323 319 322 322 319 320 320 323 325 327 326 329 329 329 330 330 330
307 306 306 307 307 307 307 307 308 308 308 308 308 308 307 304 306 305 308 311 306 303 312 309 307 318 322 323 328 324 325 323 320 319 321 322 322 324 325 327 327 329 326 326 328
305 306 306 306 306 306 307 307 307 308 308 308 309 308 308 306 304 303 314 310 303 308 308 311 314 312 314 319 326 327 325 323 321 319 319 320 320 320 324 327 327 327 327 327 326
305 305 305 305 304 305 306 304 304 305 308 309 308 308 307 304 301 308 311 304 306 305 313 316 314 314 315 316 321 325 326 325 323 319 319 319 320 323 325 326 327 329 329 328 327
305 304 301 299 299 300 303 301 303 306 307 310 309 308 305 306 304 302 306 308 307 306 305 315 312 311 315 316 318 324 323 326 327 327 326 328 330 329 330 329 329 328 328 328 328
304 303 300 299 299 301 303 303 305 306 308 308 307 307 306 306 303 304 306 309 307 307 307 307 315 310 312 313 315 318 320 323 325 329 329 330 329 329 329 328 327 327 327 327 327
304 304 303 303 301 301 304 306 306 306 307 307 307 308 307 307 304 306 307 307 307 306 307 306 306 314 311 311 313 314 316 316 317 322 326 327 327 329 326 325 325 325 325 326 327
304 304 303 302 300 301 305 306 306 305 307 307 308 307 309 305 306 307 307 307 307 306 306 306 304 305 310 313 312 314 315 317 317 316 317 319 323 323 323 323 324 325 325 326 326
304 304 304 304 303 302 305 306 306 305 308 308 308 308 308 306 307 306 306 307 307 306 305 305 304 305 308 312 313 315 316 317 317 317 317 319 322 322 323 324 325 326 326 325 324
305 303 303 302 302 303 306 304 305 307 308 308 310 309 307 307 306 306 307 307 307 307 306 306 306 308 309 312 315 314 316 316 317 317 317 319 320 321 322 321 322 322 322 322 322
304 304 303 301 302 304 305 305 307 307 306 306 307 306 306 306 306 307 307 307 306 308 308 307 306 307 310 311 312 312 314 316 316 317 318 319 319 320 320 320 320 320 320 321 322
304 304 304 301 303 306 305 307 306 306 308 306 306 305 305 305 307 307 306 306 307 309 307 308 307 307 307 309 310 312 313 313 313 314 315 318 319 318 318 318 318 319 320 320 321
303 304 304 301 304 306 305 306 306 306 307 306 305 305 307 306 306 307 308 307 306 307 309 309 307 306 307 308 310 312 313 313 313 313 315 316 318 318 318 318 318 318 319 319 321
301 305 305 301 304 305 306 306 306 304 307 304 306 307 306 306 307 306 308 309 307 307 307 307 307 306 307 308 309 311 309 311 313 315 317 316 318 318 318 318 318 318 318 320 320
301 305 305 304 304 306 306 306 305 303 303 305 307 306 307 306 306 307 308 309 309 309 309 309 306 306 306 307 307 309 309 309 310 311 313 314 315 316 316 317 317 317 318 319 318
301 304 304 303 304 306 306 306 303 305 304 306 306 307 307 306 305 306 307 309 310 311 310 309 309 306 306 306 306 307 308 310 311 311 313 313 313 315 315 315 315 316 317 318 319
303 306 302 305 307 306 306 303 306 304 305 306 307 307 307 306 305 305 307 309 313 316 313 310 309 308 306 306 307 307 308 309 310 312 313 312 313 314 315 314 315 317 317 318 319
304 307 304 305 307 307 302 304 305 305 307 307 307 307 307 306 306 306 307 307 311 310 315 313 314 308 308 307 307 308 308 309 308 310 310 311 313 313 315 316 316 316 318 319 320
305 308 307 308 307 305 305 308 307 306 307 308 308 308 307 306 307 307 307 307 309 310 311 311 314 310 310 309 309 310 309 308 310 311 311 311 311 312 313 314 316 319 322 324 331
304 306 307 308 307 304 307 308 307 306 307 308 309 308 308 308 308 307 307 307 308 310 309 309 311 310 310 311 312 312 309 310 310 310 310 312 312 313 315 317 318 319 322 328 332
303 309 305 307 305 307 310 307 307 306 307 309 309 309 309 309 307 308 308 307 308 308 309 309 310 308 309 310 311 312 311 310 309 310 312 314 315 317 317 317 316 316 319 335 330
302 310 306 305 308 303 308 306 306 307 308 308 309 310 310 308 309 308 308 308 308 309 309 310 312 312 309 308 309 309 310 311 312 311 310 310 312 315 315 315 315 315 317 335 337
304 304 304 303 310 307 305 306 306 307 308 309 309 309 308 309 311 310 309 307 307 308 309 310 310 310 307 312 311 309 310 310 311 313 313 311 312 313 313 314 315 315 318 336 337
304 307 304 303 302 304 305 306 307 307 308 309 309 308 309 309 310 311 310 308 308 308 309 310 311 309 309 308 309 311 310 310 312 314 312 312 312 313 313 313 315 316 321 335 338
301 304 303 304 302 301 303 306 307 308 308 307 308 309 311 312 310 310 309 309 309 308 310 310 312 310 310 309 310 310 310 310 311 312 314 312 312 312 313 315 315 317 318 331 338
300 301 302 301 301 304 304 306 307 307 306 307 308 307 309 311 310 311 309 309 310 310 311 310 313 311 310 310 309 308 309 310 311 310 311 311 313 312 313 314 315 316 318 330 339
298 298 301 302 303 303 305 305 303 303 305 307 307 308 309 309 308 308 309 309 309 310 312 313 314 312 311 308 308 311 310 310 310 311 311 312 311 312 313 314 316 318 322 324 340

GFSSW_925_thetae_030.txt.gz
Theta_e
306 307 307 308 307 307 307 308 308 307 307 305 305 305 305 305 305 308 307 307 307 304 305 310 309 320 321 328 326 326 328 329 326 322 321 322 323 326 329 332 332 333 334 333 337
306 307 307 307 306 306 306 307 306 306 306 306 307 306 306 306 309 311 311 310 303 305 311 310 310 315 324 324 328 328 330 329 327 326 321 320 322 325 328 331 332 332 331 329 332
306 306 306 306 306 306 304 304 303 305 306 307 307 306 306 308 309 314 315 313 306 306 311 310 312 311 322 324 325 328 329 328 328 327 322 322 323 323 325 329 333 332 332 331 330
305 306 306 305 305 304 304 303 304 306 306 306 307 307 306 308 307 309 307 308 308 307 310 313 314 313 315 321 323 327 328 328 328 327 324 322 325 325 324 325 328 329 330 331 332
306 306 305 306 305 302 303 304 305 306 306 306 305 307 309 310 307 304 305 309 309 309 308 309 314 314 315 317 319 323 325 327 327 326 325 323 324 325 326 327 328 328 330 331 331
305 306 305 305 305 300 303 305 306 306 306 306 306 307 310 307 306 307 308 309 310 309 309 309 312 315 314 314 318 320 320 323 325 326 328 327 329 328 329 329 331 331 331 331 330
305 304 305 304 304 301 303 306 306 306 305 307 307 311 311 309 307 309 310 310 309 310 310 309 309 310 316 315 314 317 319 320 322 324 326 328 330 330 329 329 330 331 331 330 330
305 305 304 303 301 301 304 306 306 305 307 307 307 311 311 308 308 309 309 309 309 309 309 309 309 309 311 315 315 315 316 319 320 321 322 326 332 330 329 329 330 329 329 328 329
304 304 304 303 300 302 305 305 305 306 308 309 312 311 309 308 308 308 309 310 309 309 309 308 309 309 309 312 315 316 317 318 318 320 321 322 325 326 326 327 327 327 327 328 328
304 305 305 306 301 303 305 305 305 310 311 310 311 313 309 308 307 308 309 309 310 310 310 310 309 309 308 311 314 314 317 317 318 319 320 321 322 323 324 325 326 327 327 328 328
303 305 306 304 301 304 306 308 310 311 308 310 308 309 308 307 307 308 308 309 309 310 311 311 310 309 309 309 311 314 315 316 317 318 319 321 322 322 323 323 324 326 326 326 326
302 302 305 304 303 305 307 308 308 308 311 309 308 308 308 308 308 308 308 310 310 311 311 311 311 310 308 308 309 312 314 317 317 318 319 320 321 322 322 322 323 324 324 324 325
301 304 305 303 304 308 308 308 308 308 311 308 308 308 308 307 307 308 308 309 311 310 310 311 311 310 308 308 309 311 313 315 316 317 318 320 321 321 322 322 322 322 323 323 324
301 304 304 302 308 308 309 308 308 308 311 307 308 309 308 308 308 307 309 309 310 310 310 311 310 310 310 309 309 309 310 313 314 316 318 319 321 320 321 321 322 322 323 323 323
299 303 303 302 308 310 309 308 308 308 310 306 308 307 308 308 307 307 308 308 310 311 311 311 311 310 309 309 309 309 309 312 313 316 317 317 319 320 320 320 321 322 322 322 322
300 306 302 305 308 309 308 308 307 311 310 307 307 308 308 307 307 307 307 308 310 313 312 313 312 311 309 308 308 309 309 310 313 314 317 317 318 319 319 319 320 320 320 320 321
302 307 305 306 310 308 308 308 312 309 307 308 307 308 309 307 308 307 307 308 310 313 311 312 312 311 311 310 309 309 309 311 312 316 317 316 316 317 319 318 318 318 320 319 321
302 307 306 308 309 309 308 309 311 308 307 308 308 309 309 308 309 308 307 308 309 312 313 313 313 312 311 310 310 309 309 310 311 312 313 314 316 316 317 318 318 319 320 322 325
305 310 310 310 309 308 311 311 311 308 308 309 309 309 309 308 309 309 308 308 309 310 312 312 312 310 311 311 309 310 311 312 310 311 312 313 315 316 317 317 319 321 323 326 333
306 311 311 308 309 309 311 310 309 308 308 309 311 309 310 310 310 308 308 307 307 308 310 310 313 310 311 311 311 312 312 318 310 311 313 313 314 316 317 316 318 321 322 328 340
308 312 308 307 308 310 312 308 308 308 308 309 310 311 310 310 309 309 309 308 308 309 309 310 311 311 311 312 310 314 316 316 312 311 313 313 315 316 320 320 320 320 321 335 340
308 310 308 306 309 310 308 305 306 309 309 309 310 311 311 310 310 310 309 309 309 309 310 310 311 312 310 310 311 312 315 315 320 315 312 315 319 320 320 318 319 319 321 334 338
308 308 307 306 310 307 304 306 307 309 309 309 310 310 310 311 312 310 310 309 309 309 310 311 312 312 309 312 312 310 311 312 314 315 319 314 317 319 317 317 317 318 319 325 340
306 309 308 306 306 305 306 307 308 308 309 309 310 309 310 311 310 311 310 309 309 309 310 310 313 312 312 310 310 310 310 310 312 316 314 315 316 318 318 317 317 318 318 324 341
304 306 306 310 310 308 307 306 307 308 309 309 309 310 310 311 311 311 310 309 309 309 310 311 316 311 311 311 310 310 309 310 312 311 313 315 314 315 316 316 317 317 317 319 339
306 306 306 307 307 308 307 307 306 307 306 307 308 309 308 310 310 311 310 311 312 311 311 310 316 313 312 311 310 310 310 309 309 310 311 312 312 313 314 314 314 315 316 319 322
301 299 301 305 307 307 309 308 308 307 307 307 308 308 310 310 309 310 310 311 311 310 312 312 314 313 314 311 310 311 310 310 310 310 311 313 313 312 313 313 314 316 317 318 320

GFSSW_925_thetae_033.txt.gz
Theta_e
307 308 308 308 308 308 307 304 301 303 305 305 305 306 306 306 307 312 313 310 308 304 305 310 312 313 321 325 328 329 331 331 329 327 326 325 325 326 329 331 336 336 337 338 338
307 307 307 307 307 307 307 306 303 305 305 306 307 306 305 307 313 313 311 310 309 305 311 312 314 315 319 323 327 331 332 331 329 328 327 326 324 325 328 329 333 336 334 334 338
306 307 307 307 307 307 306 303 303 305 306 306 306 305 305 309 315 318 310 308 308 308 309 312 312 316 316 323 325 330 333 331 330 329 328 327 325 324 325 330 333 335 335 334 334
306 306 307 307 307 307 305 304 305 306 306 306 306 306 307 314 314 312 304 309 309 310 309 313 315 315 316 317 324 327 328 330 330 329 329 329 327 327 326 326 330 334 335 334 334
306 306 306 306 306 303 302 304 306 306 306 306 306 306 313 316 310 307 307 310 311 311 311 311 314 317 317 317 319 325 326 326 328 328 329 329 328 327 327 327 327 328 332 332 333
306 306 306 305 303 300 301 304 306 306 306 305 306 307 316 315 309 310 310 311 311 311 312 312 312 315 316 318 318 319 320 322 324 325 328 329 329 328 328 328 328 327 328 330 331
306 305 305 305 304 300 301 304 306 305 305 305 307 312 314 311 310 310 311 311 311 311 312 312 311 312 315 318 318 318 318 319 321 322 325 328 329 330 329 330 330 330 330 331 333
305 305 305 305 303 301 302 305 305 305 305 307 307 315 316 309 309 310 309 310 311 311 311 311 311 312 312 312 314 318 318 319 320 322 323 323 329 329 329 330 330 331 332 332 333
301 301 303 304 300 302 303 305 305 305 307 307 315 315 314 309 310 308 309 310 311 311 311 311 311 312 312 310 312 314 318 319 318 319 321 322 325 326 327 330 331 331 331 332 332
300 301 303 303 300 303 304 307 309 309 313 314 313 315 313 309 309 308 309 310 311 312 312 313 313 313 312 311 311 313 314 316 318 319 319 320 323 323 324 326 330 330 331 330 330
304 303 305 305 302 304 307 312 313 317 312 311 311 310 309 309 308 309 309 310 311 312 313 314 314 314 313 313 313 311 312 315 317 318 319 319 321 322 323 324 325 327 329 331 333
304 302 303 305 303 305 309 312 311 310 312 311 310 309 309 309 310 310 308 310 311 312 312 312 313 313 313 312 311 311 312 313 314 317 319 320 321 321 323 324 324 325 326 328 329
305 303 303 303 304 310 310 310 309 310 313 312 310 309 309 309 310 310 309 310 311 310 311 311 312 312 312 312 312 311 311 312 314 316 318 319 321 322 321 322 323 324 325 326 327
304 302 305 303 309 310 312 310 310 310 314 312 309 310 309 310 310 309 308 310 310 310 311 311 311 311 311 312 312 312 311 311 312 315 318 319 322 322 323 323 323 324 325 325 326
305 302 304 304 311 312 310 310 310 311 319 310 309 308 310 310 309 310 308 309 310 309 310 310 311 311 312 313 311 311 311 311 312 313 316 316 319 320 322 322 323 324 324 325 325
305 303 303 308 312 311 310 310 310 317 317 310 309 309 310 310 310 310 309 309 309 309 310 312 311 314 312 312 312 310 310 311 312 313 316 317 318 319 320 321 322 323 323 323 324
305 305 305 310 313 310 310 311 317 316 311 310 310 310 310 311 309 310 310 309 309 309 310 311 311 313 314 312 312 310 310 310 312 313 315 316 318 319 319 320 322 322 323 322 323
305 307 309 310 311 310 311 315 316 313 311 311 311 311 311 310 310 310 310 309 308 309 311 312 315 314 313 313 314 312 311 311 311 312 313 313 316 317 320 320 321 320 321 321 323
307 312 312 313 311 310 313 316 316 312 310 311 311 312 311 310 310 310 310 309 308 309 310 311 313 311 312 312 315 314 312 313 313 314 314 315 315 316 318 319 319 321 322 325 326
308 312 314 311 311 311 314 315 313 310 310 311 312 311 312 311 311 310 310 310 308 309 309 311 313 311 310 311 312 314 313 315 319 316 314 316 315 317 317 319 320 322 323 324 334
310 312 311 309 308 314 315 312 310 310 310 311 312 312 311 312 311 312 311 311 311 309 310 310 311 311 311 313 314 316 315 315 316 314 317 315 318 317 318 319 319 322 323 333 339
310 314 311 306 311 315 313 308 306 310 311 311 311 311 313 312 311 312 312 311 311 311 310 310 312 313 311 310 313 312 314 314 319 322 316 315 317 320 322 322 323 322 324 332 340
311 311 309 307 315 314 311 309 308 309 311 311 311 311 311 310 313 313 312 311 310 311 311 313 314 315 313 311 311 311 313 314 314 315 319 323 323 321 322 322 321 321 322 336 341
310 312 311 309 311 312 314 312 309 309 310 310 311 311 311 311 311 312 312 310 311 311 312 313 314 314 314 311 314 315 315 313 315 318 316 318 317 320 321 320 320 320 319 323 341
309 310 308 310 311 310 311 313 310 310 310 309 311 310 311 313 312 312 312 312 311 312 313 312 316 312 312 312 311 312 311 309 310 311 314 313 313 317 318 320 319 318 318 320 335
308 308 308 308 309 309 311 312 311 309 310 311 311 311 311 311 311 313 312 314 315 313 314 313 315 312 314 313 312 311 310 310 310 310 310 311 311 312 315 316 317 317 317 319 325
304 303 305 307 309 309 309 310 309 309 310 310 310 310 311 312 312 313 312 313 315 315 313 313 315 315 315 312 312 312 310 310 310 310 310 310 311 313 313 315 316 316 316 318 321

GFSSW_925_thetae_036.txt.gz
Theta_e
307 308 308 308 308 308 308 307 304 304 306 306 306 306 306 306 306 312 315 310 310 306 305 310 311 313 314 317 325 325 331 333 331 329 327 327 326 327 326 326 331 334 338 339 339
307 307 308 308 308 307 304 304 303 304 306 306 306 305 305 307 312 315 312 307 305 305 309 312 314 315 315 317 322 326 331 332 330 329 329 328 327 327 326 325 328 333 337 338 339
307 307 307 307 307 306 302 303 303 304 305 306 305 305 306 310 318 317 305 304 307 309 312 312 312 315 316 317 319 323 329 330 331 330 329 329 328 328 325 325 327 331 336 335 340
307 307 307 307 307 304 300 302 304 305 306 306 305 305 306 314 317 314 307 308 310 312 313 311 312 314 314 317 317 320 324 326 329 330 330 330 330 328 327 326 326 329 333 336 335
307 306 306 306 305 302 300 301 303 305 306 305 305 306 313 320 315 310 310 311 312 313 313 313 311 314 316 316 318 318 320 323 325 327 328 329 330 330 329 328 328 327 329 336 335
305 306 306 305 303 301 300 301 303 305 305 305 305 306 316 319 311 311 311 312 313 312 312 313 313 313 313 315 317 318 318 319 321 326 327 327 328 330 330 329 328 329 328 331 334
303 302 302 304 302 301 300 302 303 305 304 305 306 313 316 316 310 310 312 311 311 312 313 312 313 313 313 314 316 317 318 318 319 320 322 324 326 328 330 330 329 329 329 330 332
302 302 304 304 304 301 301 302 304 304 304 305 307 313 319 311 310 310 309 310 311 311 312 312 312 313 313 313 313 314 316 319 318 319 320 321 322 324 327 329 331 330 330 331 331
305 304 300 301 303 301 302 303 305 307 305 307 312 318 316 311 311 309 309 311 310 311 311 312 312 312 312 313 313 312 313 315 317 318 318 319 322 323 324 327 330 331 332 332 333
308 306 300 300 304 302 303 306 309 308 311 315 314 315 315 312 310 309 310 310 310 312 313 313 313 314 314 313 313 312 312 312 313 315 318 319 320 323 324 325 326 328 329 331 333
306 306 303 303 303 303 305 313 314 317 316 316 313 313 311 310 310 310 310 310 311 313 313 313 315 315 315 315 314 314 313 313 314 314 316 318 320 321 322 323 324 327 329 330 331
306 305 302 305 302 304 306 315 311 311 313 313 313 312 310 310 310 311 310 310 310 311 312 312 313 313 314 314 314 314 313 313 313 314 315 316 317 320 322 323 324 326 327 328 330
306 305 303 304 303 306 313 312 310 312 313 314 312 310 311 310 310 311 311 310 309 311 311 312 312 313 312 313 314 313 313 314 312 313 313 315 317 319 320 322 323 324 327 327 328
306 305 304 303 309 312 314 312 311 311 315 314 310 311 310 310 311 311 310 310 310 310 310 310 311 311 312 312 312 312 313 313 313 312 312 314 318 320 320 322 323 324 324 326 328
306 305 304 302 309 313 311 311 311 312 324 312 311 310 310 311 311 312 310 309 309 309 309 309 309 310 311 312 313 313 314 312 312 312 312 312 314 317 320 322 323 324 326 325 325
304 305 304 308 310 314 310 312 314 320 322 311 311 310 311 312 312 311 311 311 311 310 310 310 311 311 314 312 313 314 313 313 311 311 314 313 314 315 318 320 322 324 325 325 325
306 306 305 310 313 311 311 313 318 321 313 312 312 311 311 312 312 311 310 311 310 310 310 311 310 314 315 316 316 316 312 311 311 312 312 312 314 316 316 318 320 322 323 324 326
307 307 309 308 311 311 311 316 320 316 315 312 312 312 312 313 311 311 310 311 310 309 308 309 310 312 313 313 314 315 315 315 312 311 311 311 313 315 315 318 320 321 322 324 326
305 312 313 313 313 310 313 318 319 314 312 311 312 313 312 312 312 311 312 311 310 309 309 309 310 313 313 312 314 315 313 315 315 314 314 315 311 314 316 316 318 321 323 323 325
307 313 314 314 312 310 315 317 315 312 311 311 313 313 313 312 312 312 312 312 311 311 311 311 312 310 309 310 312 311 312 316 317 317 313 313 312 313 316 316 318 320 323 324 325
309 316 314 312 308 313 318 315 312 310 309 311 313 313 312 312 313 313 311 312 312 313 313 312 311 313 312 311 311 314 316 315 316 320 321 319 314 314 323 321 320 320 323 324 327
311 314 313 308 310 317 317 313 309 310 310 312 312 311 312 313 312 311 311 313 312 311 312 313 314 315 312 311 311 311 314 317 318 315 314 314 316 316 319 318 316 322 323 327 335
313 313 311 310 317 315 313 314 312 311 311 311 312 312 312 312 313 312 312 312 312 313 314 315 314 315 313 312 314 315 316 316 316 317 317 319 319 317 314 315 315 319 322 323 341
313 313 314 311 313 313 312 313 313 312 310 311 312 311 312 312 312 312 313 312 312 312 313 313 315 314 316 313 314 316 314 313 314 321 321 314 314 316 314 316 317 320 322 320 337
313 312 311 313 312 311 311 311 314 314 311 311 311 311 311 314 313 312 313 313 313 314 313 313 318 314 313 312 311 311 314 314 315 314 314 311 312 315 316 316 316 316 319 320 336
310 310 307 309 310 311 310 311 313 313 311 311 312 312 312 313 313 314 313 314 317 315 315 315 316 315 317 314 312 312 312 315 315 315 310 310 311 311 316 315 315 317 318 318 327
305 304 305 308 312 312 310 309 309 309 310 311 311 311 312 312 313 313 314 315 316 316 313 311 315 319 317 313 313 314 311 311 310 309 310 309 311 312 312 315 317 317 317 317 318

GFSSW_925_thetae_039.txt.gz
Theta_e
307 308 308 308 308 308 305 302 302 302 304 305 305 305 305 306 305 309 312 313 311 308 306 307 309 311 312 313 314 320 322 325 329 329 328 327 326 327 325 323 323 328 337 338 338
307 307 308 308 307 306 303 301 302 302 304 305 305 305 305 306 312 314 314 310 305 306 306 309 311 311 310 313 313 318 324 325 325 328 329 328 327 327 327 326 323 327 337 337 337
307 307 307 306 303 301 300 300 301 302 304 305 305 305 305 307 316 314 310 307 308 310 312 312 311 310 311 312 313 317 321 323 325 327 328 329 328 328 328 326 323 323 335 336 338
306 307 307 306 302 300 300 300 300 302 303 305 305 305 305 314 318 317 308 310 311 311 313 314 310 308 312 311 313 314 316 321 322 323 324 326 327 328 328 328 326 324 324 331 337
305 305 304 303 301 301 300 300 300 301 303 305 304 305 306 317 319 310 311 311 312 312 315 313 311 308 308 312 311 312 314 316 318 321 322 323 324 326 327 327 328 326 325 325 332
303 301 302 302 302 302 301 300 301 301 303 304 304 306 316 319 311 311 311 312 313 312 312 312 311 311 310 309 309 311 313 315 316 316 320 322 323 325 326 326 328 328 326 325 330
308 308 308 302 300 302 301 300 302 302 304 304 305 311 313 313 311 310 311 310 310 311 312 313 312 311 310 310 310 311 311 313 314 315 317 317 320 326 325 325 325 327 327 325 326
309 309 309 306 303 303 302 301 302 303 306 305 306 312 314 315 311 310 309 309 311 310 311 311 312 311 311 310 311 310 310 310 314 315 316 315 317 318 319 323 325 326 327 328 326
309 306 306 304 304 305 302 302 303 303 307 306 311 313 318 315 310 309 309 310 311 310 311 311 312 311 311 310 308 310 310 309 310 311 314 315 316 317 318 320 321 322 324 328 327
307 306 306 304 304 303 302 305 312 312 312 311 314 314 315 314 310 309 310 310 310 310 312 312 309 310 309 310 309 309 310 310 310 310 310 310 314 316 317 318 319 320 323 327 327
305 306 306 303 304 303 303 310 312 314 313 317 318 317 313 311 310 310 310 310 310 310 310 310 309 311 311 313 313 312 312 312 312 312 311 311 312 313 313 316 317 319 320 324 327
303 305 305 304 303 303 304 310 310 310 310 311 312 312 312 310 309 311 311 310 309 308 309 308 308 311 312 312 313 313 313 312 312 312 312 311 312 312 313 313 314 318 319 321 324
306 304 305 304 303 305 307 314 311 311 311 312 314 311 312 310 309 310 311 309 309 308 309 308 309 310 310 310 311 311 311 312 312 313 312 311 311 311 312 313 315 316 318 319 322
306 307 305 304 308 311 312 311 311 311 311 315 312 310 310 310 310 311 310 309 308 308 308 308 308 309 308 309 310 310 311 311 311 311 311 312 311 310 312 313 315 316 316 317 319
306 306 306 304 305 310 311 311 312 311 323 313 310 310 310 309 310 311 311 309 309 309 308 308 308 308 310 314 314 315 315 314 314 312 310 310 309 310 311 312 312 314 317 316 317
306 307 305 309 310 313 312 311 312 318 324 311 311 310 309 311 311 312 311 309 310 309 309 308 309 311 313 314 314 314 315 314 313 311 312 309 310 310 311 312 312 313 315 316 319
305 307 307 306 311 311 310 311 317 323 316 312 311 311 311 311 312 312 310 310 309 310 309 308 308 310 314 313 313 312 313 314 312 312 313 309 309 309 310 312 313 312 313 315 316
305 308 310 306 310 310 310 314 321 319 315 312 311 311 312 312 313 312 311 310 311 309 306 307 309 310 312 311 311 311 314 318 321 313 311 313 313 310 311 311 313 314 313 313 315
306 311 313 313 313 311 311 317 320 316 312 311 311 312 312 313 312 311 311 311 312 312 312 312 312 311 311 311 312 314 314 314 318 317 317 313 312 312 311 314 316 315 315 314 314
305 310 315 314 313 310 312 317 316 310 309 310 311 312 312 312 311 312 313 312 311 312 311 312 314 312 311 311 311 312 312 313 316 316 316 314 314 312 320 317 316 315 314 315 316
308 314 314 313 309 310 316 317 315 311 309 311 311 313 312 313 311 312 312 311 312 313 311 313 314 313 311 311 311 310 315 315 315 316 315 315 315 319 316 316 315 314 314 316 317
308 315 312 309 309 314 316 315 312 312 311 311 312 312 312 312 312 311 311 312 312 312 313 314 314 314 312 310 311 311 314 313 317 316 315 314 314 315 314 314 314 313 314 316 317
308 313 311 311 316 313 313 311 311 313 312 310 312 311 311 311 313 313 313 312 312 312 314 313 313 315 313 310 313 314 312 316 316 317 317 320 317 315 314 314 314 315 316 317 317
310 313 313 312 311 311 311 312 311 313 313 312 312 311 311 312 311 314 312 311 312 312 313 314 316 315 315 314 313 314 313 313 313 316 316 315 316 316 316 314 315 316 315 315 314
311 312 308 311 309 310 311 311 312 313 312 311 311 311 312 312 311 311 312 313 312 315 315 314 317 315 314 314 314 314 314 313 312 314 315 314 314 314 316 314 315 315 315 314 313
307 306 305 305 308 311 313 311 310 310 309 310 311 311 310 310 310 311 312 312 313 315 315 314 315 317 319 315 315 315 313 313 312 311 312 312 313 312 314 313 314 314 314 313 313
305 305 305 305 307 310 311 309 310 309 310 309 309 309 310 310 310 311 311 310 312 315 312 311 314 316 316 314 314 315 314 313 313 313 312 313 313 310 314 314 313 313 313 313 315

GFSSW_925_thetae_042.txt.gz
Theta_e
307 307 308 308 308 308 305 301 301 301 302 303 304 305 305 304 304 309 311 309 313 310 306 306 308 309 310 311 313 315 318 322 330 331 330 327 327 327 326 325 325 326 336 337 338
307 307 307 308 308 307 304 302 300 300 302 303 304 305 304 306 311 313 310 313 311 305 307 309 310 311 308 310 311 313 319 322 321 325 326 325 326 327 328 327 327 325 336 338 338
305 306 306 307 307 307 306 304 302 301 301 302 304 304 304 308 315 317 313 308 307 309 312 312 312 310 309 310 310 312 316 321 323 323 323 325 325 325 325 326 326 325 325 337 338
306 306 306 307 305 304 304 305 302 301 300 302 304 304 305 314 316 316 309 310 310 310 311 313 311 308 309 311 311 311 312 314 317 319 320 321 322 322 323 324 324 326 325 331 337
310 310 310 308 305 304 303 303 301 301 301 302 304 304 309 315 318 310 311 311 310 310 313 314 310 308 307 308 309 310 311 311 312 314 318 320 321 321 321 322 323 325 326 323 335
309 309 309 309 307 306 304 303 301 301 301 303 305 306 314 314 313 311 311 311 311 312 312 311 310 310 309 309 309 308 309 309 310 311 312 315 318 319 320 321 323 324 326 324 326
308 309 309 309 308 306 306 304 301 301 302 305 305 311 312 309 313 310 311 309 308 310 310 312 312 311 309 309 309 309 309 309 310 312 313 315 316 317 317 319 323 324 324 324 324
303 304 306 306 307 306 306 303 302 302 302 306 306 312 310 312 314 311 309 309 310 310 310 310 311 310 310 309 309 309 308 308 309 309 313 314 315 316 316 316 318 319 322 323 325
302 304 305 306 306 305 304 302 305 307 308 307 310 312 316 315 312 309 309 309 310 310 310 310 310 309 310 309 306 307 307 308 308 308 310 312 314 315 315 315 316 317 318 319 321
306 306 305 305 305 303 303 305 312 312 312 311 312 313 312 314 310 309 310 309 309 308 309 311 307 308 306 307 310 308 308 308 309 308 309 308 308 309 311 311 313 315 316 318 319
307 307 306 305 305 303 303 311 305 309 312 315 317 316 316 313 310 310 310 309 309 307 307 308 306 308 308 309 311 311 311 310 310 311 311 309 310 310 310 310 310 310 313 315 317
307 307 306 306 304 303 304 309 310 309 308 309 311 311 311 311 309 309 310 309 308 307 307 306 306 308 309 308 309 309 310 309 311 311 311 310 311 311 310 309 309 310 311 312 314
306 306 307 306 303 310 308 311 312 311 308 310 311 312 311 310 309 309 309 309 308 307 307 307 307 308 308 307 311 311 310 313 312 311 311 311 311 311 311 310 310 310 311 312 313
305 305 306 306 308 306 309 311 311 311 310 314 310 310 309 308 308 309 310 308 308 307 307 306 307 307 307 309 313 312 313 314 314 313 311 310 311 310 310 309 309 309 308 310 312
302 304 305 305 304 306 312 311 311 311 319 316 310 310 309 308 310 310 310 308 307 307 306 307 307 306 307 313 313 312 314 314 313 314 311 311 309 311 308 309 309 309 309 309 310
301 305 306 308 309 311 310 310 312 318 321 310 309 310 308 309 309 310 309 308 308 307 307 307 307 308 312 313 313 313 313 311 310 311 312 311 309 311 309 308 309 309 309 310 309
304 307 308 306 308 310 310 310 317 322 316 312 310 310 310 310 311 312 312 308 307 308 307 306 307 311 313 312 310 310 311 312 311 310 311 310 310 310 308 308 313 315 314 313 313
307 312 311 307 307 310 310 311 319 317 311 311 310 310 311 311 311 312 310 309 309 309 307 307 312 309 311 309 308 308 313 313 318 315 313 313 313 311 310 314 314 314 313 313 313
309 313 314 312 312 312 307 313 316 313 310 310 310 311 312 311 311 311 311 310 311 310 312 312 312 311 310 310 310 311 314 313 316 316 320 315 312 310 316 315 315 314 313 312 312
308 311 313 314 313 309 308 315 315 314 311 311 312 312 313 311 311 310 310 312 311 311 308 311 313 312 311 310 309 309 309 310 312 317 318 314 313 313 316 316 314 312 311 311 312
309 310 314 313 309 307 311 314 314 311 311 310 310 312 311 311 310 310 311 310 312 312 310 312 312 313 310 310 309 308 311 314 314 316 317 315 312 315 317 314 313 311 310 311 312
304 312 314 309 305 307 312 314 310 311 312 310 311 311 311 310 310 311 310 310 312 311 313 312 312 314 313 311 311 310 310 311 309 312 315 313 314 313 312 312 311 311 311 312 313
304 306 311 310 306 307 307 310 310 310 313 311 311 310 309 309 311 311 312 312 311 311 312 312 311 316 314 310 312 314 313 314 313 313 313 317 315 314 313 314 311 311 313 313 314
304 308 304 304 304 308 309 310 310 311 312 309 310 309 310 311 310 311 311 311 310 312 314 313 315 316 316 315 314 315 314 313 314 315 315 315 312 312 313 315 313 312 313 312 313
302 305 303 304 304 304 308 310 311 310 309 307 308 309 309 310 309 309 309 309 311 314 313 314 318 315 315 315 315 315 315 315 315 314 314 312 312 311 311 312 312 314 315 315 314
301 301 300 301 303 305 307 308 310 310 308 308 309 309 307 308 308 309 308 310 310 311 313 314 316 314 314 313 313 315 316 315 314 313 313 312 310 309 310 310 312 313 314 314 313
304 304 303 302 302 304 306 306 307 307 306 308 306 306 308 308 308 307 308 309 309 310 309 312 314 315 314 313 313 315 317 316 316 314 312 311 310 317 316 317 314 313 312 312 311

GFSSW_925_thetae_045.txt.gz
Theta_e
307 307 307 307 308 308 308 308 308 307 305 303 303 304 303 304 304 311 310 306 311 312 307 305 307 309 308 309 312 315 319 324 330 331 329 326 324 325 325 325 325 325 328 330 344
308 307 307 308 307 307 307 308 308 307 306 303 302 303 303 305 310 313 310 313 313 308 307 307 309 310 307 309 310 312 316 319 322 326 326 322 323 323 324 322 324 325 325 325 343
309 310 311 311 310 307 307 308 308 308 307 303 301 303 303 307 313 317 313 309 307 306 311 312 312 309 308 309 310 310 315 320 322 321 321 322 322 321 322 323 324 323 324 324 334
310 310 310 310 310 309 308 307 308 308 304 301 302 303 305 314 316 316 309 309 307 309 311 313 309 308 307 309 309 310 311 313 314 316 317 318 318 318 318 319 320 321 322 323 322
307 309 310 310 310 310 308 307 309 305 301 301 303 304 310 313 316 311 310 309 308 310 312 313 309 307 307 306 307 309 309 309 310 309 310 313 316 317 318 318 319 320 323 323 322
303 304 304 306 308 309 309 309 308 303 301 302 305 306 313 307 313 314 311 310 310 312 311 311 309 309 308 309 308 308 308 308 309 309 310 312 313 315 316 317 318 319 320 322 321
305 305 305 306 308 308 308 306 303 302 302 303 306 311 312 305 310 310 310 310 310 311 310 310 310 310 309 308 308 309 308 307 308 310 311 313 313 314 315 316 316 316 320 321 321
307 307 306 306 306 307 305 303 302 303 303 303 307 312 309 308 315 313 309 309 308 309 309 310 309 309 309 308 307 308 306 306 307 308 310 312 313 314 314 314 316 316 317 319 320
307 307 307 306 306 306 303 303 306 309 308 306 310 310 313 314 313 309 308 309 309 309 309 309 309 309 308 307 307 305 306 308 307 307 307 310 311 311 309 310 311 312 313 315 316
306 306 306 306 306 304 303 308 311 312 311 311 312 313 312 314 312 309 309 309 308 307 308 309 305 307 304 306 310 310 308 308 308 308 308 307 309 308 309 310 310 309 310 311 313
304 304 304 306 306 303 307 311 304 306 313 310 314 314 314 314 311 309 309 309 308 306 306 306 305 307 307 307 309 309 310 310 310 310 308 308 309 309 309 309 308 308 309 310 311
301 302 303 306 306 306 308 309 310 308 307 307 308 311 313 312 310 309 309 308 307 306 306 304 305 306 307 307 308 308 308 310 310 312 311 309 310 309 309 309 308 308 308 309 309
299 301 304 307 304 309 307 310 310 310 308 309 310 310 310 310 310 309 308 307 307 306 306 305 306 306 307 308 312 311 313 313 313 313 311 309 311 309 309 309 308 308 307 307 309
300 303 304 306 309 306 309 310 310 308 309 315 312 312 310 307 308 308 309 308 307 306 305 306 305 307 306 307 312 310 311 313 314 313 312 311 312 310 309 308 308 307 306 306 306
302 303 305 306 305 307 310 309 310 310 315 315 309 309 307 307 309 309 309 307 307 306 306 306 307 306 306 308 312 309 313 313 311 311 311 310 309 310 308 310 309 307 306 307 307
304 306 306 308 309 310 309 310 311 316 320 311 310 310 309 308 308 308 309 307 307 307 306 305 306 306 306 312 312 312 311 309 308 308 311 309 310 309 308 309 308 310 313 313 312
307 311 309 306 308 308 310 309 314 317 313 311 310 310 309 310 311 311 310 307 307 308 307 306 306 310 312 311 308 307 307 309 311 309 311 310 311 309 308 307 312 314 313 312 311
310 312 308 306 308 311 309 310 318 318 310 310 310 310 311 310 310 311 310 309 310 308 307 307 311 309 311 309 308 306 308 309 314 315 312 310 313 311 310 312 314 313 312 311 310
312 313 313 312 312 311 306 312 314 315 313 310 311 311 312 311 310 310 309 310 311 310 311 311 312 310 310 310 308 310 311 308 311 311 312 312 312 309 312 313 313 312 312 309 308
309 311 313 314 313 308 307 314 314 312 311 310 311 311 312 311 311 309 309 310 312 310 308 310 312 310 310 310 309 308 308 312 311 317 315 313 312 312 311 310 313 312 310 308 308
308 309 312 311 309 307 309 312 313 310 312 310 309 309 311 311 310 310 310 310 311 311 310 310 309 312 311 310 309 308 308 311 309 313 315 314 311 308 311 314 312 311 309 308 308
303 311 311 309 306 303 310 312 309 310 311 310 310 311 310 310 309 310 310 309 311 311 311 311 310 313 312 311 310 311 311 310 311 311 311 313 312 314 312 310 310 310 310 309 309
305 304 311 308 303 305 305 309 309 309 311 310 310 309 309 309 310 310 311 310 310 310 311 310 311 316 312 310 311 313 313 314 314 314 314 315 312 311 311 312 311 311 310 310 310
303 306 302 300 301 306 308 309 311 310 309 308 309 309 309 310 308 309 309 309 308 309 313 312 314 315 315 314 314 316 314 315 315 317 314 313 312 311 312 311 310 310 309 309 311
299 303 301 302 303 303 304 308 309 309 308 306 307 309 309 308 308 308 308 308 307 311 312 313 315 314 314 313 314 314 313 314 316 316 318 314 312 311 310 309 309 311 311 312 312
300 300 299 300 301 303 305 307 307 309 308 308 307 308 306 306 307 309 307 307 308 309 310 313 313 314 315 312 312 312 312 312 313 315 315 314 313 311 310 313 315 314 315 312 312
302 302 302 300 301 302 303 305 305 305 306 307 306 305 306 307 306 306 306 307 307 308 308 311 315 316 314 312 312 314 317 317 315 314 316 315 314 313 312 311 311 311 315 315 317

GFSSW_925_thetae_048.txt.gz
Theta_e
309 309 309 310 310 309 308 308 308 308 306 303 301 301 303 303 303 310 311 307 310 310 309 306 307 308 308 309 311 315 319 325 329 329 329 326 325 324 322 324 321 324 325 324 343
309 309 309 309 309 309 309 309 308 308 307 302 300 301 302 304 310 313 312 310 312 310 307 307 308 309 305 308 310 313 314 319 321 325 325 323 323 322 322 321 321 322 321 322 341
307 308 310 310 310 310 309 308 308 308 308 304 301 302 303 307 313 315 312 310 309 306 310 312 311 308 308 308 309 310 313 318 320 319 319 319 318 318 318 319 322 319 319 320 321
307 307 308 308 309 309 309 309 309 309 306 303 301 303 304 314 316 315 310 309 308 308 310 312 308 306 306 309 307 310 310 312 312 312 312 314 314 315 315 316 316 317 317 319 321
309 308 309 310 310 309 309 309 309 308 304 302 304 305 310 308 311 316 311 309 308 310 311 312 308 306 307 307 308 308 308 309 309 309 309 310 311 313 313 314 315 316 317 319 319
310 310 310 310 310 309 309 309 308 306 301 302 306 307 312 304 308 312 312 310 310 311 310 310 308 308 308 308 308 308 308 308 308 309 309 310 311 312 314 315 315 316 317 317 318
310 310 309 309 309 309 308 308 304 302 302 302 307 311 311 302 310 311 310 310 310 310 309 310 309 309 307 308 307 308 308 306 307 308 309 309 311 312 313 315 315 315 314 315 316
309 309 308 307 307 308 307 305 303 303 303 303 308 313 306 307 314 313 310 309 309 308 310 308 309 308 309 308 306 306 303 304 306 307 308 310 310 312 309 311 312 313 313 313 313
308 306 304 304 306 306 305 304 310 309 306 305 310 309 312 313 313 310 309 307 308 308 308 308 308 306 306 307 306 304 307 307 307 307 307 309 310 310 309 309 310 310 312 311 310
302 302 304 304 306 306 305 310 311 311 309 310 312 311 312 313 312 311 308 308 307 307 306 306 303 305 303 305 307 308 309 308 308 308 308 307 307 308 309 309 309 309 310 310 310
303 303 305 305 306 304 308 309 304 305 313 308 312 311 311 311 310 309 309 308 307 305 305 304 304 307 307 306 307 308 309 309 309 309 309 309 309 309 308 307 308 308 309 310 310
301 303 305 305 306 307 308 309 309 308 307 307 307 310 311 312 310 310 310 308 307 306 306 303 305 305 306 306 307 308 308 310 310 310 310 309 309 309 308 308 308 308 308 308 308
302 305 305 306 305 308 308 310 309 308 307 308 309 309 309 309 310 310 307 307 307 306 306 304 306 306 306 307 310 309 311 311 312 312 309 308 307 308 308 308 308 307 306 306 307
303 305 306 306 308 307 309 309 309 308 310 313 311 310 310 308 309 309 308 307 306 305 304 304 305 306 306 306 309 309 309 312 312 309 308 309 309 306 308 308 307 306 305 305 304
305 305 306 305 306 308 309 309 310 309 313 314 309 309 307 307 308 309 308 306 307 305 305 306 307 306 306 306 309 307 311 311 310 308 309 310 309 306 305 306 306 308 308 305 309
307 309 307 308 308 309 309 310 310 313 318 312 310 310 309 308 308 310 308 306 306 305 305 304 305 305 305 309 310 309 309 307 305 306 309 308 308 307 306 306 306 307 308 311 311
309 310 308 308 306 308 310 308 312 316 313 311 309 309 309 310 310 311 309 307 306 307 307 307 305 308 311 310 307 306 305 307 307 307 309 307 309 308 308 309 308 308 309 310 309
311 311 308 309 311 311 309 309 316 316 312 311 309 309 311 310 310 310 309 308 310 308 306 308 310 310 310 309 309 306 305 307 311 311 308 307 310 309 309 309 310 312 311 310 310
312 313 313 313 313 310 306 312 313 314 312 312 309 311 311 310 310 308 308 309 310 309 309 310 311 309 309 309 308 309 308 306 308 308 307 309 309 309 309 309 312 312 311 310 307
310 311 312 311 311 308 307 313 313 311 310 310 310 310 311 310 310 309 309 309 311 310 307 309 311 309 309 309 308 308 308 310 308 315 314 310 310 310 309 310 308 309 308 307 307
309 308 310 310 306 305 308 310 313 309 310 312 308 308 310 310 309 309 309 308 310 310 308 308 308 310 310 310 309 307 307 309 307 311 313 313 310 307 307 307 307 309 309 307 307
304 309 310 309 305 301 308 310 309 309 310 310 309 310 310 309 309 308 309 309 310 310 311 309 307 312 311 309 309 307 308 308 314 312 311 312 312 307 307 308 308 308 309 308 308
305 304 309 307 303 303 304 308 308 309 310 309 309 308 309 308 310 308 309 310 309 309 310 309 310 311 310 308 309 312 312 312 312 314 314 315 312 308 308 309 309 309 308 308 308
301 305 302 299 299 304 305 307 310 309 308 307 307 308 309 309 308 309 309 308 307 307 311 311 309 311 311 312 310 313 312 312 314 316 315 315 313 312 311 310 309 308 307 308 311
296 301 300 300 301 302 303 306 309 309 307 306 307 308 308 307 307 307 307 307 307 308 309 310 314 313 312 313 312 312 312 312 313 313 316 314 314 313 312 311 310 309 311 310 312
299 299 298 299 300 302 303 306 306 307 306 308 307 306 305 305 306 307 306 306 306 308 310 309 314 314 313 311 312 313 312 311 311 312 313 316 316 312 309 310 311 310 310 310 314
300 300 300 298 299 301 300 305 304 303 304 306 305 305 305 305 304 303 303 305 306 307 309 313 315 315 314 311 311 314 312 313 314 315 316 317 311 310 311 310 309 309 309 309 313

GFSSW_925_thetae_051.txt.gz
Theta_e
308 309 309 309 309 309 310 307 307 308 308 307 304 301 301 303 304 310 314 308 310 309 308 306 307 308 308 311 314 321 325 324 326 327 326 327 326 325 324 324 324 325 325 323 328
307 308 308 308 308 309 310 310 308 307 308 307 304 301 302 305 311 313 313 308 311 309 309 309 310 309 310 311 314 318 319 321 324 325 326 326 325 323 323 323 322 323 322 321 319
310 310 310 310 310 310 310 310 309 308 307 304 303 301 303 308 314 314 311 310 309 308 311 312 312 310 310 311 312 314 317 319 321 321 321 323 322 320 320 321 322 320 320 320 319
309 310 310 311 310 310 310 310 309 310 308 303 302 304 305 312 315 315 310 309 308 309 311 313 310 309 310 311 310 312 312 312 316 314 314 317 314 315 317 318 317 317 317 318 321
309 308 309 310 310 310 310 309 309 309 308 303 303 306 310 309 312 315 312 309 308 310 311 313 311 310 311 311 311 311 311 311 312 311 312 312 314 315 314 314 314 316 318 320 321
309 308 308 309 309 309 309 309 308 308 305 303 306 306 312 305 307 312 315 310 310 311 311 312 311 311 311 311 311 310 311 311 311 312 312 312 313 313 314 315 314 315 317 318 319
309 307 305 307 307 308 309 309 308 306 305 305 307 311 311 305 309 311 312 312 310 310 311 310 310 311 311 310 310 310 311 310 310 310 311 311 312 312 313 314 315 316 316 317 317
306 304 304 305 307 308 308 306 304 304 303 304 309 312 308 306 312 312 313 310 310 309 309 308 309 310 311 310 310 310 308 310 311 310 310 311 311 312 311 312 313 313 314 314 315
305 305 304 305 305 307 306 307 311 308 305 307 311 310 314 313 313 311 311 308 307 307 307 308 309 310 310 311 312 310 311 311 311 310 312 311 312 313 311 311 312 313 313 314 315
305 304 305 306 306 306 308 311 311 309 309 311 312 313 313 314 313 311 309 307 308 308 308 310 310 311 310 310 310 310 310 311 311 311 312 312 312 312 311 311 312 312 312 313 314
304 306 306 306 307 306 309 308 309 309 313 311 311 312 311 311 310 309 308 308 308 309 309 308 311 311 309 310 309 310 311 311 311 312 311 311 311 311 311 312 312 313 313 314 314
304 304 305 306 306 307 308 311 310 309 312 308 309 310 310 310 311 311 310 309 309 309 308 308 309 309 308 308 309 311 311 311 311 312 311 310 310 311 310 312 312 313 313 313 313
305 305 305 306 306 308 308 309 308 308 311 310 309 310 310 310 311 311 309 308 309 309 308 308 308 308 308 308 310 311 310 311 310 311 311 311 309 310 310 312 312 312 313 313 313
304 306 306 306 307 308 309 308 309 306 314 313 311 311 310 310 310 310 309 309 308 309 307 308 307 307 308 308 309 309 310 311 310 310 310 310 309 310 310 310 311 312 313 313 313
307 310 306 307 309 309 308 309 309 309 314 314 310 309 309 309 308 309 307 308 309 308 308 309 308 308 309 309 310 309 310 311 311 311 311 310 311 311 310 310 310 311 311 311 312
309 309 306 309 308 308 309 309 310 317 317 311 310 310 311 310 311 311 310 308 307 308 307 308 307 308 308 309 311 311 311 311 310 311 311 311 311 310 310 310 311 311 312 312 313
310 308 308 307 308 311 309 310 317 319 313 312 310 310 311 312 312 311 311 311 310 310 310 309 308 308 311 311 310 311 312 311 309 311 310 312 311 311 311 311 311 312 313 314 314
312 311 310 312 312 311 308 315 318 315 314 312 310 310 311 311 311 311 311 311 311 310 310 312 312 310 312 311 311 311 312 311 310 310 310 311 312 311 311 311 312 314 315 316 316
312 312 312 311 311 310 312 318 317 314 311 312 311 311 312 311 311 311 311 310 310 311 312 312 313 311 310 310 311 311 311 310 313 312 314 312 311 311 311 312 313 313 313 314 315
310 311 311 309 308 308 314 315 315 312 310 312 311 310 311 312 311 311 311 310 312 311 310 311 313 311 311 311 310 311 311 314 315 316 315 312 312 312 312 312 311 312 313 314 314
309 314 311 308 306 312 315 313 313 311 310 313 312 311 310 311 311 312 310 309 311 311 311 312 313 311 311 312 311 311 313 312 313 314 316 315 313 312 312 311 312 312 312 313 313
307 313 309 307 311 306 313 310 308 310 311 311 311 311 312 311 311 311 311 310 311 311 312 312 313 314 312 311 311 311 313 313 316 316 314 315 314 312 312 312 313 312 312 312 313
307 309 307 306 315 311 308 309 309 309 311 310 311 310 310 311 312 311 310 310 310 311 312 314 314 314 310 313 312 313 313 313 314 315 316 316 314 312 312 313 313 314 313 313 313
306 309 305 304 303 306 306 307 311 310 309 309 309 309 310 311 311 312 311 310 308 309 310 312 314 313 312 310 313 314 313 313 315 317 315 315 315 314 313 314 314 314 312 313 314
301 304 302 302 304 304 305 306 309 310 308 308 309 309 308 310 309 309 309 309 308 309 310 312 314 313 312 311 312 313 315 314 315 314 316 315 314 313 313 314 313 312 312 312 312
303 303 302 303 302 303 304 307 308 308 306 308 309 308 307 308 308 309 308 308 309 310 314 314 314 313 313 311 312 314 313 313 314 314 315 315 315 313 313 312 312 311 311 311 311
299 300 302 300 302 303 303 306 306 304 304 305 307 306 306 306 306 306 307 307 308 310 312 313 314 313 312 312 314 315 314 314 314 313 314 316 314 314 314 313 312 311 311 311 311

GFSSW_925_thetae_054.txt.gz
Theta_e
309 309 309 309 309 309 309 310 310 309 309 309 308 304 302 301 303 313 317 313 311 310 310 310 310 311 312 316 319 322 328 329 328 328 327 327 327 327 327 327 327 327 327 327 324
310 310 310 310 310 309 309 310 311 310 308 309 307 304 301 303 313 315 314 308 310 309 311 311 311 312 314 315 317 322 326 326 326 326 327 327 328 327 325 327 327 327 327 325 324
309 309 310 310 309 309 309 310 310 310 310 309 305 302 303 307 317 314 310 311 310 311 314 312 312 313 313 315 317 319 323 323 323 324 325 326 326 326 324 325 326 327 325 324 322
308 309 309 310 310 310 310 309 310 310 310 309 303 303 304 314 317 316 310 309 309 313 314 314 312 312 313 314 316 317 319 320 321 322 320 322 323 323 322 321 320 321 320 320 322
308 308 307 307 308 309 309 309 310 309 309 307 303 305 313 313 311 315 311 311 314 313 313 314 313 313 313 313 314 314 316 316 316 316 317 318 319 319 320 319 317 317 319 320 321
307 306 306 306 306 307 308 309 309 309 307 305 306 305 314 309 311 315 318 315 313 312 312 313 313 313 313 313 314 314 314 314 315 315 316 315 316 316 317 317 316 317 318 319 320
307 306 305 305 306 307 309 309 308 307 306 306 307 312 312 309 311 313 317 314 312 311 312 312 312 313 313 313 313 313 313 313 314 314 314 314 314 315 316 316 316 316 319 319 319
308 307 305 306 307 308 308 307 307 307 304 304 307 313 311 307 310 313 314 313 312 312 311 311 311 313 313 314 313 313 313 313 313 312 313 313 313 315 315 315 316 316 315 318 319
305 305 306 307 307 307 307 309 310 307 305 304 314 314 314 313 314 312 313 311 310 310 311 310 311 313 313 314 315 314 313 314 314 314 314 314 314 315 315 315 315 316 315 316 317
304 305 305 306 307 307 310 312 311 313 312 313 314 317 315 313 314 313 311 310 310 311 311 312 313 314 314 314 314 315 314 314 314 315 314 314 315 315 315 315 315 315 316 315 315
306 305 306 306 307 306 311 312 315 316 315 315 314 314 314 313 313 311 310 310 311 311 312 312 313 314 314 312 312 312 313 313 314 313 314 314 315 315 315 315 315 316 316 316 316
305 305 306 306 306 308 311 314 312 312 316 313 313 313 312 312 313 312 311 311 311 312 311 311 312 312 312 311 311 312 313 314 313 313 312 313 313 314 314 314 314 316 316 316 316
306 307 306 305 308 310 312 311 310 310 316 313 313 312 313 313 313 312 312 312 311 312 311 312 311 310 311 311 311 312 313 313 312 312 312 313 314 313 313 313 314 314 315 316 316
306 310 306 308 311 311 313 311 310 310 318 314 313 313 313 313 313 312 312 312 312 312 311 311 311 310 311 311 310 312 311 310 311 313 313 313 313 313 313 313 313 314 314 315 315
308 308 305 309 313 313 311 310 311 312 320 314 312 312 312 312 311 311 311 312 312 312 311 312 311 311 311 312 311 311 311 311 312 313 314 314 315 314 313 313 313 313 313 314 314
309 307 309 311 312 311 311 311 313 322 320 313 312 312 313 312 312 313 313 311 311 312 312 312 312 311 312 311 311 312 311 313 314 314 314 314 314 313 314 314 313 314 314 314 315
311 307 309 310 314 313 312 315 321 321 315 315 313 312 313 314 314 314 315 315 314 314 315 313 312 311 311 312 313 312 314 314 313 315 313 314 314 314 314 314 314 314 314 314 316
312 311 311 312 312 313 313 318 320 317 316 314 314 313 314 314 314 314 314 315 314 314 314 315 315 312 312 312 313 314 314 314 313 313 313 314 315 317 314 314 314 314 315 315 316
311 314 315 312 311 311 315 318 318 316 314 314 314 314 314 314 314 313 313 313 313 313 315 314 315 313 312 313 313 314 314 313 314 314 316 315 315 315 315 314 314 314 314 315 315
312 315 315 310 309 313 317 316 317 314 312 313 315 313 314 314 313 312 313 312 312 312 313 313 316 314 313 313 313 313 313 314 315 317 316 315 316 316 316 315 314 314 314 314 315
313 316 314 309 310 315 318 315 315 314 313 314 315 315 314 313 313 313 313 312 311 312 313 313 314 313 313 313 313 314 313 313 315 318 320 318 315 316 315 315 315 315 314 315 315
313 314 312 310 315 314 315 314 309 312 312 313 313 314 314 314 314 313 313 313 311 311 312 312 314 315 313 313 312 313 314 315 319 318 316 316 316 315 315 315 315 315 315 315 316
309 313 311 310 316 311 311 311 310 310 311 313 313 313 313 314 314 313 313 312 311 312 312 314 315 316 314 315 314 315 315 315 316 317 321 321 318 315 315 315 316 316 316 315 315
307 310 308 310 308 308 308 308 311 311 312 312 312 312 313 313 312 312 311 311 311 311 310 312 315 315 315 314 316 315 315 314 316 321 318 317 316 315 316 316 316 316 316 315 314
305 308 307 306 306 307 308 308 308 310 310 311 311 311 312 312 311 311 311 310 310 310 311 313 315 313 313 312 312 312 312 312 313 317 319 317 317 316 316 316 316 316 316 315 314
306 304 305 305 306 307 306 307 308 309 308 306 308 308 310 311 310 310 310 309 309 309 312 314 317 313 313 311 312 312 312 312 313 315 316 316 317 316 315 315 316 315 315 315 314
302 303 305 304 305 305 306 306 305 305 305 306 307 307 306 306 306 307 307 308 309 310 311 312 314 316 315 311 313 314 314 315 315 315 315 316 315 315 316 315 315 314 313 313 312

GFSSW_925_thetae_057.txt.gz
Theta_e
310 310 310 311 311 310 310 311 311 311 311 309 309 303 301 300 302 312 318 316 315 312 306 311 312 313 314 318 321 323 326 328 329 330 330 329 329 328 328 329 328 328 328 329 327
310 310 310 310 310 310 310 310 311 311 311 310 307 302 301 302 312 315 315 312 310 310 314 313 313 314 316 318 321 323 325 325 326 327 329 330 329 329 328 329 329 328 328 328 327
309 309 309 310 309 310 310 310 310 311 311 311 307 301 301 306 318 319 310 309 310 311 315 314 313 315 315 318 320 322 324 323 324 326 327 327 328 329 330 329 328 328 328 328 327
308 309 309 307 307 307 309 310 310 310 310 310 305 301 304 313 322 319 310 310 310 317 315 316 314 314 315 316 318 321 322 323 323 324 325 326 327 327 328 329 326 325 325 325 325
308 308 308 307 307 307 308 309 310 310 310 307 302 304 313 317 314 315 311 311 316 314 315 316 316 315 315 316 318 319 321 322 322 322 323 324 324 324 325 325 324 321 321 322 324
308 308 308 307 307 308 308 308 309 309 308 306 301 305 317 315 313 316 315 315 315 313 314 315 316 316 315 316 316 318 318 319 320 320 321 320 320 321 322 322 321 321 320 322 324
305 306 306 307 308 309 309 308 307 305 305 303 302 312 317 315 311 315 316 314 313 313 314 314 314 315 316 316 316 316 316 317 317 318 319 319 319 319 320 321 320 320 321 321 322
305 305 306 306 308 309 308 307 310 310 305 302 303 315 317 310 311 313 314 314 313 312 312 313 312 314 315 316 316 315 315 316 316 316 316 316 316 318 319 319 319 319 320 320 322
305 306 306 306 308 308 308 310 308 308 307 304 314 318 319 310 312 313 314 313 313 312 313 312 312 314 316 315 316 316 316 316 316 316 315 315 316 317 318 318 318 319 319 320 321
306 306 306 307 307 307 310 314 312 315 312 313 316 317 317 313 313 313 313 312 312 313 313 313 314 315 316 316 317 317 318 316 317 317 316 316 317 317 318 318 318 318 319 319 319
305 306 307 306 307 308 313 315 319 322 318 319 317 317 317 315 314 313 313 312 313 313 314 315 315 315 315 317 316 316 317 317 317 317 316 317 318 317 318 318 318 318 319 318 319
305 307 307 306 308 309 312 317 314 314 317 316 314 315 314 314 314 314 312 313 314 314 315 314 315 314 316 315 314 314 315 316 316 316 316 316 317 317 317 317 318 318 318 318 319
306 309 306 307 309 313 315 314 313 314 319 315 314 314 315 314 315 314 313 313 314 314 314 314 315 313 313 314 313 314 315 316 316 316 315 315 316 317 317 317 317 317 317 318 319
308 307 306 309 311 314 316 313 313 314 321 317 315 315 314 314 314 314 313 313 314 314 314 314 314 312 312 313 313 314 315 314 313 314 316 316 318 317 316 316 316 316 316 317 318
309 306 307 309 317 317 314 313 313 316 328 316 314 314 315 314 314 313 313 314 313 314 314 314 314 313 313 313 314 314 314 313 313 314 316 316 317 317 318 317 316 316 316 316 317
310 308 310 314 315 314 313 313 317 325 325 317 315 314 314 314 314 314 314 313 314 314 315 314 314 314 314 314 313 313 313 314 314 315 317 317 317 317 318 317 316 316 316 316 316
309 308 309 313 316 314 314 317 324 325 319 317 316 315 315 316 316 315 316 317 317 318 318 317 316 314 314 313 314 314 315 316 317 318 318 317 316 317 317 316 316 316 316 316 317
305 312 314 313 314 314 315 320 325 320 317 317 316 316 316 316 316 316 317 317 317 317 317 317 318 317 316 313 313 314 317 317 318 319 316 318 317 319 317 317 316 316 317 317 317
303 314 316 318 314 313 318 322 322 320 316 315 315 316 317 316 316 316 317 316 316 315 318 319 318 317 316 315 314 314 315 315 316 316 317 317 317 316 318 317 316 317 316 316 317
310 316 317 316 314 315 320 320 319 317 315 315 316 317 317 316 316 317 316 315 314 313 314 315 316 316 317 315 315 315 315 319 318 316 315 315 316 317 318 318 317 316 317 317 317
315 317 318 314 314 318 321 319 317 315 315 315 316 317 317 317 316 316 315 315 314 313 313 314 315 315 315 317 317 316 315 315 315 320 324 319 317 318 319 318 317 316 317 317 317
315 316 316 313 316 319 316 315 310 312 313 314 314 316 316 316 316 315 315 315 315 314 312 313 317 316 315 314 315 314 315 317 317 316 315 317 317 317 317 318 317 317 317 317 318
313 314 315 310 319 315 312 311 311 311 312 313 315 315 315 315 316 314 314 315 314 313 313 315 318 322 316 314 314 314 314 314 316 321 321 322 322 318 317 317 317 317 317 317 317
312 314 313 311 312 312 312 312 312 311 311 312 313 313 314 315 314 314 315 314 313 313 313 313 314 314 316 315 317 319 318 318 320 325 323 320 318 317 317 317 317 317 317 317 317
312 312 311 310 311 310 310 311 311 312 312 311 312 313 312 313 312 311 311 311 313 314 312 312 314 314 314 313 313 314 314 314 316 318 319 317 317 316 316 317 317 317 317 318 317
307 308 308 309 310 310 308 311 311 310 309 309 309 309 310 311 310 310 309 310 311 311 312 313 316 316 315 314 314 314 312 312 312 313 313 313 313 314 315 316 317 317 318 318 317
304 306 308 311 311 309 310 309 307 307 308 308 308 309 309 309 309 309 309 310 310 310 312 313 316 317 318 313 316 316 313 312 312 313 313 316 316 316 316 317 318 318 318 317 315

GFSSW_925_thetae_060.txt.gz
Theta_e
310 310 311 311 311 311 311 311 311 311 312 311 310 307 306 304 301 311 315 317 317 315 314 309 313 315 315 317 320 321 324 326 325 327 330 329 329 328 327 327 327 328 328 328 328
310 310 310 310 310 310 310 311 310 310 311 312 310 306 303 303 312 312 313 315 314 310 310 312 313 314 315 317 318 321 322 322 323 324 326 328 329 329 329 328 329 329 328 327 327
309 310 309 309 309 309 309 310 311 311 310 310 307 304 301 305 315 317 315 310 308 310 314 318 315 315 315 317 319 320 323 322 322 323 324 324 326 329 329 330 329 329 329 328 328
308 309 310 309 308 309 309 309 310 311 310 307 304 301 302 313 323 317 310 311 311 314 318 316 316 314 315 316 318 319 321 322 323 323 323 324 324 326 328 330 330 329 328 328 326
306 307 307 308 308 308 309 309 310 309 308 305 302 301 312 317 316 313 311 311 313 316 317 317 317 316 315 316 317 317 319 320 322 323 323 323 323 324 326 328 328 328 327 326 325
306 306 307 307 308 308 309 309 310 308 306 303 302 303 315 317 317 316 314 315 315 315 315 316 317 317 316 316 316 318 319 320 320 321 322 322 322 323 324 325 325 324 324 323 322
306 306 307 307 308 309 308 309 309 308 305 302 302 311 316 317 311 316 315 316 315 314 315 315 315 316 316 316 317 317 317 318 318 319 320 321 321 322 322 321 321 322 324 323 322
306 306 306 307 308 309 309 307 310 310 309 303 302 312 318 315 314 314 316 316 315 314 313 314 314 314 315 316 316 316 316 316 316 317 318 319 320 321 321 321 321 321 322 322 322
306 307 306 307 308 308 308 309 308 308 309 303 311 315 321 311 311 313 314 315 315 314 314 313 314 313 315 315 315 316 317 316 316 317 317 317 317 317 318 319 320 321 322 320 322
305 307 307 307 308 307 310 311 315 313 309 312 316 319 319 318 311 313 314 315 314 313 314 314 314 314 315 315 318 316 317 317 317 318 316 316 316 317 317 318 318 319 319 320 321
305 307 308 307 307 308 311 316 320 322 320 321 320 319 318 316 315 315 314 314 313 313 314 315 315 315 316 317 316 316 317 317 319 319 318 318 318 318 318 319 319 320 321 321 322
305 307 306 306 309 309 309 320 315 315 317 318 319 316 316 316 315 315 314 314 314 314 315 315 316 316 316 316 317 317 317 317 317 318 317 317 317 318 318 320 320 321 321 321 321
306 307 306 308 310 310 317 315 314 315 317 319 316 315 315 315 315 316 315 314 313 315 315 316 316 316 315 315 315 316 315 315 315 316 317 317 317 317 317 318 319 320 321 321 322
304 307 307 309 312 316 318 316 314 316 320 322 316 315 315 315 315 315 315 315 314 314 315 315 315 315 314 314 314 315 315 315 315 316 316 316 318 318 319 319 320 320 320 320 320
299 309 307 308 313 318 315 314 315 317 331 319 316 316 315 315 316 315 315 314 314 315 315 316 315 315 314 314 314 314 315 315 314 315 315 315 316 317 318 318 318 318 317 317 318
298 307 309 313 314 318 316 315 318 326 333 320 316 315 315 316 316 316 315 315 314 315 315 316 316 316 315 315 314 315 315 315 315 315 317 315 316 317 318 318 318 318 317 316 316
299 299 309 311 316 316 316 317 324 329 322 319 318 316 316 316 316 316 316 316 317 317 318 318 317 316 316 315 315 314 316 315 317 318 319 317 318 319 319 318 318 318 317 317 317
302 302 310 312 314 315 316 320 325 323 322 319 317 316 316 316 317 317 317 317 317 318 319 322 323 320 319 321 319 315 316 318 320 322 321 319 323 319 319 318 317 317 316 316 317
306 314 315 317 318 314 318 322 323 321 320 317 315 316 317 317 317 318 317 317 317 319 319 321 321 318 318 318 319 318 315 315 319 320 322 318 319 321 319 318 317 317 317 317 318
305 317 318 320 317 315 319 321 321 320 318 317 317 316 317 318 318 317 317 318 318 318 316 315 315 314 315 318 319 317 316 317 319 322 319 316 317 317 321 320 318 317 317 317 318
310 320 320 318 316 316 319 320 319 318 315 315 316 316 316 317 317 317 316 317 318 317 317 315 315 316 314 314 317 318 317 316 319 322 326 322 320 321 321 321 320 318 317 317 318
311 319 318 314 312 316 322 317 312 313 314 313 314 315 316 317 317 316 315 316 316 316 317 316 317 319 314 315 314 315 317 318 322 322 318 319 318 319 320 319 320 320 318 317 317
312 316 317 313 318 316 315 313 313 313 313 314 314 314 315 315 315 315 315 315 315 316 316 317 317 317 316 316 317 318 319 318 320 323 324 326 322 318 320 320 319 318 318 318 320
314 314 315 314 314 314 314 312 313 313 312 313 314 313 314 315 314 313 312 314 315 314 313 313 314 314 315 313 317 317 317 316 317 324 325 321 319 318 318 318 319 319 318 319 320
314 314 314 313 313 314 313 312 312 313 313 312 311 312 311 311 312 312 312 311 312 315 314 316 317 314 312 312 312 316 317 316 317 316 322 318 317 316 317 318 317 319 318 318 319
311 310 311 312 314 314 313 312 313 312 310 309 310 310 311 312 312 311 310 310 310 312 315 315 320 317 315 314 314 314 313 314 314 314 314 317 320 315 316 317 319 317 318 318 319
306 305 308 311 314 314 313 310 309 308 309 309 309 310 310 310 310 310 311 311 311 311 312 312 315 316 316 313 314 317 315 315 315 315 312 313 317 317 317 318 318 319 317 318 316

GFSSW_925_thetae_063.txt.gz
Theta_e
310 310 310 310 310 310 310 310 311 312 311 311 311 309 308 305 301 306 313 309 315 316 315 315 310 309 314 313 314 315 317 318 320 324 324 324 324 322 322 324 325 327 327 328 327
310 310 310 310 310 310 309 309 310 311 312 312 311 309 306 303 306 312 304 311 314 314 314 311 308 309 311 312 312 313 316 317 319 320 321 321 321 322 325 325 326 327 327 327 327
307 308 308 309 310 309 309 308 310 310 311 311 310 309 304 304 313 314 315 310 314 309 309 312 317 314 310 310 311 313 315 317 319 319 319 320 321 321 324 325 326 326 327 327 325
307 307 308 308 308 308 309 310 310 310 311 310 310 309 303 310 320 317 314 313 309 309 314 318 317 312 311 310 311 312 315 317 318 320 320 320 320 321 322 328 327 328 327 327 323
305 306 307 307 308 308 309 310 310 310 310 309 309 308 310 315 315 314 310 310 311 311 317 318 314 313 310 311 311 312 314 316 317 319 319 319 321 321 320 328 327 326 326 326 323
306 307 307 307 308 309 309 310 310 308 308 307 308 307 313 315 315 316 311 311 312 315 316 314 313 313 314 313 313 313 313 314 315 314 316 319 319 319 320 321 324 324 324 323 322
306 306 307 307 308 309 309 309 308 308 309 306 308 311 313 313 316 315 314 315 315 314 315 314 314 313 312 312 313 313 313 313 314 315 316 316 317 319 319 319 320 319 319 321 320
306 307 307 307 309 309 309 308 309 309 309 309 307 312 314 313 315 314 315 316 316 315 314 314 313 312 312 311 312 312 313 313 312 314 315 316 316 317 318 318 319 319 318 318 319
304 307 308 307 307 308 308 310 311 309 309 306 308 312 316 316 312 313 314 316 316 315 314 314 313 312 311 311 310 311 311 312 313 314 314 314 315 316 317 316 315 316 318 318 317
299 305 307 306 307 308 310 311 312 314 311 311 313 316 318 319 313 311 313 314 315 313 313 312 311 310 309 309 311 312 312 313 314 315 314 314 314 315 315 315 314 317 317 318 319
296 305 306 305 307 309 310 315 316 318 318 318 320 319 319 315 313 313 314 314 314 312 311 311 310 311 311 312 313 313 314 314 315 316 316 313 314 316 316 316 315 314 315 316 317
297 304 306 306 308 309 308 315 315 314 314 317 319 320 319 316 316 316 315 313 313 312 312 311 311 313 314 315 315 315 315 315 315 315 314 314 317 316 316 316 315 315 316 315 316
298 301 307 308 309 310 311 318 316 315 315 316 317 319 316 314 315 315 314 313 313 312 313 312 314 315 315 314 315 313 314 314 314 314 314 314 315 316 316 315 314 315 314 316 315
299 298 307 308 310 314 315 316 314 316 315 321 317 315 314 314 315 315 315 313 313 312 312 312 313 314 314 315 314 312 314 314 314 314 313 315 314 314 315 315 315 315 315 314 316
300 300 303 308 309 313 318 316 315 318 329 320 317 315 314 314 315 315 315 314 314 313 312 313 314 314 314 315 314 313 314 313 315 313 312 312 312 313 314 314 314 315 315 314 313
301 301 302 309 312 314 316 316 316 324 332 320 315 315 314 314 315 315 314 314 313 313 312 313 313 314 314 315 315 315 315 314 313 311 312 313 313 313 313 314 315 315 314 314 313
303 304 307 304 312 314 315 315 320 327 324 320 317 317 315 315 315 315 315 313 312 313 314 314 315 316 319 319 314 314 313 313 314 314 314 313 316 314 314 315 315 315 314 312 313
305 309 309 303 310 314 315 318 323 322 323 322 318 315 314 314 315 316 317 316 316 317 321 322 323 320 319 321 323 322 320 316 318 320 319 318 323 321 319 318 316 314 313 314 312
305 308 315 317 317 317 315 320 322 322 320 318 317 317 316 316 316 316 317 318 318 318 320 321 324 319 320 319 320 321 320 318 317 314 319 318 318 317 317 319 316 315 314 314 313
304 309 319 319 319 316 317 319 318 318 318 315 315 316 315 315 315 315 316 317 318 317 316 319 321 316 315 316 317 318 318 321 321 323 321 319 319 316 322 320 318 317 315 314 315
307 317 320 318 316 316 317 317 318 318 314 314 314 313 314 315 315 316 316 315 316 316 316 316 318 318 316 316 315 316 319 320 320 322 320 322 319 319 320 319 317 316 316 314 314
305 315 319 316 315 313 317 316 314 313 314 313 313 315 315 315 315 315 315 316 315 315 316 316 317 320 318 315 314 315 319 318 323 323 320 316 317 318 318 318 319 317 316 316 314
305 312 316 314 316 313 314 314 313 313 313 313 313 313 314 313 314 315 315 313 315 316 317 317 317 314 313 312 315 315 314 318 317 320 322 322 317 319 319 320 318 317 316 316 316
306 318 314 313 313 313 314 315 313 313 312 313 313 311 311 312 310 311 312 312 315 315 317 314 313 314 314 312 316 316 316 315 316 320 320 322 321 318 318 318 320 318 317 316 316
310 314 312 313 311 312 314 314 314 313 311 310 310 309 309 311 311 311 311 311 310 316 314 314 314 314 314 314 313 312 314 315 316 317 318 315 316 315 316 317 317 317 317 318 317
311 308 305 306 311 312 314 316 312 310 309 309 310 310 309 310 310 310 310 310 311 311 314 313 312 316 316 313 313 314 314 314 315 315 315 316 316 316 314 314 316 316 316 316 316
304 305 305 308 310 313 314 312 311 310 309 308 308 309 309 310 309 308 308 308 309 310 309 310 311 312 313 313 313 313 318 318 318 317 318 319 316 316 316 316 314 313 313 313 314

GFSSW_925_thetae_066.txt.gz
Theta_e
309 308 309 309 309 310 310 309 309 310 310 311 312 312 312 311 304 304 309 303 310 314 308 312 315 310 309 309 313 314 313 316 317 318 319 320 322 321 320 322 323 327 327 327 326
308 308 308 308 308 309 309 309 309 310 311 311 311 312 311 310 309 310 306 304 306 312 316 314 311 308 307 310 311 310 310 314 316 317 318 318 319 318 319 320 323 325 325 326 324
307 307 307 308 308 308 308 309 310 311 311 311 310 311 310 308 311 314 316 308 307 313 313 310 310 315 312 309 310 310 313 313 314 316 317 318 318 317 319 319 321 326 325 324 322
306 307 308 308 308 308 309 309 310 310 311 311 310 310 308 310 312 316 315 312 312 311 309 316 316 316 310 310 308 309 311 312 314 315 316 318 318 319 319 321 323 324 324 322 321
307 307 307 307 308 308 309 309 310 310 310 309 310 309 310 314 313 306 314 313 310 311 314 316 318 314 312 309 309 309 310 311 313 314 315 316 318 318 319 320 322 324 325 324 319
306 307 307 307 308 308 309 309 310 309 310 310 311 309 312 313 307 315 311 310 311 311 313 314 314 310 311 310 311 311 311 311 311 311 311 314 316 317 318 320 326 325 324 323 321
305 306 308 308 308 309 309 309 308 309 310 311 309 310 312 309 313 315 311 312 312 313 314 315 313 311 310 310 310 311 311 310 311 312 313 315 314 316 317 318 319 319 318 321 320
299 302 306 308 308 307 308 308 309 310 310 311 306 312 309 307 312 312 311 314 314 315 314 314 313 311 311 309 310 310 310 310 310 313 312 314 313 314 315 317 317 317 317 318 320
296 298 305 306 306 308 308 309 310 313 308 308 308 311 312 317 316 316 314 314 315 315 315 314 312 310 310 309 307 307 309 310 310 311 312 312 313 314 314 315 315 315 315 316 315
298 298 305 305 306 308 309 310 312 313 313 312 312 312 314 320 313 315 312 313 314 313 311 312 308 309 306 306 308 309 310 310 311 312 312 311 312 313 313 314 315 313 312 314 315
299 299 304 306 307 308 309 311 313 316 315 314 316 315 317 319 315 311 312 313 313 311 310 309 308 308 309 309 310 310 311 311 312 312 314 312 311 312 312 313 312 312 312 313 314
302 301 300 307 308 309 309 311 316 313 311 316 317 315 317 318 319 313 314 313 312 311 310 309 309 310 311 312 312 312 312 312 312 313 313 311 312 312 313 313 312 312 313 313 312
304 303 301 305 308 309 312 313 316 316 313 315 316 317 318 318 318 315 313 312 312 311 311 310 311 312 313 312 313 313 312 312 312 313 312 312 312 313 314 313 313 312 312 313 313
306 304 303 302 310 311 311 316 316 315 314 318 318 316 314 313 314 314 314 312 311 312 310 309 310 311 312 313 313 311 311 313 313 312 312 313 311 311 313 313 312 311 311 310 312
307 305 305 303 305 309 315 315 315 315 326 323 315 314 312 313 314 314 314 312 312 312 311 312 312 311 312 313 313 313 312 314 314 312 311 311 310 310 311 312 311 311 311 311 311
309 306 304 306 309 311 313 314 314 321 329 323 315 314 312 313 314 314 314 312 312 311 311 310 311 312 313 317 315 315 313 312 311 309 312 311 311 312 311 311 311 312 312 312 310
310 308 307 308 308 311 311 313 317 324 324 323 321 315 312 313 314 314 313 312 312 311 312 317 315 316 317 319 317 318 312 311 312 311 314 315 317 313 312 315 316 316 315 312 311
310 309 312 314 303 306 314 315 321 321 322 319 316 316 315 314 314 315 314 313 313 316 319 322 321 320 319 321 322 322 322 323 317 315 314 316 318 316 317 317 316 312 311 310 311
310 308 312 318 311 310 311 317 319 321 319 316 315 315 315 313 314 314 314 316 318 317 320 323 324 319 318 317 320 321 321 320 322 321 317 313 315 315 315 317 316 316 312 310 311
307 308 312 318 317 315 312 317 317 317 316 316 314 314 313 312 314 313 314 316 317 316 315 318 319 317 316 316 318 319 318 319 320 323 323 316 317 316 319 317 317 316 316 314 312
304 309 317 319 318 311 314 315 316 316 312 313 313 313 313 314 313 313 314 314 315 315 314 315 316 316 315 315 317 317 318 317 317 320 322 321 316 316 318 318 318 317 317 313 313
302 307 313 317 313 311 312 315 311 313 312 312 313 312 313 313 313 313 314 314 315 315 316 314 314 316 316 313 314 316 318 317 318 319 322 318 316 315 317 318 317 317 317 316 315
305 305 313 313 314 312 311 314 313 312 312 312 312 312 310 310 311 314 312 313 315 314 315 314 312 311 311 310 313 314 315 318 316 316 317 322 321 316 317 316 317 316 317 317 316
302 312 310 309 310 310 312 315 315 314 312 309 309 309 308 309 309 309 311 311 313 314 317 313 310 311 312 312 309 314 314 315 315 315 316 320 318 316 316 316 316 316 316 316 317
305 310 305 308 308 309 311 313 312 311 309 308 308 310 309 309 309 309 310 310 310 318 316 310 312 312 313 314 314 313 313 312 316 314 316 314 314 314 317 315 314 314 316 316 315
309 304 303 304 306 312 314 314 313 311 307 308 307 309 307 308 309 310 309 308 309 308 308 309 308 315 315 312 311 313 312 313 313 315 315 315 316 316 314 313 313 310 310 311 313
301 303 303 305 308 312 314 314 313 310 307 306 306 307 308 308 308 306 305 305 306 308 307 307 308 309 312 312 313 313 318 318 317 317 317 318 315 314 311 311 310 309 308 309 309

GFSSW_925_thetae_069.txt.gz
Theta_e
308 308 309 309 309 309 308 308 309 309 310 310 310 311 310 309 308 306 308 303 308 304 303 310 312 312 309 309 310 311 312 313 316 317 319 318 319 320 319 319 319 321 326 325 325
307 307 308 308 309 308 308 309 309 309 310 310 310 310 309 309 308 309 308 305 304 311 315 313 313 307 305 309 310 311 310 313 314 316 316 316 316 317 318 318 318 319 324 324 322
307 308 308 308 308 308 308 309 309 310 310 310 310 310 309 309 307 310 316 311 304 305 312 311 311 314 311 309 309 309 313 312 313 314 314 315 316 316 317 316 316 317 322 322 319
306 307 308 308 308 308 308 309 309 310 310 309 309 309 309 309 305 314 313 309 305 313 314 311 314 316 311 309 307 310 310 310 312 312 313 315 316 316 317 317 316 319 321 321 318
306 307 308 308 308 308 309 309 309 310 309 309 309 309 310 312 310 306 313 312 311 311 311 314 316 313 313 310 309 308 308 309 310 310 311 312 314 315 316 317 317 318 320 321 319
300 305 307 308 308 308 309 309 309 309 310 310 310 310 311 307 306 311 312 312 310 311 313 314 314 311 310 310 309 310 310 310 309 309 309 311 313 313 315 316 317 318 322 321 319
299 298 303 306 307 308 308 307 308 309 310 311 310 310 311 306 312 314 313 310 310 311 312 313 314 311 310 309 309 310 310 309 310 311 310 310 312 313 313 315 317 319 322 319 320
299 299 299 305 305 308 308 308 309 311 310 312 309 311 307 306 312 313 312 311 312 312 312 313 313 309 310 309 308 308 308 309 309 311 311 312 312 312 314 315 316 316 316 316 317
302 301 299 304 306 308 309 309 310 311 311 311 309 311 312 315 316 314 313 312 314 314 314 313 312 309 308 307 306 305 308 309 309 309 311 311 311 312 311 311 313 314 315 315 315
306 304 301 301 306 308 309 309 311 313 314 310 312 312 313 318 318 314 314 314 313 312 310 311 306 307 304 305 308 307 308 308 309 310 311 310 311 310 310 311 311 310 313 313 314
308 306 303 301 305 307 308 310 311 312 314 313 313 314 314 315 316 311 312 312 312 311 311 308 307 307 307 307 308 309 309 309 310 310 311 311 311 310 310 310 310 310 309 310 310
309 309 306 305 302 307 308 309 314 312 314 313 315 312 314 316 317 317 311 311 311 311 310 308 308 308 309 309 310 310 310 310 311 311 310 310 311 309 310 310 309 309 309 310 311
310 309 308 307 304 307 311 312 314 313 314 313 315 316 315 315 317 318 312 311 311 311 310 309 310 311 311 310 311 311 311 311 311 312 311 311 310 310 312 312 311 311 310 311 310
310 310 309 306 306 310 309 315 313 313 316 319 316 316 315 315 314 316 313 312 311 310 309 309 310 310 310 311 311 310 311 311 312 311 310 311 312 310 310 311 310 309 308 308 308
310 311 309 304 305 307 313 313 314 313 325 323 316 314 311 313 314 314 313 311 311 311 309 310 311 311 311 311 315 312 313 312 312 311 310 310 309 309 310 310 309 310 309 309 307
311 311 307 306 307 305 310 313 314 320 327 324 314 312 312 312 313 313 313 311 311 310 310 310 310 311 311 316 317 316 314 310 308 307 311 310 309 312 311 310 310 310 309 310 310
311 312 307 307 304 311 309 311 316 321 321 321 318 314 312 312 313 313 313 311 312 310 313 316 316 316 317 319 317 318 316 315 314 312 314 311 311 313 312 311 312 313 313 312 312
311 312 307 310 309 310 313 315 320 317 320 317 315 314 314 313 313 314 313 313 314 313 317 319 320 318 318 319 319 319 321 325 326 316 315 313 315 313 314 314 314 313 312 309 308
310 309 308 315 309 313 311 316 314 320 318 315 314 314 314 312 313 313 313 316 317 316 318 321 322 318 318 317 318 320 322 320 325 322 324 317 313 314 313 314 313 315 314 312 310
308 304 309 316 314 313 312 313 316 316 315 313 314 313 312 312 313 313 313 316 317 315 313 316 317 316 316 314 315 318 316 319 320 324 326 317 315 315 313 313 315 316 313 313 312
305 303 312 316 316 312 314 314 315 314 312 312 313 312 313 313 313 313 313 313 315 314 313 314 314 313 313 315 315 316 319 319 318 320 322 320 315 311 316 316 315 315 315 314 312
303 308 309 312 314 308 312 312 312 313 312 312 312 312 313 312 311 312 313 312 314 314 315 313 312 314 313 311 313 313 316 317 315 320 321 321 316 315 315 314 314 314 315 315 315
304 302 310 311 312 309 311 313 314 314 314 311 310 310 309 309 309 312 311 312 314 314 314 313 309 310 310 307 309 313 314 315 314 313 316 318 313 316 317 314 313 314 314 313 315
301 306 305 305 305 309 311 313 315 312 310 308 309 308 309 309 308 309 309 310 310 313 316 311 308 309 311 310 308 310 312 314 313 315 314 317 315 313 314 316 316 313 312 310 314
305 307 302 304 307 307 314 314 316 313 310 308 308 309 308 308 308 307 309 309 309 317 314 308 311 310 310 311 312 313 313 312 312 313 314 313 312 314 315 314 313 310 309 308 309
303 305 302 302 303 309 314 316 316 314 311 309 306 307 307 306 308 308 308 307 307 307 309 307 308 312 314 313 312 312 312 312 316 313 313 314 317 315 312 310 310 309 309 308 308
301 302 304 308 308 310 312 315 315 312 311 309 307 308 308 307 306 306 305 304 306 307 305 305 308 307 311 311 312 312 318 318 316 317 317 318 315 313 311 310 309 308 308 308 307

GFSSW_925_thetae_072.txt.gz
Theta_e
308 308 308 309 309 309 309 309 309 309 309 310 310 310 310 310 308 306 306 302 306 303 306 305 311 311 309 308 309 309 310 312 315 316 319 317 317 318 318 317 317 318 319 322 323
307 308 308 308 309 308 309 309 309 309 310 310 310 310 309 309 308 308 305 305 307 308 304 307 312 306 305 309 309 310 309 312 312 315 316 315 316 315 316 316 316 316 316 321 325
307 308 308 308 309 309 308 308 309 309 310 310 310 309 309 310 306 304 314 314 303 308 312 311 310 310 306 308 309 310 310 311 312 314 313 314 314 314 316 316 315 316 316 320 320
306 307 308 308 308 308 308 309 309 310 310 309 309 308 308 309 309 309 311 307 303 305 313 309 311 314 311 310 308 310 309 311 311 311 313 313 313 314 314 315 315 315 315 318 319
300 302 306 308 308 308 309 309 309 309 309 309 308 308 308 308 306 308 312 305 311 314 310 313 314 311 312 309 308 308 308 309 309 308 308 310 311 312 313 313 313 314 314 317 318
303 302 302 305 308 308 308 309 308 309 309 309 309 308 310 303 305 313 313 309 312 310 311 312 313 311 311 309 309 309 308 309 309 309 308 310 310 310 312 313 314 314 315 314 317
306 304 304 301 305 307 308 308 308 309 310 310 310 309 310 302 309 309 314 311 310 310 310 312 313 311 308 309 308 309 309 308 309 310 310 308 311 310 311 311 311 312 313 319 318
307 305 304 301 303 307 307 308 308 309 311 311 310 311 306 307 308 311 313 311 310 310 311 312 312 309 308 308 306 308 306 308 308 309 310 310 312 311 310 312 314 314 314 314 316
309 307 306 304 302 304 307 308 309 309 312 311 309 309 312 314 314 313 313 312 312 312 312 313 311 307 306 306 304 303 307 308 307 307 309 309 310 310 310 311 311 311 312 312 313
310 310 309 308 304 303 304 309 311 313 313 310 311 310 311 317 317 314 315 312 313 312 309 309 305 306 303 305 307 306 307 307 308 309 309 308 309 308 309 309 308 308 309 310 312
310 310 311 311 306 303 304 309 309 310 314 312 312 311 312 314 315 310 313 312 311 310 310 307 307 307 307 306 307 308 308 308 308 309 309 308 309 309 308 308 308 307 306 308 310
309 310 311 311 307 304 305 308 313 313 313 313 314 312 312 313 315 315 310 310 310 310 308 307 308 307 307 308 308 308 308 309 309 309 308 308 309 308 308 308 308 308 308 307 307
309 309 311 311 306 305 308 312 313 312 313 313 314 314 313 313 314 315 309 309 311 310 308 308 309 309 309 310 310 309 309 309 310 310 309 309 310 309 309 308 309 309 308 308 308
308 307 310 311 307 309 308 313 311 312 315 318 315 316 315 315 315 315 312 312 311 310 308 309 308 310 309 309 309 310 309 310 311 310 311 309 312 309 309 309 309 309 307 306 307
307 307 309 307 306 304 311 310 312 313 322 320 316 314 312 314 313 313 312 311 311 310 309 310 310 310 310 310 315 314 314 314 314 312 309 310 308 311 309 309 308 308 308 308 306
306 307 309 307 306 308 307 311 313 320 323 322 312 312 313 312 312 312 312 311 311 310 309 309 309 310 310 314 315 315 316 314 306 306 311 312 309 312 312 308 308 308 308 310 310
306 307 309 305 307 309 307 311 317 323 317 318 315 314 311 311 312 312 312 311 311 311 310 313 313 315 316 317 316 315 315 316 318 311 317 310 309 311 311 310 309 309 310 310 308
308 310 306 307 308 309 312 314 319 315 319 316 314 313 313 313 312 313 313 313 314 311 313 315 314 316 317 316 316 317 316 316 318 318 316 316 315 313 312 312 311 312 312 311 311
308 309 309 313 312 310 309 317 313 318 316 314 314 314 313 311 312 312 312 314 316 315 314 319 320 317 317 317 316 317 319 316 320 320 322 318 316 313 312 314 314 313 312 313 312
306 304 309 314 311 311 309 310 315 316 314 312 313 313 313 312 313 312 312 314 316 314 311 314 315 315 315 313 314 316 315 320 321 322 319 318 315 316 315 316 314 313 313 311 311
305 305 310 312 313 309 311 314 314 314 313 312 312 312 313 313 312 312 312 312 314 314 312 313 312 312 312 312 312 314 316 316 319 320 321 321 318 315 318 316 315 313 312 311 311
303 308 309 311 315 305 309 310 312 315 313 313 311 312 312 312 311 312 313 311 313 313 315 312 311 313 311 309 309 312 313 312 310 308 312 309 313 315 317 315 313 313 310 309 309
302 302 308 308 314 309 308 312 314 315 314 311 310 309 308 309 309 311 310 312 313 313 314 313 309 309 309 305 308 313 314 313 311 310 313 311 312 314 314 314 313 311 309 308 308
303 307 302 301 303 308 312 314 315 314 315 311 308 308 308 308 308 308 308 309 308 312 315 311 307 308 309 307 306 310 310 311 310 306 312 313 312 311 312 314 312 310 308 308 307
303 305 301 303 304 306 308 314 314 317 313 311 309 307 307 307 308 308 307 308 308 317 311 307 311 309 309 309 309 310 311 311 311 312 314 313 311 310 313 312 310 308 308 308 307
302 303 302 304 305 305 311 313 314 316 313 313 312 309 308 307 307 306 307 307 307 308 312 306 309 311 312 311 311 312 311 310 312 316 316 315 315 312 312 309 309 307 307 307 306
301 302 303 307 309 310 312 313 314 311 312 312 311 310 309 309 307 305 303 304 306 306 305 305 308 306 310 309 310 311 313 317 315 314 315 316 313 309 308 307 307 306 306 306 306

GFSSW_925_thetae_075.txt.gz
Theta_e
308 308 309 309 309 309 309 309 309 309 310 309 310 310 310 310 308 308 307 303 307 303 309 309 312 310 309 311 312 312 319 320 320 320 321 318 319 319 319 320 320 320 321 321 323
308 308 308 309 308 308 309 309 309 309 309 310 310 309 309 309 308 307 307 303 304 306 307 305 313 309 311 312 313 316 318 319 316 318 319 318 317 318 318 319 319 320 321 319 328
308 308 308 308 308 308 308 309 309 309 309 309 309 309 308 308 307 307 313 313 312 309 307 312 309 308 309 311 312 313 316 314 315 316 316 316 316 316 317 317 318 318 320 320 320
308 309 308 308 308 308 308 309 309 309 309 308 308 308 308 309 314 306 309 315 308 309 311 310 313 312 311 311 311 313 312 314 315 315 315 315 316 316 316 317 317 317 318 319 319
308 311 309 307 308 309 309 309 309 308 308 308 309 308 308 310 308 307 308 305 304 309 312 311 314 315 313 312 311 312 311 312 312 312 311 312 313 313 314 314 315 316 317 318 318
308 308 307 304 302 306 309 311 309 309 308 309 309 308 310 307 304 313 308 308 313 311 310 315 316 314 314 312 313 311 311 312 311 312 312 312 314 313 314 315 316 316 317 318 319
309 309 309 308 305 302 306 308 310 309 310 310 310 308 311 306 306 311 311 311 311 310 311 312 314 313 311 312 311 311 312 312 313 313 313 313 314 313 314 315 315 317 317 318 318
309 309 310 309 309 305 303 305 307 309 309 311 310 309 309 306 307 309 315 311 310 309 311 312 312 313 312 310 310 311 311 313 313 311 312 312 315 315 314 314 315 316 317 318 319
309 309 310 310 310 307 304 304 311 309 311 311 309 310 313 313 314 314 312 312 311 311 311 312 312 311 310 312 312 310 311 311 312 312 312 312 313 314 314 315 315 315 316 316 317
308 308 308 310 310 308 304 310 311 313 312 310 311 313 313 317 315 315 313 312 314 313 311 312 311 313 311 312 311 311 312 311 312 313 312 313 314 314 314 315 315 315 315 316 316
307 307 307 307 310 307 306 309 313 314 315 317 314 313 314 314 314 312 313 312 313 313 314 310 313 314 314 313 312 311 311 312 313 313 312 314 315 315 315 315 315 316 316 316 316
307 307 306 307 309 306 304 310 314 313 315 314 315 314 313 313 315 315 313 314 313 314 312 313 314 313 311 310 311 312 313 313 313 313 313 315 316 315 315 315 316 316 317 316 317
305 306 305 307 309 307 307 311 313 312 316 315 314 315 315 314 315 315 311 311 312 313 313 314 313 310 311 312 312 313 313 314 314 315 315 315 316 316 315 314 315 315 316 316 317
304 304 306 307 307 305 309 311 311 311 318 318 316 316 315 315 315 315 312 312 312 314 312 313 312 312 312 312 312 314 313 314 316 318 317 316 318 317 316 315 315 315 316 317 316
302 305 307 306 308 307 310 308 311 313 322 321 317 314 315 316 314 316 313 313 314 313 312 314 312 312 313 313 313 314 316 318 318 318 318 316 318 316 315 315 315 315 316 316 317
305 308 306 308 306 308 306 310 313 320 320 320 314 315 316 315 313 313 314 313 313 314 312 313 311 312 313 314 316 317 319 318 315 316 318 317 318 316 316 316 316 315 315 315 315
307 307 307 306 309 307 308 313 318 318 318 318 315 314 313 313 314 313 314 315 316 315 316 315 314 314 315 315 318 318 318 318 317 317 317 316 318 316 316 315 315 315 315 316 318
307 309 306 308 307 309 312 317 317 315 318 315 313 315 315 313 314 314 314 315 315 312 315 315 316 317 318 316 316 317 317 317 317 313 313 313 315 313 316 317 317 317 316 318 318
308 309 309 311 311 310 315 319 315 318 315 314 313 314 318 315 313 314 314 315 317 315 316 320 320 318 317 318 317 319 318 319 317 317 319 315 316 315 318 319 317 317 317 318 318
306 305 308 310 311 311 314 311 316 314 313 313 313 314 315 315 317 314 314 315 316 316 314 316 317 315 316 315 316 318 317 319 321 320 316 313 315 317 319 318 317 316 316 316 316
307 312 308 311 311 315 316 315 314 315 315 314 314 314 313 313 313 314 313 314 315 316 315 317 316 313 315 313 311 317 319 319 319 319 318 315 312 319 318 315 316 315 316 315 313
305 313 309 310 318 310 312 312 312 315 316 316 314 312 314 313 314 315 314 313 314 315 316 315 318 317 313 311 311 313 314 316 319 317 316 317 314 312 313 317 315 315 314 313 313
308 308 308 308 319 313 313 314 313 315 315 314 316 310 309 311 312 312 312 312 314 315 317 317 316 313 311 311 313 315 316 316 317 316 316 316 312 314 316 313 312 314 314 313 312
309 312 308 306 306 310 310 313 315 313 315 315 312 309 309 310 310 312 312 311 309 311 314 315 314 312 312 310 311 313 312 314 315 317 314 314 313 312 312 313 313 315 314 313 311
307 307 304 309 310 309 307 312 313 315 314 313 315 313 311 309 309 309 310 309 309 316 314 315 314 314 313 312 312 313 312 312 313 313 315 314 314 314 316 316 315 314 313 311 311
308 308 306 308 308 309 310 312 313 314 313 314 314 313 312 312 310 311 310 310 309 312 316 312 317 314 312 310 310 312 312 312 312 313 314 314 316 315 314 312 312 312 311 310 310
301 303 306 307 308 308 311 311 310 308 310 311 313 312 313 312 311 311 310 309 308 311 312 312 314 312 311 311 312 314 315 314 316 316 316 316 314 314 313 311 310 309 309 309 309

GFSSW_925_thetae_081.txt.gz
Theta_e
312 312 312 311 310 310 310 310 310 310 310 310 311 312 312 311 309 312 316 313 312 310 309 315 313 312 315 318 319 320 320 321 323 325 327 328 327 326 327 327 326 326 327 328 326
310 311 312 310 310 309 310 310 310 310 310 310 310 311 310 309 311 313 312 310 308 305 311 316 315 315 316 317 319 320 320 320 321 321 322 324 323 323 323 328 327 327 327 325 326
309 310 310 313 312 309 309 310 310 310 310 310 310 309 308 309 317 319 314 313 309 304 313 314 316 316 316 318 319 320 320 320 321 322 322 322 322 322 321 323 325 327 327 326 325
308 307 308 310 312 312 308 308 311 310 310 309 308 308 307 313 319 320 309 311 309 310 313 313 317 316 317 317 319 319 320 320 321 321 320 320 320 320 320 321 320 321 322 322 323
307 307 307 307 308 310 311 308 308 310 309 309 309 309 311 318 316 318 310 309 315 315 314 316 317 317 317 318 318 319 319 319 319 320 319 319 318 318 319 320 320 319 320 320 321
306 307 307 307 306 307 309 311 307 307 309 309 310 309 315 317 311 316 316 317 317 316 315 316 317 318 319 319 318 319 319 319 318 318 319 318 318 318 318 319 319 319 320 320 321
304 306 306 306 306 305 308 310 310 306 307 311 311 312 317 318 311 315 315 314 316 314 316 315 318 318 319 319 319 319 318 318 319 318 319 319 319 319 319 319 319 319 320 321 321
300 302 303 304 305 305 307 309 307 306 307 311 311 314 320 314 312 313 317 317 316 314 315 317 317 318 318 318 317 317 318 318 320 319 318 317 318 320 319 319 318 319 319 320 320
299 300 301 303 304 306 308 308 312 311 310 311 315 317 322 313 312 313 317 317 315 314 315 316 317 318 318 317 317 318 318 319 319 319 318 317 318 319 319 319 319 319 319 320 320
298 299 301 303 307 308 308 309 313 314 313 315 316 320 321 318 316 315 316 317 315 316 317 317 318 319 318 317 317 318 317 317 317 318 317 317 317 318 318 319 319 319 319 319 320
299 299 303 307 308 308 309 315 322 324 319 322 321 320 318 319 317 317 316 317 316 317 318 318 319 319 318 318 317 317 318 318 318 318 318 318 319 319 319 319 320 320 320 320 320
301 301 305 307 308 307 309 317 317 317 320 322 321 319 318 318 319 319 317 318 318 319 319 320 319 318 318 318 318 318 317 318 318 318 319 319 320 321 321 321 321 321 321 320 321
301 303 305 306 308 311 315 316 315 318 321 321 320 320 319 318 319 318 318 317 318 319 319 320 320 317 316 318 317 318 318 319 319 319 319 319 321 321 321 322 322 321 321 321 320
304 305 305 306 311 317 317 315 315 317 324 323 321 319 319 318 319 318 316 318 318 318 319 319 319 318 317 316 317 318 318 318 318 319 321 322 323 323 322 322 322 321 321 321 321
307 307 305 305 312 317 314 315 316 319 334 323 320 318 318 319 319 318 317 316 317 317 318 319 318 317 317 318 318 318 319 320 320 321 323 323 324 323 322 322 321 322 321 321 320
307 307 308 313 313 314 314 315 318 328 329 323 320 320 318 319 318 319 319 317 318 318 318 318 319 318 318 318 318 318 319 320 321 322 324 323 324 323 321 320 320 320 321 320 320
308 308 310 313 316 313 315 319 328 325 321 322 320 319 320 319 319 318 318 319 319 319 319 318 320 319 319 319 319 319 322 326 326 325 325 323 321 320 319 319 320 321 320 321 322
309 311 314 314 314 315 318 325 328 320 322 321 320 320 321 320 318 319 318 319 319 319 320 321 323 322 320 320 321 321 323 326 327 326 324 322 320 318 318 320 320 320 320 319 320
309 318 316 314 316 318 323 326 325 323 320 320 319 319 322 322 322 321 321 320 319 320 320 322 324 321 320 319 320 320 323 321 323 322 320 318 318 318 318 321 321 320 318 318 318
310 318 317 315 318 321 325 323 321 319 319 319 321 320 321 324 322 321 322 321 320 320 320 321 324 321 320 319 319 319 318 320 321 324 323 318 317 315 318 318 317 317 316 317 317
314 322 316 317 319 324 326 324 321 319 318 320 321 321 321 320 320 321 321 319 318 318 318 318 321 322 319 319 319 320 320 318 319 321 324 322 316 317 317 317 317 316 316 317 318
318 323 316 317 325 323 322 321 313 318 319 319 319 320 321 320 319 320 319 320 317 317 318 319 321 322 321 320 317 317 317 316 320 322 321 322 321 318 317 316 316 316 316 317 318
318 318 316 316 324 324 321 319 318 318 319 318 319 319 320 321 319 319 320 318 317 316 319 320 321 321 321 320 317 317 315 315 316 318 321 325 320 317 317 317 317 316 317 317 317
317 320 318 317 318 320 320 320 319 318 317 318 318 319 319 318 318 318 318 317 315 315 313 314 318 319 320 319 317 316 315 315 316 324 319 318 317 318 317 316 317 318 318 317 317
316 319 315 320 319 317 318 318 318 318 317 317 318 319 320 321 319 318 317 317 316 316 314 315 318 317 316 316 315 314 314 314 314 315 317 316 316 316 316 318 318 317 317 316 314
315 314 314 315 315 316 314 317 317 316 315 317 318 317 318 318 318 320 319 319 317 316 316 316 321 317 316 315 314 314 313 313 314 314 314 317 318 317 316 316 315 314 312 313 312
312 312 314 313 315 315 316 314 314 313 313 314 314 315 317 315 314 315 316 316 318 319 318 318 320 320 319 316 316 316 317 318 317 316 317 318 317 316 315 314 312 311 312 312 312

GFSSW_925_thetae_084.txt.gz
Theta_e
309 311 311 314 313 312 310 311 311 311 311 312 312 312 312 311 310 312 315 314 314 314 313 310 315 314 312 315 317 319 321 324 325 326 328 329 331 332 330 328 329 328 327 328 327
308 308 308 308 311 312 312 310 311 311 311 311 312 311 311 310 311 313 313 314 314 311 309 312 318 315 313 315 317 319 320 319 321 323 325 327 328 328 327 326 328 329 329 326 327
307 308 308 307 306 307 310 311 309 310 311 311 310 310 309 310 317 320 317 315 312 310 308 313 316 316 315 316 317 318 320 320 320 321 322 323 323 324 324 325 326 330 330 328 329
305 306 307 307 307 306 306 309 311 309 311 310 310 310 310 313 323 321 313 313 311 311 310 314 317 317 316 316 317 318 319 320 321 321 322 322 322 322 322 322 323 324 323 323 324
302 304 305 306 306 306 305 306 308 311 308 310 310 310 312 319 320 316 310 308 310 311 311 316 316 318 316 317 318 318 319 320 320 320 321 321 321 321 319 320 320 321 321 321 322
300 300 301 302 304 304 305 306 308 310 309 308 310 310 315 320 314 318 317 314 317 315 314 316 318 318 318 318 319 319 319 320 320 320 320 319 319 319 319 319 319 320 320 320 320
298 299 300 301 302 304 305 307 308 309 308 308 311 314 317 319 315 315 317 318 318 316 318 317 317 318 318 319 320 319 319 320 319 319 319 319 319 319 319 319 320 320 320 321 322
298 298 299 300 302 306 307 308 308 309 308 309 311 315 320 318 317 317 317 316 317 317 316 315 317 319 319 319 319 319 319 319 320 319 319 319 319 320 321 320 320 320 319 320 322
300 300 301 302 305 307 308 308 309 312 310 312 315 318 321 315 314 313 315 317 318 316 315 317 318 318 318 318 319 319 318 319 319 320 320 319 319 319 320 320 319 320 321 321 321
307 303 301 302 305 306 307 310 312 314 313 315 318 321 321 320 317 313 315 317 318 316 317 317 317 318 319 320 317 318 318 318 319 320 319 318 318 318 319 319 320 321 320 320 321
310 306 305 307 306 307 308 314 321 322 320 323 322 320 319 319 318 317 316 318 318 316 317 319 318 319 319 319 318 318 318 319 319 319 318 318 319 319 320 320 320 321 321 323 322
311 309 307 307 306 307 307 316 319 317 320 322 323 320 319 319 319 319 316 318 318 318 318 320 320 319 319 319 319 319 318 319 319 318 319 319 320 320 320 321 322 323 324 324 324
310 310 307 306 308 311 314 318 317 316 321 322 322 322 320 318 319 320 318 318 319 319 320 320 320 320 318 318 319 319 319 319 318 319 320 320 320 321 321 322 323 323 324 322 324
310 310 307 308 313 319 319 317 316 318 323 324 320 320 320 319 319 320 318 318 317 318 319 320 320 320 319 317 317 319 319 318 319 319 319 320 323 323 323 323 323 323 324 323 323
310 309 307 308 312 319 316 316 317 319 339 324 321 319 320 319 320 319 319 318 319 318 317 319 319 318 319 318 319 318 319 319 320 321 322 322 323 323 324 323 323 324 323 323 322
310 309 307 315 314 316 315 316 319 328 336 325 321 320 319 319 319 319 319 318 318 317 318 319 319 319 318 319 319 319 319 320 321 322 323 323 324 324 324 322 322 322 322 321 321
309 309 309 312 320 316 316 320 329 333 323 325 322 320 320 320 320 319 320 320 319 320 320 319 319 318 319 320 319 320 321 323 325 328 328 325 326 326 322 321 321 321 320 320 320
309 311 314 314 317 318 319 324 333 326 323 322 321 322 322 322 321 321 321 321 321 320 321 323 324 322 322 324 321 321 323 327 330 329 326 324 324 322 320 320 321 320 320 320 320
309 316 320 319 317 319 324 329 329 325 321 321 321 322 320 324 323 323 323 323 322 321 323 325 323 324 322 322 321 321 323 322 325 324 325 323 321 321 319 322 322 321 321 319 320
308 316 322 318 317 321 326 328 325 321 320 321 322 322 322 325 327 324 324 322 322 321 321 323 326 322 323 323 320 320 321 322 321 327 326 323 320 319 319 318 318 318 317 317 318
312 324 319 319 319 323 328 326 324 320 319 320 322 323 322 322 322 323 323 322 320 321 321 322 322 323 321 322 320 320 321 321 322 324 324 323 321 320 319 318 318 317 316 317 319
316 324 319 318 323 326 326 323 315 318 319 319 320 321 321 322 322 322 321 322 321 319 320 320 324 326 322 320 320 320 319 320 327 325 325 328 324 320 319 318 319 317 319 318 319
318 320 319 317 322 324 324 321 319 319 319 319 319 320 321 321 322 322 320 320 320 320 319 322 325 327 323 321 319 320 318 317 317 320 320 323 320 318 318 318 319 319 318 319 320
317 320 321 318 318 320 321 320 320 320 318 319 319 319 320 321 320 320 320 319 320 317 318 316 319 322 324 322 322 322 320 318 317 322 318 317 317 317 317 320 320 319 317 316 315
317 319 319 320 321 320 319 319 319 320 319 317 319 320 320 321 321 322 322 321 320 320 316 317 319 319 319 318 317 318 317 316 315 315 316 315 315 315 319 319 317 316 315 313 313
317 316 315 315 317 317 316 319 319 318 316 318 318 317 318 320 319 319 318 320 321 319 317 317 320 320 321 318 317 316 315 314 314 314 314 314 317 317 318 316 316 315 313 313 313
313 313 315 316 316 317 318 317 316 315 315 314 315 315 316 316 316 315 315 316 318 320 321 321 322 323 323 319 318 319 318 318 320 319 317 317 316 317 317 315 315 314 313 312 311

GFSSW_925_thetae_087.txt.gz
Theta_e
308 308 308 308 307 307 308 313 311 311 312 312 312 313 313 312 310 310 312 311 312 312 313 313 311 311 313 308 310 312 313 315 317 322 323 322 328 329 330 331 329 328 326 326 326
305 306 307 308 307 307 306 306 311 310 310 312 311 311 311 310 310 311 308 309 313 314 313 311 308 312 308 309 309 311 312 314 315 318 319 320 324 328 330 331 328 328 328 329 327
302 302 304 305 306 306 306 306 306 311 311 311 311 310 309 309 314 318 317 315 313 314 311 308 310 313 310 308 310 312 313 314 317 317 317 318 321 327 329 329 328 328 327 325 326
300 300 300 301 302 303 304 305 306 308 311 310 311 310 309 312 322 318 313 314 314 312 309 309 310 313 314 310 311 312 314 315 316 317 318 318 321 321 322 325 322 321 322 320 320
298 298 299 300 300 301 302 304 305 307 309 312 310 311 312 316 317 316 312 313 312 311 311 310 313 314 313 312 312 312 314 315 316 317 316 319 319 319 319 320 319 318 319 319 319
299 299 299 300 300 302 304 307 307 308 310 312 311 311 314 319 317 315 313 309 311 310 311 310 312 313 314 313 312 313 314 315 315 316 316 318 318 318 318 319 318 318 317 318 318
301 302 302 302 302 303 307 307 308 308 310 312 312 312 316 316 317 319 317 316 317 315 314 313 314 314 315 316 315 317 316 316 316 316 316 318 316 316 316 316 317 317 317 317 317
309 308 307 303 303 305 307 308 308 309 311 313 311 314 318 316 317 316 316 316 317 317 315 316 316 316 316 315 317 316 316 315 316 316 316 315 315 317 316 315 316 316 318 319 318
310 310 310 308 306 307 307 308 309 311 312 313 311 315 321 319 319 316 317 317 316 317 316 315 316 316 315 315 314 315 314 315 316 316 316 315 316 317 317 318 316 316 317 317 317
311 311 310 310 307 306 307 309 312 313 313 313 315 319 320 320 318 316 313 314 318 317 315 315 314 314 313 314 315 314 315 315 316 317 317 315 315 316 317 317 317 316 316 316 317
311 311 310 310 307 307 307 310 317 318 317 321 320 320 320 320 317 315 313 316 318 317 315 315 314 314 314 315 317 318 317 316 317 318 317 315 316 316 316 318 316 316 316 316 316
311 310 310 309 307 307 307 311 317 318 317 320 322 319 321 320 319 318 315 317 318 317 315 316 316 317 318 318 318 318 318 317 317 318 317 317 318 318 318 317 318 317 317 317 317
310 310 310 309 309 312 310 313 317 319 317 319 322 322 321 318 318 319 316 316 318 318 318 317 319 320 319 317 318 316 317 317 318 318 317 318 317 318 318 318 318 318 318 318 318
310 310 309 308 314 315 317 319 317 318 319 324 320 322 322 319 318 318 317 317 317 318 318 318 318 320 320 318 317 316 316 318 318 318 317 318 318 318 319 319 319 318 317 318 318
310 310 309 307 309 313 317 316 316 319 336 323 320 318 319 318 319 318 318 317 318 317 317 317 318 318 319 318 318 317 318 319 319 317 318 319 318 318 318 320 321 319 319 318 318
309 309 309 311 313 317 317 316 317 326 338 325 320 318 318 318 319 319 319 317 317 317 316 317 317 318 319 319 318 320 318 318 318 317 319 319 320 320 321 321 321 319 319 318 318
309 309 308 308 314 317 318 317 326 334 328 325 321 319 318 318 318 319 318 318 316 316 317 319 319 320 321 318 320 321 319 318 320 321 324 327 329 326 323 321 321 318 318 317 317
309 309 314 315 312 317 318 323 331 330 325 322 321 321 321 320 322 321 320 319 318 319 318 321 323 322 322 323 324 323 322 329 335 328 327 324 327 325 321 319 319 318 318 318 317
309 311 314 320 318 317 321 330 329 328 321 321 320 320 322 324 326 323 322 323 321 321 322 325 326 322 323 323 323 322 321 321 322 323 324 322 321 320 321 321 320 319 319 318 316
308 311 316 321 319 319 324 328 327 324 320 319 322 322 324 325 327 325 324 323 322 320 319 323 324 323 322 322 323 321 319 321 321 325 325 322 321 319 318 317 316 315 314 313 312
310 319 320 319 319 321 324 328 327 320 319 319 321 321 321 322 322 323 325 323 321 320 320 319 322 323 320 322 323 320 320 320 322 324 323 322 320 319 318 317 317 315 313 314 314
311 323 319 320 322 323 328 328 323 320 319 319 319 320 321 321 322 322 323 323 322 321 320 321 321 324 322 320 321 321 321 321 328 328 325 321 321 317 316 316 314 314 314 313 311
311 317 319 317 320 322 324 325 324 319 320 319 319 319 319 321 322 321 322 321 321 320 321 321 321 324 323 322 321 322 321 321 321 319 319 316 316 315 314 315 314 313 311 311 311
312 321 321 319 319 320 321 321 320 320 319 318 319 319 320 321 320 321 322 321 320 319 319 317 318 321 323 324 323 324 322 320 318 319 318 316 315 313 316 315 313 312 311 310 310
314 320 317 317 318 318 318 318 318 320 317 317 320 319 319 320 319 321 321 319 321 320 317 314 317 318 317 318 318 319 319 318 317 315 315 313 313 316 315 313 312 311 311 310 310
315 315 314 314 316 318 318 319 319 318 316 317 317 317 316 317 319 319 317 318 319 320 319 318 316 318 320 320 319 318 317 316 316 315 313 314 316 314 313 312 311 310 310 309 309
313 313 312 315 316 317 318 317 316 315 315 315 314 314 315 315 314 313 313 314 315 317 321 319 319 321 321 320 319 319 319 319 320 318 317 318 316 313 312 311 309 309 308 308 307

GFSSW_925_thetae_090.txt.gz
Theta_e
303 303 304 305 305 306 306 306 310 311 315 314 314 313 312 310 309 308 309 308 311 308 310 312 310 309 309 305 308 309 309 310 312 314 316 317 319 320 323 330 329 327 326 325 328
300 300 301 301 302 303 303 304 305 309 312 315 314 314 312 310 310 310 308 307 310 313 314 313 308 308 309 306 306 307 306 309 311 312 313 315 316 318 317 325 331 329 328 326 326
298 298 299 299 300 301 301 302 304 306 310 311 314 313 312 311 311 316 318 315 310 312 313 312 310 308 310 307 306 308 310 310 312 312 313 314 315 317 316 327 332 331 326 323 320
299 299 299 299 299 300 301 303 305 307 308 311 312 312 311 312 309 318 313 315 312 313 312 307 306 308 312 310 307 309 310 311 312 313 314 314 317 318 321 321 330 330 321 319 319
302 302 304 304 303 302 303 305 307 307 308 308 313 312 312 314 314 312 313 314 313 312 311 307 307 311 312 310 309 308 310 311 312 312 313 313 315 317 317 320 326 325 325 323 316
310 310 310 309 306 304 305 307 307 307 308 308 311 311 313 319 313 317 314 313 313 312 311 308 309 311 311 311 310 310 311 312 312 312 312 314 315 315 317 317 321 317 317 316 316
311 311 311 311 311 308 308 308 308 308 308 312 311 311 314 315 317 317 313 310 310 310 310 310 309 311 312 315 313 313 312 312 313 311 312 315 316 315 315 315 316 316 316 316 315
312 311 311 311 310 310 308 308 307 308 310 313 311 312 315 314 315 316 317 316 315 314 312 314 313 310 313 314 314 315 314 314 313 313 314 315 316 315 314 313 314 315 315 316 316
311 311 311 310 310 309 309 308 308 310 313 313 311 313 318 318 319 317 317 316 316 316 317 316 315 314 314 313 312 311 314 314 314 314 315 314 314 315 314 314 314 313 314 315 315
311 311 310 310 310 309 308 308 313 312 313 312 314 317 317 319 318 317 317 315 317 316 315 314 312 312 310 311 314 314 314 314 315 316 315 314 314 314 314 315 315 312 313 314 315
310 310 310 310 309 309 307 308 315 316 314 317 317 318 318 321 319 317 314 313 314 316 313 313 312 313 312 313 314 315 315 316 315 315 316 313 315 314 314 315 314 312 313 313 314
310 309 309 309 309 309 307 307 315 316 317 318 319 318 317 318 320 315 313 314 317 317 314 313 313 314 315 315 315 315 316 316 315 317 316 316 315 315 314 314 313 314 313 312 313
310 309 309 309 309 313 311 313 317 315 316 317 320 321 321 320 321 318 313 314 317 317 316 313 314 316 317 317 318 315 315 315 315 316 315 316 315 316 316 317 316 314 314 315 315
310 309 309 309 313 311 312 316 316 316 317 321 321 322 321 319 317 317 315 315 316 317 316 316 317 318 318 318 317 316 315 316 318 316 317 316 317 316 317 316 317 316 315 316 317
310 309 309 308 309 309 316 317 317 316 333 327 322 320 319 320 318 317 316 316 316 316 315 317 316 315 316 318 318 316 316 318 317 315 316 316 316 315 317 320 319 317 318 317 316
310 309 309 308 309 314 316 316 316 324 333 327 319 318 318 318 319 317 316 316 316 316 315 316 315 316 317 320 319 320 317 315 314 314 316 318 317 317 319 319 318 317 317 316 315
310 309 308 307 310 316 314 314 323 330 327 325 319 318 317 317 318 318 318 316 315 316 315 315 318 319 320 320 320 320 317 317 319 319 320 326 327 323 320 319 318 317 316 316 315
309 308 309 312 316 312 316 320 329 329 326 326 320 318 318 317 319 318 317 316 315 314 315 318 320 321 321 322 323 322 321 325 328 328 327 326 330 324 320 318 317 316 315 315 316
309 309 310 315 318 314 317 325 327 328 322 320 321 320 320 323 321 323 319 321 318 315 319 322 324 322 321 322 322 322 321 320 324 323 324 323 322 318 319 319 318 318 318 313 311
309 309 312 317 320 317 319 325 327 326 320 319 321 321 322 321 327 325 324 323 321 319 318 321 323 322 321 321 322 322 320 325 320 324 324 323 322 320 317 316 316 313 312 311 310
308 312 320 320 320 316 321 323 326 325 322 318 319 319 320 321 320 325 325 323 321 321 318 318 319 321 320 321 322 321 319 321 320 323 322 322 321 317 317 314 312 312 311 309 308
306 315 320 319 318 317 323 327 324 324 323 319 318 319 320 320 321 321 321 323 321 321 319 319 318 321 320 317 320 320 322 321 325 324 320 318 320 315 313 312 310 309 309 308 308
305 309 316 318 318 318 319 325 323 323 319 318 319 318 317 318 320 320 320 320 320 319 320 319 318 320 317 319 320 321 321 320 320 317 320 321 318 315 313 311 310 309 308 308 309
306 315 314 314 315 318 319 319 318 318 317 317 318 318 318 319 319 320 322 319 320 319 321 317 317 318 317 322 321 321 320 320 320 317 318 317 315 315 313 311 310 309 308 307 306
307 315 312 316 314 313 315 317 317 319 315 315 317 317 317 319 316 320 318 317 318 320 318 311 314 316 316 317 318 320 320 320 321 319 317 317 315 314 312 311 310 309 307 307 307
311 312 311 312 313 315 316 316 318 316 315 315 316 315 314 316 317 317 315 316 317 316 317 315 314 316 317 318 319 320 318 317 317 317 316 314 315 311 310 309 308 307 307 307 307
311 312 309 311 312 314 314 316 316 314 314 313 312 312 313 314 312 311 310 311 312 315 318 319 316 316 318 320 319 317 318 318 319 316 316 318 314 311 310 309 308 306 306 308 307

GFSSW_925_thetae_093.txt.gz
Theta_e
298 299 299 299 300 300 301 302 304 307 310 312 313 313 313 313 312 310 308 307 309 309 311 311 311 309 308 306 307 306 308 308 309 312 313 313 314 317 318 318 318 328 324 324 345
299 298 299 299 300 300 300 301 303 306 310 311 311 314 312 312 312 310 310 306 311 309 309 311 306 308 308 307 305 305 304 307 307 310 311 312 312 315 316 316 317 329 327 327 344
301 301 302 304 304 303 303 303 304 307 310 309 311 313 312 313 310 309 318 313 311 309 313 312 308 307 309 305 305 305 306 308 309 310 310 311 312 312 314 315 316 323 327 326 321
309 309 309 309 309 307 305 304 306 307 308 310 309 312 312 312 310 317 315 315 309 312 314 308 305 307 310 311 306 308 307 308 309 310 312 311 313 313 314 316 316 321 327 323 324
311 311 311 311 311 310 310 308 308 308 308 310 311 311 311 313 313 312 313 314 311 315 311 305 306 306 311 310 309 308 308 308 308 308 308 310 311 312 313 314 315 322 326 325 325
312 312 311 311 311 310 310 310 309 308 309 311 311 311 311 317 312 314 314 315 313 312 309 306 306 308 312 311 311 311 310 311 310 308 308 311 312 312 313 315 318 323 324 328 328
312 311 311 311 310 310 310 310 310 309 309 310 311 310 312 312 315 321 317 314 314 312 308 309 308 310 310 312 310 312 311 310 309 309 309 311 311 313 314 315 315 318 315 324 322
312 311 311 310 310 310 311 310 309 309 310 310 311 311 312 311 315 314 317 312 312 311 310 310 309 308 310 310 313 314 312 313 311 312 311 312 312 313 313 314 314 313 313 314 314
312 310 310 309 309 311 311 309 308 310 312 312 310 311 314 316 318 316 316 316 316 313 310 312 311 310 313 312 312 311 313 313 313 312 314 312 313 313 313 312 313 312 312 312 313
310 310 309 309 309 311 309 309 312 312 312 311 313 314 314 318 318 318 316 316 316 315 314 313 310 311 308 311 314 313 313 313 314 314 313 312 312 313 313 312 312 312 311 311 312
310 309 309 309 308 310 308 309 313 314 313 314 315 316 316 318 319 317 317 315 315 314 314 312 311 312 311 311 313 313 314 314 314 315 314 313 312 311 312 313 313 312 311 310 311
310 310 309 308 309 310 308 306 313 315 316 315 317 316 316 317 319 316 315 311 313 314 313 312 312 312 312 313 314 314 314 314 313 314 313 313 315 312 312 314 313 313 312 311 311
310 310 309 309 308 311 310 311 315 314 315 316 318 319 318 318 320 320 311 313 316 315 315 313 313 314 314 314 315 315 315 315 313 315 315 315 314 313 315 315 315 314 312 313 312
310 310 309 309 310 309 309 314 315 314 316 320 321 320 320 319 318 319 313 314 315 316 316 315 315 315 316 316 316 317 316 315 316 315 315 315 315 314 315 315 317 315 314 314 316
310 309 310 310 308 307 314 315 314 314 329 326 322 319 318 318 318 316 314 315 315 316 315 317 316 316 315 316 317 315 316 315 316 314 315 315 314 314 314 317 318 317 317 316 316
309 309 309 309 308 310 312 313 314 322 331 327 318 320 320 320 319 316 315 315 315 315 315 315 315 315 315 319 318 319 317 314 313 312 315 316 315 315 319 318 318 317 317 316 315
309 309 309 308 308 312 312 313 321 327 326 327 319 317 317 318 319 317 316 315 315 316 315 315 315 317 319 320 320 318 316 318 317 318 318 323 323 319 320 317 317 316 316 315 313
309 308 308 308 310 310 313 318 327 326 328 324 320 317 318 316 316 317 317 316 314 314 314 316 318 320 321 321 322 321 318 321 323 324 324 324 326 323 319 316 315 313 310 310 310
309 309 308 312 310 312 315 323 324 328 326 320 320 319 319 322 319 318 316 317 315 313 315 321 322 321 321 321 321 321 320 318 322 323 321 322 323 316 318 318 314 313 311 309 308
309 307 309 315 314 314 318 323 325 326 324 319 320 321 321 320 326 324 322 321 321 317 315 318 321 320 321 320 321 320 319 322 319 325 325 321 321 319 317 313 312 310 309 308 307
307 309 315 317 316 314 319 320 325 324 323 320 320 320 320 320 320 325 325 322 321 320 317 318 318 320 319 320 321 321 319 318 321 320 322 322 320 316 313 312 311 309 308 307 306
304 308 315 316 316 314 319 321 323 324 322 321 318 318 319 319 320 320 321 322 319 320 319 317 316 321 320 317 319 319 320 319 320 326 318 315 321 313 310 310 309 309 309 307 306
306 305 313 314 319 318 318 322 324 323 322 319 320 318 317 318 319 319 321 318 319 317 318 316 316 319 318 317 318 320 320 320 319 322 327 325 320 313 311 310 309 309 308 306 306
305 313 312 312 312 316 318 319 320 317 317 318 318 317 318 318 317 319 321 318 317 321 319 316 316 316 318 317 318 321 319 320 322 320 318 320 316 314 312 311 310 308 306 305 305
304 312 311 314 315 313 313 316 317 319 316 316 316 316 317 318 316 319 316 315 316 318 317 313 317 315 315 315 317 318 319 319 321 321 321 319 317 313 311 311 309 307 305 305 305
310 314 311 313 314 315 315 317 319 316 315 315 316 314 313 315 315 316 315 315 316 314 317 315 315 316 316 316 317 318 317 318 317 317 320 318 315 311 310 309 307 306 305 305 306
309 311 311 311 312 314 314 315 316 314 313 313 313 312 312 313 312 311 310 311 312 314 314 317 317 317 318 318 319 317 316 317 317 315 315 315 313 310 310 309 307 306 305 305 306

GFSSW_925_thetae_096.txt.gz
Theta_e
302 301 301 302 303 302 302 301 303 305 310 313 311 312 313 312 312 311 309 309 307 307 308 310 310 309 307 305 306 304 305 306 308 311 310 313 313 315 317 316 317 317 324 325 353
308 309 309 309 309 309 306 304 303 305 307 309 311 310 312 311 311 311 312 310 308 308 310 310 306 306 306 305 303 304 304 305 305 307 309 311 310 310 314 313 314 316 322 338 352
311 311 311 311 311 311 310 310 308 309 310 311 310 311 312 311 310 309 316 311 307 309 310 310 306 307 308 304 304 303 305 305 306 308 309 309 310 310 312 312 312 314 318 323 336
312 311 311 311 311 311 311 310 310 310 309 311 311 312 312 311 308 312 314 312 310 310 311 308 305 307 307 309 304 307 305 306 306 308 310 309 310 312 311 312 313 313 314 319 319
313 312 311 311 311 311 311 311 312 312 312 310 311 311 311 311 311 311 312 311 311 313 311 304 305 307 310 309 306 306 307 307 307 306 307 309 309 310 309 311 312 312 315 321 321
312 312 311 311 310 310 312 313 312 310 309 309 309 310 310 311 311 313 315 311 312 314 310 304 304 306 310 310 309 308 309 310 309 308 306 309 309 309 310 311 311 313 318 323 324
312 312 310 310 309 310 311 311 310 309 308 308 309 310 311 313 313 315 319 313 314 315 307 307 307 310 310 311 310 310 312 310 311 310 309 307 309 310 311 311 313 314 318 319 324
313 311 310 310 309 310 311 310 309 309 309 309 310 310 309 311 313 313 315 314 314 313 310 309 309 308 309 309 312 313 310 312 311 311 310 310 311 311 310 311 312 313 312 313 315
312 310 310 309 309 310 310 308 310 311 311 311 310 309 312 314 316 312 314 315 312 312 311 309 308 308 311 311 311 308 312 312 311 311 311 311 312 312 312 310 311 311 311 312 312
311 310 309 309 309 310 309 309 311 311 311 311 311 311 311 315 317 318 315 316 315 312 312 313 311 309 307 310 313 312 312 312 312 313 313 312 310 311 311 311 311 311 310 311 311
310 310 309 310 309 310 308 309 313 313 311 312 313 314 314 316 318 317 315 315 315 314 313 311 310 311 311 311 311 313 313 313 313 313 314 312 311 311 310 308 310 310 310 311 310
310 310 309 309 309 308 309 307 311 314 314 313 314 314 315 316 318 315 315 314 313 314 312 311 312 312 311 311 312 312 313 313 313 313 312 313 313 311 312 312 311 311 311 311 310
310 309 309 309 309 310 309 309 313 313 314 315 316 317 317 316 318 319 312 310 312 312 313 312 315 312 313 313 313 313 313 314 314 313 313 314 313 313 314 313 315 314 312 312 312
310 309 309 309 308 308 307 311 312 312 315 317 319 318 318 317 319 318 311 313 314 312 314 314 314 315 314 314 313 315 314 315 316 314 313 313 314 312 313 314 316 314 314 315 315
309 308 308 309 308 306 309 313 312 312 327 322 320 318 317 317 316 317 313 313 314 315 314 316 315 315 315 316 314 315 315 315 314 313 314 314 313 312 313 317 317 316 316 315 314
309 307 307 308 307 307 307 308 312 321 329 325 319 319 320 318 318 314 314 314 313 314 314 315 314 315 315 315 317 317 315 312 312 311 314 314 313 314 319 319 318 316 315 312 311
308 307 308 308 307 309 311 311 319 325 323 327 317 318 319 319 319 315 314 314 314 316 315 315 315 314 314 319 320 316 315 317 316 315 317 320 320 316 318 317 316 315 311 309 308
307 306 308 308 307 308 310 317 325 324 327 325 321 316 319 316 317 317 314 314 313 313 313 315 317 318 320 320 321 320 316 318 320 319 320 322 324 322 316 312 312 310 309 308 307
307 308 307 308 307 308 313 322 323 324 326 320 322 318 318 318 316 316 315 315 314 312 315 316 320 320 320 320 321 320 320 317 322 320 321 320 321 316 313 314 312 310 309 307 306
307 305 306 309 308 311 317 322 322 324 324 321 321 321 322 321 324 319 316 317 316 313 312 315 319 319 320 319 319 319 317 322 319 324 325 320 321 318 315 313 311 310 308 307 306
306 306 309 312 310 312 319 319 320 321 323 325 322 322 320 320 324 325 323 321 320 318 314 316 317 319 319 319 319 320 319 318 318 316 322 321 318 314 312 311 310 308 308 306 306
305 307 311 310 317 314 317 319 320 321 322 321 318 319 322 320 320 320 323 322 319 319 319 316 316 320 320 317 317 317 318 318 321 323 313 312 316 311 309 309 308 309 307 306 306
307 305 309 310 319 317 316 320 322 323 321 320 319 319 317 318 319 319 321 318 317 318 320 319 316 320 319 315 317 319 318 318 318 322 325 320 320 311 310 310 309 308 306 305 305
307 309 309 311 314 316 317 318 320 318 320 319 320 320 320 320 315 320 320 317 316 320 319 316 314 316 318 315 316 319 319 318 318 318 320 325 318 313 313 311 310 306 305 304 304
304 309 311 313 316 315 315 317 318 319 316 318 318 318 317 318 316 318 316 315 315 315 315 315 318 316 315 316 316 317 317 318 321 321 322 320 317 313 311 310 309 307 305 305 305
307 312 312 313 314 315 316 317 319 318 315 317 319 316 316 316 314 317 315 315 315 313 316 315 313 314 316 315 315 317 316 317 317 320 320 320 317 310 308 308 307 306 305 305 305
307 309 311 310 312 315 316 316 317 315 315 315 314 312 312 313 312 311 310 310 312 313 313 315 317 318 319 316 317 319 316 316 316 315 315 318 315 309 309 309 307 306 305 305 304

GFSSW_925_thetae_099.txt.gz
Theta_e
311 311 311 311 311 310 310 309 307 305 307 309 310 312 311 311 311 312 311 312 310 308 307 310 310 307 306 308 310 309 312 312 311 313 312 314 315 316 316 316 316 318 319 323 351
312 311 311 312 312 311 311 311 311 310 310 311 312 311 312 312 311 311 311 312 311 307 310 310 310 308 309 308 309 312 311 311 311 312 312 312 312 312 313 314 315 316 318 335 353
313 312 312 311 311 311 311 313 313 313 313 313 312 311 311 311 312 312 317 316 310 308 310 308 308 310 311 308 309 310 311 309 311 311 312 311 312 312 312 314 314 317 318 318 338
313 313 313 312 311 312 313 312 313 313 311 311 310 310 311 310 315 312 313 311 307 310 310 306 309 311 313 310 308 309 309 309 309 310 312 312 312 313 313 315 316 316 317 316 318
313 313 313 313 311 310 312 312 312 311 310 309 309 309 310 313 314 312 313 308 312 311 310 309 308 311 313 313 309 309 311 310 310 310 312 312 313 313 313 315 316 315 316 317 318
313 313 313 312 312 312 312 311 310 309 309 309 308 309 310 313 311 312 315 313 314 314 310 308 309 311 313 314 314 313 313 314 314 313 311 312 314 312 316 316 316 315 317 318 319
313 312 312 310 311 311 312 310 309 309 309 309 308 310 311 314 313 319 318 317 314 313 312 307 307 311 313 313 313 313 315 315 315 315 315 313 314 314 317 317 316 317 317 321 325
312 312 310 310 310 311 311 310 308 310 310 309 309 311 313 311 312 312 318 316 314 312 309 310 308 310 311 312 314 315 315 316 316 314 312 314 317 317 317 315 317 318 318 319 321
312 311 310 310 311 312 310 309 309 311 311 309 311 309 315 311 314 312 315 315 313 313 311 309 310 310 313 315 316 314 316 316 316 315 314 314 317 319 318 316 318 319 319 319 320
312 310 309 310 310 310 309 308 311 311 312 311 310 311 313 315 315 316 316 313 313 312 312 312 315 316 314 316 316 316 316 316 316 317 316 317 318 318 318 316 318 319 319 319 318
310 310 309 309 309 310 308 309 314 315 311 316 316 314 315 316 317 317 314 316 316 316 317 315 316 317 316 316 315 315 316 316 317 316 316 319 318 319 318 317 317 317 318 318 318
310 310 309 308 308 309 308 310 312 313 317 314 315 315 314 315 317 317 315 317 318 318 315 314 316 315 315 314 314 315 316 316 317 317 317 318 318 318 318 318 319 317 317 318 317
310 310 309 308 308 308 308 309 311 311 317 317 316 317 317 316 318 318 316 315 316 317 316 317 315 316 314 315 315 316 317 317 317 317 318 318 319 319 318 318 321 320 320 320 319
310 309 309 308 307 307 308 309 310 311 321 318 319 319 318 318 318 319 315 315 315 316 315 316 316 316 316 316 315 317 317 317 318 319 320 317 319 320 318 320 323 323 323 322 322
310 309 309 308 307 308 307 309 310 312 326 321 321 318 318 319 319 317 314 315 316 315 316 317 317 318 318 317 316 318 318 318 319 320 319 318 319 319 320 323 324 323 321 320 320
309 309 309 307 306 307 307 307 310 322 326 325 321 320 320 320 318 316 315 314 315 316 316 316 316 316 317 317 317 318 317 317 317 318 320 319 319 319 320 323 324 320 318 317 316
308 309 308 307 307 307 309 311 321 326 322 326 322 321 320 320 319 318 318 315 316 317 317 317 317 316 316 317 320 320 321 321 321 321 320 322 321 319 323 321 323 320 317 315 315
308 308 307 307 307 307 308 318 325 322 323 325 321 321 322 320 320 317 318 319 315 317 317 319 318 317 318 318 321 322 321 321 323 322 320 325 325 325 320 318 318 316 315 314 313
308 308 306 307 307 307 310 324 319 322 323 324 322 321 321 320 320 320 319 319 318 316 319 319 318 321 321 322 322 323 323 320 325 324 326 323 324 319 318 317 316 315 314 313 312
307 306 306 307 306 307 314 320 319 322 325 322 322 323 322 321 320 320 319 318 318 315 318 319 322 321 321 321 321 322 320 325 323 327 327 324 324 323 321 319 316 316 315 313 312
306 307 308 308 308 312 318 319 319 320 320 325 324 322 323 323 324 325 321 322 320 317 316 318 320 321 321 322 322 323 324 323 324 324 326 324 322 319 322 319 317 315 313 312 311
307 309 309 308 315 316 318 318 317 317 318 319 322 323 323 321 323 326 325 324 319 319 318 319 322 323 322 318 318 321 323 324 327 328 325 325 324 315 316 316 315 314 311 310 310
309 307 307 308 320 321 318 319 318 319 320 322 321 319 319 323 324 321 323 318 319 320 322 322 323 326 325 321 320 322 322 322 324 326 328 328 324 315 314 314 314 312 310 310 310
308 309 311 312 316 316 317 318 319 319 321 320 321 321 321 322 320 322 322 318 318 321 321 323 323 326 328 322 322 323 322 322 324 329 325 326 324 318 316 316 315 312 310 309 310
307 309 312 315 315 314 315 316 318 319 318 319 321 321 321 323 320 320 320 317 317 317 317 320 324 321 319 319 318 318 320 321 323 323 325 321 323 322 319 317 315 313 310 309 310
308 310 312 311 313 314 315 317 317 319 317 320 321 320 318 319 318 320 318 318 319 318 320 318 321 318 320 317 318 319 319 319 319 320 321 320 321 320 316 316 313 312 310 310 310
307 308 311 310 312 313 315 315 315 316 315 315 318 317 317 316 315 315 314 314 315 318 320 321 321 321 319 318 319 320 319 319 318 318 319 320 320 316 315 314 314 311 309 309 308

GFSSW_925_thetae_102.txt.gz
Theta_e
313 313 313 313 314 313 312 312 311 311 311 311 312 313 313 313 312 315 316 316 315 310 310 314 313 311 311 314 315 315 315 315 316 315 316 316 315 317 317 316 317 319 322 323 334
314 314 314 314 313 313 313 313 313 313 313 314 313 312 311 311 313 315 315 314 311 309 313 312 313 311 312 313 314 314 314 315 316 315 315 315 315 315 314 315 315 316 317 319 332
314 314 313 313 313 313 313 313 313 312 312 312 311 311 310 311 316 317 316 317 312 309 312 312 311 312 312 313 314 314 315 315 315 314 314 314 314 315 315 315 316 316 317 321 322
313 313 313 313 313 312 312 311 311 311 311 311 310 310 310 314 321 316 312 313 313 314 312 311 312 312 312 311 314 313 314 314 314 313 315 315 316 316 316 316 316 316 317 321 321
312 312 312 312 312 312 311 310 310 310 310 309 309 309 312 317 317 316 314 309 315 314 312 312 312 312 313 313 312 312 313 314 314 316 316 317 317 317 317 317 317 317 318 320 321
312 312 311 312 311 310 310 310 309 309 309 309 309 309 313 318 315 314 319 317 315 313 312 311 312 312 313 315 314 315 314 317 317 318 317 317 318 317 319 319 317 319 319 321 322
311 312 312 311 312 311 310 310 309 308 309 310 310 310 313 318 316 320 319 318 315 313 313 311 311 312 316 316 317 317 317 317 318 318 318 319 319 319 319 319 320 320 320 322 324
311 311 311 310 310 311 311 309 309 309 311 311 309 311 317 315 314 316 320 318 316 314 313 312 311 312 316 317 316 317 318 319 319 318 318 318 319 320 320 320 320 321 321 322 324
310 311 311 310 311 311 310 309 309 311 311 310 312 313 320 313 314 314 317 318 316 314 313 312 312 313 315 317 318 318 319 318 319 318 318 319 320 320 320 320 320 321 321 322 323
310 311 310 311 311 310 309 308 310 312 312 312 312 314 317 317 316 316 315 317 316 316 315 313 313 313 316 317 318 318 318 318 318 319 319 319 320 320 320 320 320 320 321 322 322
311 311 310 310 310 310 308 312 316 317 313 320 321 319 317 318 319 317 316 317 316 316 315 314 315 316 316 318 318 318 318 318 318 319 319 320 321 321 321 321 321 321 321 322 322
310 310 310 310 308 307 309 315 316 315 319 319 318 319 318 318 321 320 317 318 318 318 315 317 317 316 317 317 318 318 318 318 317 318 319 320 321 321 321 322 324 323 322 322 323
309 309 310 309 308 310 312 312 310 313 320 319 319 319 319 318 320 321 318 319 319 318 318 318 316 316 317 318 318 317 318 317 317 319 319 321 322 321 321 323 325 325 324 325 323
308 308 308 309 309 310 309 310 312 313 322 319 319 321 319 319 320 320 318 318 319 319 319 318 317 317 318 317 317 318 316 317 317 319 321 321 321 322 321 322 326 327 327 326 328
306 307 308 308 309 310 310 311 311 315 320 321 322 320 321 320 321 320 318 317 317 317 318 318 317 317 318 317 317 317 317 319 320 321 321 322 321 321 322 322 327 327 327 329 328
305 305 307 308 309 308 308 309 310 322 321 321 323 322 321 321 321 321 319 317 317 317 317 317 318 318 317 317 318 318 320 321 321 321 323 321 321 320 322 323 327 326 325 324 324
304 305 307 309 309 308 310 311 320 320 317 322 325 323 322 322 321 320 320 319 319 319 319 317 318 318 318 319 319 320 322 323 322 322 322 321 322 321 325 324 326 326 324 323 323
305 306 308 309 309 309 309 316 322 314 317 326 324 324 324 322 322 321 321 320 319 318 319 320 320 318 318 319 320 321 322 322 324 322 320 323 322 322 325 324 326 324 323 322 321
305 308 308 309 309 309 311 316 318 316 317 318 324 324 325 323 322 321 322 322 320 319 321 321 320 318 319 319 320 321 323 321 324 325 326 325 325 325 324 325 324 323 322 321 320
306 308 308 310 309 309 312 310 312 315 319 322 323 323 325 325 324 323 322 321 321 320 320 321 323 320 320 321 323 323 322 324 323 327 330 324 324 325 326 326 324 323 322 320 318
308 310 311 310 309 312 313 309 310 310 318 320 319 322 324 324 324 322 322 322 320 320 320 321 323 324 324 323 322 323 323 323 324 328 329 328 326 324 325 326 325 323 321 320 318
307 312 310 310 316 316 316 312 311 314 316 316 320 320 323 323 324 324 325 323 321 321 321 321 323 325 323 323 323 323 323 324 329 327 326 326 325 321 324 325 324 322 319 318 316
309 309 309 310 315 317 316 316 314 316 318 318 318 319 320 323 325 325 325 323 322 323 322 322 324 327 328 324 323 323 323 324 325 326 328 331 325 321 321 322 322 320 318 316 316
309 311 311 312 315 315 315 317 318 317 318 317 319 321 322 323 323 325 325 321 322 323 323 324 325 327 329 326 325 326 324 324 326 330 326 323 323 323 322 321 320 319 317 316 316
308 311 310 311 313 313 314 316 316 316 317 319 321 321 322 324 322 324 324 322 322 322 322 325 328 327 326 323 322 323 323 323 324 323 324 322 326 324 323 322 321 320 318 317 316
309 310 311 313 311 313 313 315 317 316 317 318 321 320 322 324 323 322 321 322 323 322 323 323 325 325 325 323 322 322 321 320 321 321 320 322 321 320 320 322 321 320 318 316 316
306 308 307 310 311 311 313 314 313 310 316 315 318 321 322 319 318 319 319 319 321 322 323 324 324 324 323 321 319 320 319 319 320 320 320 322 320 320 321 320 321 319 316 315 313

GFSSW_925_thetae_105.txt.gz
Theta_e
315 315 315 313 313 313 313 314 314 314 314 315 314 314 313 310 310 316 319 319 318 316 311 317 315 316 315 317 318 318 318 319 320 320 320 321 319 320 320 319 319 321 322 327 331
313 314 314 313 313 313 313 312 312 312 313 313 313 313 312 311 314 317 315 317 316 312 312 317 318 317 316 316 318 318 317 318 320 320 319 320 318 319 318 318 318 318 320 321 324
313 313 313 313 312 312 311 311 311 312 312 312 312 311 310 311 319 319 316 318 315 312 314 315 316 316 316 316 316 317 317 318 319 318 318 318 318 318 317 317 319 319 320 320 322
314 312 312 312 312 312 311 311 311 311 311 311 310 310 310 313 322 321 313 312 316 314 314 315 315 315 315 315 316 316 317 317 318 318 316 316 317 318 318 318 319 319 319 320 322
313 312 312 311 312 312 311 311 311 310 310 310 309 310 312 320 320 320 318 314 320 318 316 316 316 316 315 316 316 316 316 317 317 317 316 318 318 318 318 319 319 319 319 319 323
311 311 311 311 311 312 311 310 310 310 310 309 310 311 314 322 318 319 320 319 316 317 316 316 315 316 316 316 316 316 316 316 317 318 318 318 318 318 319 320 319 319 319 320 321
311 311 311 311 311 311 311 311 310 309 309 310 312 312 316 321 318 319 320 319 317 317 316 315 315 315 315 316 317 317 317 317 316 319 319 320 319 319 320 321 320 319 320 321 321
310 310 311 311 311 311 310 310 309 309 310 312 312 313 319 319 318 320 320 320 318 316 314 314 314 314 315 318 318 318 318 319 319 319 319 320 320 321 321 321 321 322 322 321 323
310 310 311 311 311 311 310 309 309 310 312 311 313 314 322 317 317 318 320 320 319 316 315 314 314 314 315 318 319 319 318 319 319 321 320 319 319 322 322 321 322 322 323 322 324
309 310 310 310 310 310 309 308 311 312 312 313 315 317 319 321 320 318 318 320 320 318 317 316 316 315 315 317 318 318 319 319 320 321 320 320 320 322 322 322 322 322 323 323 323
309 309 309 309 309 309 309 311 318 318 316 322 322 322 321 320 319 320 319 320 318 320 320 317 317 316 316 317 317 319 320 319 320 321 321 321 321 322 323 322 322 322 322 323 324
307 308 308 308 308 308 309 314 318 316 320 320 321 321 320 320 322 320 318 321 319 320 320 319 318 317 316 317 318 319 319 320 320 319 320 321 321 322 323 322 323 324 323 323 323
306 307 307 307 308 312 314 313 312 313 320 319 319 320 321 321 322 323 319 320 320 320 320 319 319 317 317 318 319 320 319 320 319 319 320 320 321 322 322 323 324 325 324 324 323
305 305 306 307 309 312 310 312 314 317 322 317 320 320 320 321 322 322 319 321 321 321 320 319 320 319 318 318 319 320 319 318 319 319 321 320 321 323 323 323 324 326 326 326 325
303 303 304 306 309 310 309 311 312 317 319 319 320 320 320 321 321 322 321 320 321 322 321 321 320 319 319 319 319 319 318 319 318 318 319 320 322 322 324 324 326 327 327 328 330
303 303 305 307 310 310 310 311 313 321 319 318 324 323 322 321 322 322 323 321 320 321 321 321 321 320 319 319 319 318 318 319 319 321 321 321 324 323 324 324 326 328 329 330 329
302 303 304 306 309 309 310 313 313 314 315 317 323 325 324 323 323 323 324 323 321 322 321 320 320 319 319 319 319 319 320 322 324 324 322 321 321 324 324 324 328 328 328 328 327
303 303 306 309 310 311 311 314 313 310 314 315 323 322 325 323 323 324 324 322 320 321 322 322 322 320 319 320 320 320 322 324 328 325 323 323 324 322 323 325 326 327 327 327 327
303 307 308 309 311 311 314 315 311 311 311 314 317 320 322 322 323 323 324 323 321 321 322 323 322 319 320 320 321 322 323 322 323 327 332 325 324 327 326 325 327 327 327 327 326
305 308 311 312 312 312 315 315 312 310 310 316 322 321 324 327 325 323 324 323 322 321 321 323 323 321 320 320 320 321 323 326 326 333 332 330 329 328 327 326 327 327 327 326 324
308 311 314 312 312 313 316 313 312 311 309 311 318 319 317 323 323 328 325 323 323 322 321 322 324 325 320 320 321 321 325 327 329 327 331 330 330 328 330 326 327 326 326 325 323
307 312 313 311 315 313 315 312 315 311 311 311 317 316 317 321 322 322 326 327 324 323 321 322 325 330 322 321 321 324 324 328 330 331 329 330 332 324 326 328 328 326 325 324 322
309 311 310 312 315 314 314 315 315 316 313 313 315 314 315 318 323 325 323 324 323 324 327 325 325 332 331 326 325 326 325 326 326 328 329 333 329 324 324 328 328 325 324 322 321
309 312 315 316 315 316 316 315 317 315 315 318 320 320 322 323 319 323 326 323 323 323 326 327 328 328 332 331 328 326 325 325 328 336 329 326 325 326 325 325 325 325 323 321 320
309 311 312 313 314 313 314 316 316 317 316 313 319 320 320 321 322 321 324 326 323 322 324 326 332 328 327 328 327 328 324 323 326 328 332 324 324 328 327 326 324 323 322 321 320
310 311 311 312 312 314 314 315 317 314 312 318 317 319 320 321 324 324 322 325 326 324 324 324 329 327 330 328 326 325 325 326 325 325 322 322 322 325 325 325 323 321 322 321 321
306 308 310 309 311 312 314 314 315 315 314 314 317 316 318 322 320 321 321 323 323 326 327 326 328 326 330 324 322 325 324 324 323 322 321 321 321 321 322 324 324 323 322 320 319

GFSSW_925_thetae_108.txt.gz
Theta_e
314 313 314 314 313 313 314 313 312 312 313 314 314 313 314 313 311 314 316 316 319 318 318 315 315 315 315 317 318 318 317 319 319 320 321 322 321 321 322 320 321 322 321 328 337
315 314 313 313 313 313 313 312 312 312 312 312 312 313 312 312 313 315 315 314 317 319 316 315 318 316 317 317 317 318 318 317 319 320 321 321 321 320 320 319 319 320 321 322 326
316 315 313 313 313 312 313 313 312 312 312 312 312 311 311 311 316 320 318 317 316 317 316 315 317 318 318 317 316 317 318 319 318 320 320 319 319 319 319 319 319 319 320 320 321
313 312 312 312 312 312 313 312 312 312 312 311 311 310 310 312 323 320 314 313 318 317 317 315 317 318 318 316 316 316 317 318 318 319 319 317 318 318 318 319 320 320 320 320 321
311 311 311 311 311 311 311 311 311 311 311 311 310 310 312 319 319 318 320 318 315 317 316 316 317 317 317 317 317 316 316 317 318 318 318 317 317 317 318 319 320 320 320 320 320
311 311 311 311 311 311 311 311 311 311 310 310 310 312 314 319 318 319 321 323 320 317 316 316 317 317 317 317 316 317 317 317 318 318 318 317 317 318 319 320 319 320 320 320 320
309 310 310 311 311 311 311 311 311 310 309 310 311 314 316 320 320 319 320 321 319 319 319 317 317 317 317 317 317 317 317 317 317 317 317 319 318 319 320 320 321 321 321 320 321
310 310 310 310 310 310 310 310 309 308 310 311 312 315 318 318 319 319 321 320 319 317 317 317 316 317 316 317 317 317 317 317 318 319 317 319 319 321 321 321 321 321 320 321 321
309 309 309 309 309 310 309 308 307 310 312 312 314 315 320 320 319 320 320 322 321 319 317 316 316 316 315 315 316 318 319 318 318 319 319 318 319 321 322 321 322 322 323 323 323
308 308 308 308 308 308 308 308 310 311 313 314 315 318 318 321 321 320 320 322 322 321 318 317 315 315 314 315 316 320 320 319 319 319 320 320 320 321 323 323 322 323 323 324 324
307 307 307 307 307 307 308 311 316 317 316 321 320 320 319 321 321 321 320 322 322 321 319 317 317 316 315 315 316 319 320 320 319 320 321 321 321 321 322 323 323 323 324 325 325
305 305 306 306 306 306 308 314 313 316 317 318 319 320 321 321 322 321 320 322 323 322 319 319 318 318 317 316 316 318 318 320 320 320 322 322 321 322 322 323 323 324 324 325 326
303 303 303 303 303 307 314 316 311 313 317 317 316 316 320 321 323 323 322 322 323 323 321 321 320 319 318 318 317 318 318 319 321 320 320 321 322 322 322 323 324 324 325 324 326
302 303 303 304 307 311 310 311 312 315 318 314 316 318 317 319 321 321 321 322 323 323 322 322 321 321 320 319 318 318 318 320 320 321 321 321 322 324 323 324 323 324 326 325 326
302 302 303 303 306 308 309 311 311 313 317 315 321 320 320 319 320 320 321 321 323 323 322 322 322 321 321 319 318 319 320 320 320 320 320 320 322 321 323 323 325 327 327 327 332
302 302 304 305 307 308 311 312 312 317 315 316 319 322 322 321 319 321 321 322 321 322 322 322 321 320 320 320 319 319 320 320 320 319 322 320 320 321 324 325 325 328 327 329 333
302 302 303 305 306 307 308 313 316 316 312 314 315 320 325 323 321 321 322 325 325 325 325 323 322 321 321 320 320 320 321 320 321 323 322 321 320 322 325 327 326 327 331 332 331
302 302 305 307 308 310 310 314 317 313 314 313 313 313 322 325 323 321 324 327 324 323 324 326 324 322 321 321 320 321 322 321 324 323 322 322 324 323 326 329 328 328 329 330 330
301 306 307 309 310 311 314 318 313 312 312 312 312 313 315 321 322 324 325 327 326 324 325 325 323 321 322 320 320 321 321 321 324 327 334 329 324 324 324 329 329 328 329 329 329
303 308 311 312 313 313 316 316 313 312 312 312 312 312 315 322 321 325 328 326 326 324 323 323 325 322 320 320 320 322 321 323 324 333 334 332 329 327 326 330 330 330 329 329 328
307 311 313 314 313 314 314 311 311 312 314 316 317 311 311 316 322 321 321 327 325 322 321 323 325 326 324 322 321 321 324 325 328 329 335 335 335 332 332 331 330 328 328 328 326
307 312 313 313 315 314 314 312 313 315 316 316 317 312 312 318 319 323 322 322 322 325 329 323 329 331 326 321 321 321 323 327 334 332 331 331 336 331 331 331 330 329 328 326 324
306 310 309 313 318 317 316 315 315 316 317 318 318 316 317 315 318 317 323 321 323 325 330 327 327 335 330 326 323 321 322 325 331 334 334 336 333 327 328 329 328 329 328 326 324
307 311 314 316 315 316 314 314 316 314 316 316 316 317 318 319 319 318 323 319 324 326 326 329 327 330 332 328 327 325 323 326 329 336 333 330 328 327 326 328 328 327 326 326 322
308 310 312 314 313 312 313 314 317 317 315 314 316 317 320 321 320 322 324 324 325 324 324 330 330 331 330 326 330 330 327 326 327 329 332 327 326 327 327 328 327 328 325 323 322
308 309 306 309 312 312 313 315 316 316 316 315 313 312 317 317 317 323 324 322 324 325 325 326 331 329 331 328 328 328 327 327 327 329 327 325 326 326 326 326 324 324 324 322 321
303 303 307 309 311 312 313 315 315 316 315 315 316 315 317 319 320 322 322 323 325 325 326 328 327 328 331 328 328 330 327 327 328 326 324 328 327 327 327 326 325 325 323 322 321

GFSSW_925_thetae_111.txt.gz
Theta_e
317 315 314 313 313 313 313 313 314 314 313 312 312 313 312 312 311 311 313 313 315 315 317 317 315 315 314 313 313 314 312 313 314 315 315 315 316 319 318 318 318 319 322 340 343
314 314 315 313 312 312 312 312 313 312 313 312 312 311 311 310 310 312 313 312 312 315 318 317 315 314 312 313 311 313 311 313 314 314 314 315 316 315 318 318 318 318 319 327 336
312 312 312 311 311 311 311 312 312 312 312 312 312 311 311 310 314 315 317 317 315 314 318 317 317 314 312 313 312 312 314 313 314 316 315 315 315 316 316 317 318 318 317 318 319
311 311 311 311 311 311 311 311 312 312 311 311 311 311 310 311 316 318 315 316 318 315 318 318 315 313 313 313 314 313 313 314 315 315 315 314 315 315 315 316 317 317 317 317 316
310 309 310 310 311 311 311 311 311 311 311 311 310 310 311 315 315 317 319 319 316 320 318 317 315 313 313 315 314 313 312 314 315 315 313 313 314 314 314 315 317 318 318 317 316
310 310 309 309 310 310 310 311 310 311 311 310 311 310 312 315 313 317 318 321 317 319 317 316 314 313 314 315 314 313 313 314 312 313 313 314 314 314 314 316 318 317 317 316 316
310 310 309 309 309 310 310 310 310 310 309 311 311 311 312 314 314 318 318 322 320 317 317 316 315 315 315 313 314 314 314 313 314 313 313 314 313 314 314 317 317 317 316 317 316
308 309 308 308 308 309 309 308 308 308 308 311 312 312 313 314 314 317 319 318 322 320 318 316 315 314 315 313 314 313 313 312 312 313 314 313 313 316 316 316 317 317 318 318 317
307 308 307 307 307 307 307 306 306 305 310 312 313 314 317 316 317 316 318 319 320 320 319 318 316 315 315 313 311 312 312 312 313 314 315 313 313 316 318 317 317 317 318 317 317
304 304 305 304 305 306 305 305 303 310 312 313 313 315 315 313 319 320 319 320 321 321 319 317 316 314 312 310 312 312 313 313 316 315 316 315 313 314 317 318 319 318 318 319 319
304 303 303 302 302 301 303 305 312 315 315 317 316 317 315 317 320 321 320 320 321 322 320 317 314 314 313 313 313 313 314 315 317 318 317 316 316 317 317 319 318 318 319 319 319
302 302 302 302 302 302 304 307 313 314 312 315 317 318 316 317 320 321 321 321 322 323 320 317 316 315 315 314 313 314 313 314 317 318 316 317 319 318 319 319 318 319 318 319 322
302 302 302 302 303 305 307 312 314 315 313 313 315 317 317 318 319 320 320 320 323 323 322 319 317 317 316 315 315 314 313 314 316 318 318 319 320 321 322 321 320 320 319 321 322
301 301 302 302 304 306 304 306 311 311 311 310 311 316 315 314 317 319 320 320 322 324 322 320 318 318 317 317 316 315 315 315 317 318 320 319 317 320 321 320 320 322 320 321 323
300 301 302 303 304 305 306 308 311 312 315 311 314 316 317 315 317 317 320 321 322 323 322 323 320 320 319 318 318 317 317 316 317 318 320 319 317 316 320 320 318 321 322 324 326
300 300 301 303 304 306 305 307 309 315 317 312 313 312 316 318 317 318 318 320 321 322 322 322 321 321 321 321 319 319 318 317 317 316 318 318 318 316 319 320 319 321 323 332 332
300 300 301 302 303 304 305 308 317 318 311 311 312 313 312 314 323 323 320 320 324 325 324 324 322 321 321 321 321 317 315 318 321 319 318 317 318 317 321 327 321 321 331 330 329
300 301 303 304 306 307 307 312 316 311 313 312 311 311 312 316 321 320 321 324 321 322 323 325 326 321 321 321 319 317 317 317 320 320 319 318 319 317 319 326 325 330 329 328 326
302 304 306 309 308 308 312 314 310 310 309 311 311 313 313 317 321 320 322 325 322 322 324 323 324 323 322 322 319 318 319 317 319 329 330 328 324 320 325 327 329 328 328 329 327
304 306 308 312 312 310 314 314 315 312 311 311 315 315 317 317 319 320 319 322 326 324 323 323 325 323 323 322 321 318 318 319 318 330 331 331 333 334 331 329 327 328 328 327 325
304 307 308 314 313 313 315 313 311 311 314 315 317 317 316 318 318 320 321 320 323 327 323 325 327 326 326 323 320 318 320 319 322 325 327 329 332 333 331 329 328 326 326 324 322
303 305 306 309 313 313 314 314 312 313 313 316 316 316 317 317 318 321 321 320 317 316 323 326 325 327 327 324 322 318 318 325 327 328 329 330 333 331 329 329 329 329 326 322 321
303 304 307 309 315 314 313 312 312 314 316 316 317 315 316 318 318 319 319 319 319 319 328 327 327 329 328 326 323 324 320 324 327 327 330 330 333 327 328 330 330 328 327 326 324
303 308 310 312 311 309 312 313 314 313 316 316 315 316 314 318 318 319 319 322 321 323 325 325 329 327 329 327 325 324 322 324 325 329 331 331 331 329 330 329 328 327 325 324 325
305 307 305 307 306 308 311 312 314 317 316 316 314 314 315 319 319 319 320 323 322 324 324 325 331 330 327 326 328 329 329 325 328 329 331 331 328 328 325 328 326 326 324 323 322
304 304 304 304 307 308 311 312 315 316 316 316 316 316 316 317 318 319 321 319 322 325 322 324 331 331 330 330 328 330 329 328 327 330 331 328 329 328 326 325 325 325 324 323 318
301 302 304 305 306 308 310 312 314 314 315 315 315 314 314 316 313 317 320 321 323 325 321 325 329 326 330 326 328 329 327 328 328 329 327 327 325 326 326 327 326 324 323 318 316

GFSSW_925_thetae_114.txt.gz
Theta_e
313 312 312 312 312 312 311 312 312 312 312 312 312 312 312 311 311 310 310 310 309 309 311 314 317 315 315 311 312 311 309 308 311 312 313 313 313 314 315 317 318 317 339 348 355
311 311 312 312 311 311 311 311 311 312 311 312 311 311 311 311 310 311 310 311 310 310 314 314 317 314 310 310 311 310 310 311 309 311 312 313 313 313 315 317 317 317 320 340 341
310 310 309 309 310 311 311 311 311 311 312 311 311 311 310 310 311 313 315 316 317 312 313 315 317 312 310 310 310 309 312 311 312 312 312 313 313 313 314 315 316 317 317 318 327
311 310 310 309 309 310 310 311 311 312 312 311 311 311 310 310 307 315 315 318 318 315 318 319 314 313 310 311 310 311 312 311 312 312 312 313 313 314 313 314 314 314 316 316 315
310 310 310 310 310 309 310 310 310 311 311 311 311 310 310 311 311 307 316 316 318 318 322 318 315 312 312 310 311 311 312 312 311 311 312 311 312 312 312 313 313 314 316 316 315
307 308 309 309 309 308 308 309 309 309 309 310 310 310 310 310 307 308 311 316 319 318 319 315 315 312 311 311 312 312 314 314 312 309 311 312 313 310 312 313 314 315 315 315 314
306 306 307 307 308 308 307 307 307 307 308 309 310 310 311 309 307 309 315 311 320 319 318 316 315 314 311 312 312 313 313 313 311 310 309 310 311 312 312 312 313 314 314 315 314
305 305 305 305 306 306 305 304 304 305 306 309 311 312 314 310 310 309 308 313 312 319 318 317 316 315 313 311 314 312 312 314 313 311 311 310 313 312 312 311 313 314 314 315 314
304 303 302 304 305 305 302 301 300 299 306 310 312 312 312 312 314 314 314 315 317 321 317 317 315 313 312 313 313 309 312 309 311 310 311 310 313 312 312 313 313 313 314 315 314
304 303 302 302 302 303 303 302 301 309 310 312 313 316 313 315 315 318 319 315 318 320 320 319 315 314 313 311 316 314 309 311 311 313 311 312 312 311 312 313 314 314 314 315 314
303 301 301 301 302 302 304 304 304 310 312 315 315 315 315 314 315 315 318 317 319 320 321 317 317 318 317 314 313 312 311 311 312 312 314 312 312 313 314 311 313 314 315 314 314
302 301 301 301 301 302 305 304 304 310 315 314 315 314 314 313 314 314 315 320 321 322 320 319 319 316 315 315 314 312 311 311 312 313 314 315 315 314 314 314 315 316 315 315 316
300 300 300 301 300 305 303 305 307 307 311 312 313 315 314 314 316 316 316 319 320 322 322 321 318 317 315 314 314 312 311 312 311 313 314 315 314 317 317 317 318 319 316 317 316
300 300 301 302 303 303 301 302 304 306 311 311 309 311 313 315 316 316 316 318 321 322 322 322 319 317 315 315 313 313 313 313 313 313 314 315 316 315 318 318 319 319 317 331 342
300 300 302 303 302 303 302 301 305 307 312 309 310 313 314 315 315 316 316 316 322 322 322 324 321 320 316 315 314 314 314 315 314 313 314 316 315 314 315 319 318 320 322 340 340
301 300 301 303 302 302 301 303 305 313 312 309 310 312 310 313 316 317 318 317 318 321 322 323 320 320 319 317 316 316 317 316 314 312 315 315 316 315 316 317 318 321 333 339 335
301 301 301 303 303 302 303 305 312 314 309 311 311 310 311 311 314 320 321 321 324 326 324 323 323 321 319 319 318 318 317 317 316 316 316 315 316 315 315 317 320 332 336 333 331
300 301 302 303 304 303 304 308 312 308 310 310 309 311 311 313 320 320 320 319 318 323 324 325 327 322 321 320 320 319 319 315 318 319 317 315 316 315 316 324 322 331 330 330 328
300 302 303 307 307 304 310 312 308 309 308 310 312 311 313 313 316 319 320 320 321 322 327 326 325 322 322 321 320 321 321 315 318 325 322 322 326 321 324 326 329 328 328 327 325
301 302 303 307 310 305 311 313 313 312 311 313 315 311 314 315 315 318 319 319 319 318 324 327 327 322 322 322 321 321 316 317 317 327 326 327 331 330 330 329 329 328 327 325 324
301 301 303 305 307 308 312 313 312 312 312 315 314 317 316 316 316 317 319 319 319 321 321 326 327 327 323 325 324 320 320 317 317 321 323 325 325 329 329 329 327 326 326 324 323
300 302 302 305 307 309 312 312 310 312 312 315 314 316 317 317 318 317 321 320 318 318 320 323 328 328 327 325 325 325 324 319 322 327 321 323 324 329 329 329 328 326 323 321 321
299 302 304 307 306 307 308 309 310 312 314 315 317 316 313 315 319 317 320 319 316 317 320 324 328 327 330 326 324 325 323 320 319 321 326 327 329 328 329 329 328 327 325 321 319
300 303 303 301 303 306 308 310 311 311 314 315 316 314 314 315 315 318 319 320 317 317 319 319 329 324 327 326 324 325 320 322 321 322 326 326 331 330 330 330 329 328 325 325 321
300 302 303 302 302 304 306 307 311 312 313 313 316 315 315 316 317 318 318 322 321 321 320 323 331 327 327 325 325 328 329 326 323 323 325 329 328 329 327 327 327 327 327 326 321
299 300 302 302 303 304 305 310 308 308 311 316 316 315 313 315 317 317 317 319 321 323 322 322 330 328 330 327 326 330 328 328 328 329 330 328 327 325 325 326 327 327 325 324 316
299 299 301 302 303 303 306 307 309 308 313 313 313 314 313 314 313 313 313 316 320 323 321 321 328 327 331 329 327 328 329 329 329 329 329 329 327 327 327 327 327 325 323 316 314

GFSSW_925_thetae_120.txt.gz
Theta_e
309 310 310 311 311 310 310 310 310 310 310 311 311 311 310 310 310 309 308 308 306 306 307 313 316 316 314 309 307 305 308 308 308 309 310 310 312 312 312 312 311 314 323 349 354
308 309 309 310 309 309 309 310 310 310 310 310 310 310 310 310 309 308 306 310 317 311 312 314 312 311 310 310 308 308 305 307 308 308 309 310 311 311 313 310 312 317 335 356 353
308 308 308 308 308 308 308 309 309 309 309 309 309 309 309 309 306 306 319 316 320 319 314 309 311 311 311 307 308 308 308 306 309 308 309 309 310 311 312 312 311 313 323 341 356
306 307 307 306 307 307 307 308 308 308 308 309 308 308 309 309 305 308 323 316 313 317 317 311 311 310 310 308 307 309 307 308 309 309 312 310 311 311 309 311 310 310 310 322 350
305 305 305 305 306 306 306 307 307 307 306 306 307 308 309 308 308 306 315 308 314 315 318 312 313 310 310 308 309 308 309 308 309 309 309 309 309 310 310 310 310 309 310 310 331
304 304 304 305 305 305 304 304 304 305 306 306 307 307 308 308 306 306 307 311 318 316 317 313 312 311 310 309 309 310 309 310 309 308 308 309 310 307 309 309 309 310 309 309 316
304 304 304 304 304 304 304 302 300 303 305 306 307 307 307 307 305 307 307 311 317 316 316 315 314 313 311 312 309 311 312 311 309 308 308 308 310 309 309 309 309 309 308 309 309
303 303 304 304 304 304 304 303 302 304 305 307 308 307 307 306 305 306 306 306 307 308 311 315 315 313 311 311 312 310 311 313 310 310 310 309 309 310 309 308 309 309 309 308 309
303 303 304 304 303 304 304 303 299 304 307 308 307 307 307 308 310 310 310 308 309 309 308 315 315 314 312 313 313 311 310 310 313 309 311 310 311 311 310 308 308 308 308 309 308
302 302 302 303 302 301 303 302 303 309 308 308 308 310 308 308 311 312 316 310 311 310 310 312 314 314 313 315 317 312 310 310 311 309 311 310 307 309 310 308 308 308 308 308 308
302 302 301 301 302 300 303 303 300 305 305 310 311 309 309 310 312 314 315 311 311 312 309 318 323 319 317 316 314 312 310 311 309 310 309 311 311 308 309 308 308 307 307 308 309
302 301 301 301 301 300 302 302 303 302 304 303 303 305 308 309 310 309 311 314 315 319 310 320 322 321 317 315 315 313 312 311 310 310 309 310 309 309 310 310 308 308 308 308 309
300 300 298 301 299 302 301 300 301 302 303 304 304 305 306 307 309 310 310 311 315 318 316 316 318 319 317 316 316 315 314 309 310 311 310 312 310 312 311 312 311 309 309 309 309
298 298 300 301 301 301 301 301 301 302 305 306 309 309 308 312 314 312 312 312 313 315 318 320 317 320 319 317 316 316 314 311 311 310 310 310 310 310 310 311 312 311 309 309 309
297 297 299 301 301 302 302 301 301 302 304 303 308 311 311 313 312 312 314 313 313 313 317 322 322 321 321 317 314 314 313 313 311 310 310 311 310 309 312 314 313 313 320 326 333
296 297 299 301 301 303 302 302 302 310 309 306 307 307 309 309 309 313 317 314 313 315 314 319 319 320 320 318 316 314 313 311 309 308 311 310 310 309 311 314 314 338 337 338 339
297 297 299 300 303 303 302 302 308 309 306 307 306 311 310 308 309 316 316 318 318 321 319 318 319 320 319 319 316 312 310 311 311 311 313 309 309 309 312 312 313 336 337 334 333
297 297 301 303 303 303 303 305 308 304 307 307 311 311 310 309 312 316 317 318 318 314 321 323 325 321 321 320 318 315 311 312 316 314 312 310 311 313 312 321 327 336 334 331 332
298 297 301 302 304 303 307 307 303 306 308 313 313 311 311 311 312 313 314 317 317 318 323 326 323 321 320 318 318 315 313 311 313 317 314 312 315 320 329 334 335 334 333 332 330
298 297 298 300 304 305 308 310 311 309 310 312 317 313 313 314 315 315 314 315 318 318 319 322 325 323 322 321 319 316 314 315 313 321 319 320 321 317 329 334 334 334 333 329 326
298 295 298 301 305 301 307 307 307 306 307 311 315 315 316 316 316 318 318 314 316 320 317 321 322 324 324 325 324 321 316 316 315 316 319 326 323 328 325 329 334 333 330 327 324
298 296 298 301 299 303 305 304 304 307 308 310 313 314 312 314 315 315 315 315 316 318 320 319 318 324 324 321 322 320 318 314 318 318 316 317 319 326 326 323 324 327 326 324 323
297 296 299 301 298 298 300 301 303 308 307 310 310 313 314 315 316 315 316 315 315 317 318 320 321 326 325 325 324 324 320 318 315 316 319 319 321 327 326 324 323 324 325 323 319
298 299 295 295 296 300 301 302 303 304 307 307 309 311 311 314 314 315 314 315 316 317 319 317 318 318 326 325 323 325 322 320 318 319 320 319 332 332 328 325 324 324 323 320 317
294 297 298 297 298 299 301 302 304 305 305 307 311 311 312 313 313 312 314 313 314 318 319 316 321 322 323 326 324 325 323 319 320 320 322 325 332 331 327 325 324 321 319 317 315
299 300 297 299 299 300 301 302 303 304 304 307 308 308 309 312 314 314 312 314 317 317 320 319 323 322 325 326 324 327 324 324 321 321 323 328 329 327 324 322 320 320 319 318 316
298 298 299 299 298 300 300 301 303 302 304 305 306 307 310 311 311 309 309 310 311 314 315 320 318 322 328 326 327 330 327 325 326 323 327 329 325 325 324 324 321 320 318 316 314

GFSSW_925_thetae_123.txt.gz
Theta_e
308 308 308 308 308 308 308 309 309 309 309 309 310 310 310 309 309 310 310 310 307 306 309 316 320 317 312 313 311 310 312 312 312 312 312 313 314 315 314 316 316 317 332 337 355
307 307 307 306 307 307 307 307 308 308 308 309 308 308 309 309 309 309 308 308 306 310 314 313 317 316 315 314 313 314 314 312 313 313 313 313 314 315 315 316 316 319 356 354 354
306 306 306 306 306 306 306 307 307 308 308 308 308 308 307 308 307 307 315 314 314 318 314 312 314 315 316 314 313 314 314 312 311 313 313 313 313 313 314 314 316 316 328 356 355
305 305 305 305 306 306 306 306 306 306 307 307 307 307 308 309 310 306 318 311 315 323 314 311 314 315 316 315 313 313 312 313 312 312 314 313 313 314 314 315 315 314 314 320 359
305 305 305 305 305 305 305 305 305 305 306 306 306 307 308 308 309 310 322 312 320 316 315 310 312 315 316 316 313 313 313 312 313 312 313 313 314 314 314 315 315 316 316 316 323
304 304 304 304 305 305 304 304 303 305 305 306 306 306 307 308 305 306 306 307 317 316 316 313 311 312 315 314 316 315 314 314 313 313 312 313 313 313 313 315 315 315 316 316 316
303 304 304 304 304 304 303 301 303 304 305 306 306 306 307 307 305 306 306 308 314 316 317 315 313 312 313 314 313 314 315 314 314 314 313 312 313 314 313 314 314 315 315 316 316
303 302 303 303 302 303 302 302 299 303 306 306 306 306 307 306 306 306 306 306 306 312 310 312 315 314 314 314 313 315 316 317 317 313 312 313 316 314 314 314 314 315 315 316 316
302 302 302 302 302 302 302 302 300 306 308 309 306 307 308 306 308 308 307 307 307 308 309 311 316 316 315 315 315 315 314 316 316 316 316 313 317 316 315 313 315 316 316 316 316
302 301 300 302 302 302 302 301 304 309 307 307 307 307 307 306 309 311 313 309 310 310 309 310 318 318 317 317 315 314 315 314 315 315 316 316 316 314 314 315 316 317 317 317 317
301 301 300 301 302 301 302 302 301 304 303 306 307 307 306 307 310 313 313 310 312 312 311 310 321 321 319 318 314 315 315 315 314 315 316 317 317 315 316 315 316 316 316 317 317
301 300 301 301 301 301 301 302 301 302 303 302 302 302 304 306 307 306 311 314 315 318 312 312 320 320 317 316 317 315 315 315 315 315 315 317 318 318 316 317 317 317 318 317 318
299 298 300 301 301 301 301 301 301 301 304 302 302 303 304 304 304 307 307 308 314 315 314 315 316 315 319 319 319 318 316 315 315 313 314 314 316 316 315 316 316 317 318 319 319
297 297 301 300 302 301 303 301 301 302 305 301 308 308 307 310 310 309 310 308 307 313 316 314 314 316 317 320 319 320 317 315 314 315 316 315 316 317 317 317 317 318 318 318 319
297 297 300 301 301 303 303 302 301 303 304 302 306 309 310 313 310 310 313 312 313 312 314 315 315 314 317 320 318 319 317 316 314 315 315 314 315 317 317 317 318 318 320 320 319
297 298 299 301 301 303 302 302 302 310 307 305 307 307 308 307 308 309 315 314 315 316 315 314 313 318 315 319 318 317 316 316 316 315 316 317 316 317 316 317 318 323 328 330 329
298 297 298 299 303 302 302 304 308 308 304 304 306 307 310 310 310 309 312 317 318 321 321 319 316 315 318 317 319 318 317 318 317 317 316 316 316 317 317 317 318 325 335 338 339
297 297 299 301 300 303 303 308 308 304 304 305 310 310 312 311 311 313 313 315 316 316 317 317 321 316 319 320 321 318 317 316 317 317 316 314 317 317 317 316 325 335 335 334 335
298 298 300 299 303 303 306 308 307 309 307 312 310 312 312 311 314 314 313 314 313 316 318 318 323 320 318 320 320 319 317 315 317 316 316 315 316 317 321 330 337 336 334 334 332
299 296 298 299 304 304 306 307 309 304 306 308 312 314 314 313 315 316 315 314 315 317 317 319 325 319 317 322 321 319 317 317 319 319 317 318 317 319 328 333 336 336 335 332 329
298 298 298 299 303 304 304 302 302 303 305 310 313 314 314 315 315 318 316 315 314 315 317 319 321 320 321 321 323 322 319 316 317 321 320 324 320 329 328 333 336 335 332 330 329
298 299 298 299 299 301 301 301 301 304 305 308 310 312 312 314 318 315 315 316 314 316 319 319 320 322 324 320 321 322 320 318 322 322 321 323 328 331 330 335 335 333 330 328 326
298 298 299 300 299 300 300 301 302 305 304 309 309 309 311 312 317 315 315 313 313 314 318 319 321 322 326 321 321 324 320 319 318 321 324 324 335 328 330 334 330 330 327 325 325
299 299 299 299 299 299 301 301 302 302 304 304 306 309 309 308 312 314 314 313 312 313 318 318 320 320 320 320 319 326 320 318 319 323 323 322 335 331 331 330 330 328 325 324 323
299 299 299 300 300 299 300 301 302 303 303 303 308 308 308 309 309 313 312 311 311 315 319 319 324 321 320 319 318 325 322 319 320 319 322 322 328 333 331 329 329 326 324 322 320
299 299 300 300 299 299 300 301 302 302 302 303 307 306 306 308 309 310 312 311 313 314 313 312 321 322 323 325 325 327 323 321 322 322 323 324 327 331 329 326 325 323 322 322 320
297 298 299 300 300 299 300 300 302 302 302 303 303 305 307 308 308 308 308 309 310 312 313 313 316 319 327 327 326 328 325 323 322 322 324 328 330 329 328 327 325 324 323 321 317